Time,TemperatureF,DewpointF,PressureIn,WindDirection,WindDirectionDegrees,WindSpeedMPH,WindSpeedGustMPH,Humidity,HourlyPrecipIn,Conditions,Clouds,dailyrainin,SoftwareType,DateUTC
2013-01-16 00:00:00,34.2,16.0,30.27,NNW,331,8.1,9.2,47,0.00,,OVC,0.05,VWS V14.00,2013-01-16 05:00:00,
2013-01-16 00:01:00,34.2,16.0,30.26,NNW,341,3.1,8.1,47,0.00,,OVC,0.00,VWS V14.00,2013-01-16 05:01:00,
2013-01-16 00:02:00,34.2,16.0,30.26,North,353,6.3,6.3,47,0.00,,OVC,0.00,VWS V14.00,2013-01-16 05:02:00,
2013-01-16 00:03:00,34.2,16.0,30.26,NNW,337,5.8,6.3,47,0.00,,OVC,0.00,VWS V14.00,2013-01-16 05:03:00,
2013-01-16 00:04:00,34.2,16.0,30.26,NW,320,5.4,5.8,47,0.00,,OVC,0.00,VWS V14.00,2013-01-16 05:04:00,
2013-01-16 00:05:00,34.2,16.0,30.27,NNW,330,6.7,6.7,47,0.00,,OVC,0.00,VWS V14.00,2013-01-16 05:05:00,
2013-01-16 00:06:00,34.0,15.9,30.26,North,2,7.6,7.6,47,0.00,,OVC,0.00,VWS V14.00,2013-01-16 05:06:00,
2013-01-16 00:07:00,34.0,15.9,30.26,NW,307,2.7,7.6,47,0.00,,OVC,0.00,VWS V14.00,2013-01-16 05:07:00,
2013-01-16 00:08:00,34.0,15.9,30.26,NNW,332,3.6,5.4,47,0.00,,OVC,0.00,VWS V14.00,2013-01-16 05:08:00,
2013-01-16 00:09:00,34.0,15.9,30.26,NW,319,4.9,5.4,47,0.00,,OVC,0.00,VWS V14.00,2013-01-16 05:09:00,
2013-01-16 00:10:00,34.0,15.9,30.27,NNW,339,5.4,7.6,47,0.00,,OVC,0.00,VWS V14.00,2013-01-16 05:10:00,
2013-01-16 00:11:00,34.0,15.4,30.26,WNW,295,4.0,5.8,46,0.00,,OVC,0.00,VWS V14.00,2013-01-16 05:11:00,
2013-01-16 00:12:00,33.8,15.2,30.26,NW,322,5.4,5.4,46,0.00,,OVC,0.00,VWS V14.00,2013-01-16 05:12:00,
2013-01-16 00:13:00,33.8,15.2,30.26,North,5,5.4,8.7,46,0.00,,OVC,0.00,VWS V14.00,2013-01-16 05:13:00,
2013-01-16 00:14:00,33.8,15.2,30.26,NNW,327,5.8,5.8,46,0.00,,OVC,0.00,VWS V14.00,2013-01-16 05:14:00,
2013-01-16 00:15:00,33.8,15.2,30.27,NW,320,4.9,5.8,46,0.00,,OVC,0.00,VWS V14.00,2013-01-16 05:15:00,
2013-01-16 00:16:00,33.8,15.2,30.26,NW,316,5.4,5.4,46,0.00,,OVC,0.00,VWS V14.00,2013-01-16 05:16:00,
2013-01-16 00:17:00,33.8,15.7,30.26,NW,315,2.7,5.4,47,0.00,,OVC,0.00,VWS V14.00,2013-01-16 05:17:00,
2013-01-16 00:18:00,33.8,15.7,30.26,NW,319,6.3,6.3,47,0.00,,OVC,0.00,VWS V14.00,2013-01-16 05:18:00,
2013-01-16 00:19:00,33.8,15.2,30.30,North,353,6.3,6.3,46,0.00,,OVC,0.00,VWS V14.00,2013-01-16 05:19:00,
2013-01-16 00:20:00,33.6,15.6,30.29,NNW,340,2.7,6.3,47,0.00,,OVC,0.00,VWS V14.00,2013-01-16 05:20:00,
2013-01-16 00:21:00,33.6,15.6,30.30,NNW,330,5.8,8.1,47,0.00,,OVC,0.00,VWS V14.00,2013-01-16 05:21:00,
2013-01-16 00:22:00,33.6,15.6,30.30,NNW,344,2.7,5.8,47,0.00,,OVC,0.00,VWS V14.00,2013-01-16 05:22:00,
2013-01-16 00:23:00,33.6,15.6,30.30,NW,304,5.4,6.3,47,0.00,,OVC,0.00,VWS V14.00,2013-01-16 05:23:00,
2013-01-16 00:24:00,33.6,15.6,30.30,NW,323,8.1,8.1,47,0.00,,OVC,0.00,VWS V14.00,2013-01-16 05:24:00,
2013-01-16 00:25:00,33.6,15.6,30.29,NW,313,5.8,8.1,47,0.00,,OVC,0.00,VWS V14.00,2013-01-16 05:25:00,
2013-01-16 00:26:00,33.6,15.6,30.30,NNW,333,2.7,6.3,47,0.00,,OVC,0.00,VWS V14.00,2013-01-16 05:26:00,
2013-01-16 00:27:00,33.6,15.6,30.30,NW,310,4.0,5.8,47,0.00,,OVC,0.00,VWS V14.00,2013-01-16 05:27:00,
2013-01-16 00:28:00,33.4,15.4,30.30,NNW,341,5.4,5.4,47,0.00,,OVC,0.00,VWS V14.00,2013-01-16 05:28:00,
2013-01-16 00:29:00,33.4,15.4,30.30,NNW,339,4.0,5.8,47,0.00,,OVC,0.00,VWS V14.00,2013-01-16 05:29:00,
2013-01-16 00:30:00,33.4,15.4,30.29,NNW,346,2.7,5.4,47,0.00,,OVC,0.00,VWS V14.00,2013-01-16 05:30:00,
2013-01-16 00:31:00,33.4,15.4,30.30,NNW,330,5.4,5.4,47,0.00,,OVC,0.00,VWS V14.00,2013-01-16 05:31:00,
2013-01-16 00:32:00,33.4,15.4,30.30,WNW,303,4.0,7.6,47,0.00,,OVC,0.00,VWS V14.00,2013-01-16 05:32:00,
2013-01-16 00:33:00,33.4,15.4,30.30,NNW,345,4.0,5.4,47,0.00,,OVC,0.00,VWS V14.00,2013-01-16 05:33:00,
2013-01-16 00:34:00,33.4,15.4,30.30,NNW,335,3.6,4.0,47,0.00,,OVC,0.00,VWS V14.00,2013-01-16 05:34:00,
2013-01-16 00:35:00,33.4,15.4,30.29,NNW,329,4.9,4.9,47,0.00,,OVC,0.00,VWS V14.00,2013-01-16 05:35:00,
2013-01-16 00:36:00,33.3,15.2,30.30,WNW,303,4.9,4.9,47,0.00,,OVC,0.00,VWS V14.00,2013-01-16 05:36:00,
2013-01-16 00:37:00,33.3,15.2,30.30,NNW,329,6.3,7.2,47,0.00,,OVC,0.00,VWS V14.00,2013-01-16 05:37:00,
2013-01-16 00:38:00,33.3,15.2,30.30,North,353,6.3,6.3,47,0.00,,OVC,0.00,VWS V14.00,2013-01-16 05:38:00,
2013-01-16 00:39:00,33.3,15.2,30.30,NW,304,8.1,8.1,47,0.00,,OVC,0.00,VWS V14.00,2013-01-16 05:39:00,
2013-01-16 00:40:00,33.3,15.2,30.29,NNW,343,3.1,8.3,47,0.00,,OVC,0.00,VWS V14.00,2013-01-16 05:40:00,
2013-01-16 00:41:00,33.3,15.2,30.30,NW,310,3.1,5.8,47,0.00,,OVC,0.00,VWS V14.00,2013-01-16 05:41:00,
2013-01-16 00:42:00,33.3,15.2,30.30,North,353,3.1,4.9,47,0.00,,OVC,0.00,VWS V14.00,2013-01-16 05:42:00,
2013-01-16 00:43:00,33.3,15.2,30.30,North,353,2.7,4.0,47,0.00,,OVC,0.00,VWS V14.00,2013-01-16 05:43:00,
2013-01-16 00:44:00,33.3,15.2,30.30,NNW,343,3.6,3.6,47,0.00,,OVC,0.00,VWS V14.00,2013-01-16 05:44:00,
2013-01-16 00:45:00,33.1,15.1,30.29,NW,324,2.2,3.6,47,0.00,,OVC,0.00,VWS V14.00,2013-01-16 05:45:00,
2013-01-16 00:46:00,33.1,15.1,30.30,WNW,300,6.3,6.7,47,0.00,,OVC,0.00,VWS V14.00,2013-01-16 05:46:00,
2013-01-16 00:47:00,33.1,15.1,30.30,NW,320,4.0,6.3,47,0.00,,OVC,0.00,VWS V14.00,2013-01-16 05:47:00,
2013-01-16 00:48:00,33.1,15.1,30.30,NW,311,3.6,4.9,47,0.00,,OVC,0.00,VWS V14.00,2013-01-16 05:48:00,
2013-01-16 00:49:00,33.1,15.1,30.30,NNW,333,4.0,4.9,47,0.00,,OVC,0.00,VWS V14.00,2013-01-16 05:49:00,
2013-01-16 00:50:00,33.1,15.1,30.29,NNW,340,6.3,7.6,47,0.00,,OVC,0.00,VWS V14.00,2013-01-16 05:50:00,
2013-01-16 00:51:00,33.1,15.1,30.30,NW,310,4.0,7.6,47,0.00,,OVC,0.00,VWS V14.00,2013-01-16 05:51:00,
2013-01-16 00:52:00,32.9,14.9,30.30,WNW,297,4.0,4.9,47,0.00,,OVC,0.00,VWS V14.00,2013-01-16 05:52:00,
2013-01-16 00:53:00,32.9,14.9,30.30,WNW,290,4.0,6.3,47,0.00,,OVC,0.00,VWS V14.00,2013-01-16 05:53:00,
2013-01-16 00:54:00,32.9,14.9,30.30,NNW,344,5.4,5.8,47,0.00,,OVC,0.00,VWS V14.00,2013-01-16 05:54:00,
2013-01-16 00:55:00,32.9,14.9,30.29,NW,312,5.4,5.8,47,0.00,,OVC,0.00,VWS V14.00,2013-01-16 05:55:00,
2013-01-16 00:56:00,32.9,14.9,30.30,NW,316,7.6,7.6,47,0.00,,OVC,0.00,VWS V14.00,2013-01-16 05:56:00,
2013-01-16 00:57:00,32.9,14.9,30.30,WNW,285,2.7,7.6,47,0.00,,OVC,0.00,VWS V14.00,2013-01-16 05:57:00,
2013-01-16 00:58:00,32.9,14.9,30.30,WNW,298,4.9,5.4,47,0.00,,OVC,0.00,VWS V14.00,2013-01-16 05:58:00,
2013-01-16 00:59:00,32.9,14.9,30.30,NW,313,4.0,5.8,47,0.00,,OVC,0.00,VWS V14.00,2013-01-16 05:59:00,
2013-01-16 01:00:00,32.9,14.9,30.29,WNW,298,5.4,5.4,47,0.00,,OVC,0.00,VWS V14.00,2013-01-16 06:00:00,
2013-01-16 01:01:00,32.7,14.7,30.30,NW,322,2.7,5.4,47,0.00,,OVC,0.00,VWS V14.00,2013-01-16 06:01:00,
2013-01-16 01:02:00,32.7,14.7,30.30,NW,318,4.9,4.9,47,0.00,,OVC,0.00,VWS V14.00,2013-01-16 06:02:00,
2013-01-16 01:03:00,32.7,14.7,30.30,NNW,340,5.4,6.3,47,0.00,,OVC,0.00,VWS V14.00,2013-01-16 06:03:00,
2013-01-16 01:04:00,32.7,14.7,30.30,WNW,295,5.8,6.3,47,0.00,,OVC,0.00,VWS V14.00,2013-01-16 06:04:00,
2013-01-16 01:05:00,32.7,14.7,30.29,NW,320,3.1,5.8,47,0.00,,OVC,0.00,VWS V14.00,2013-01-16 06:05:00,
2013-01-16 01:06:00,32.7,14.7,30.30,NNW,339,3.6,3.6,47,0.00,,OVC,0.00,VWS V14.00,2013-01-16 06:06:00,
2013-01-16 01:07:00,32.7,14.7,30.30,NW,319,4.9,6.3,47,0.00,,OVC,0.00,VWS V14.00,2013-01-16 06:07:00,
2013-01-16 01:08:00,32.7,14.7,30.30,NW,318,3.1,4.9,47,0.00,,OVC,0.00,VWS V14.00,2013-01-16 06:08:00,
2013-01-16 01:09:00,32.7,14.7,30.30,NW,307,5.4,5.4,47,0.00,,OVC,0.00,VWS V14.00,2013-01-16 06:09:00,
2013-01-16 01:10:00,32.7,14.7,30.29,NNW,336,4.9,5.8,47,0.00,,OVC,0.00,VWS V14.00,2013-01-16 06:10:00,
2013-01-16 01:11:00,32.5,14.6,30.30,NW,309,5.4,6.3,47,0.00,,OVC,0.00,VWS V14.00,2013-01-16 06:11:00,
2013-01-16 01:12:00,32.5,14.6,30.30,NW,310,7.6,7.6,47,0.00,,OVC,0.00,VWS V14.00,2013-01-16 06:12:00,
2013-01-16 01:13:00,32.5,14.6,30.30,NW,320,4.0,7.6,47,0.00,,OVC,0.00,VWS V14.00,2013-01-16 06:13:00,
2013-01-16 01:14:00,32.5,14.6,30.30,NNW,330,3.1,5.8,47,0.00,,OVC,0.00,VWS V14.00,2013-01-16 06:14:00,
2013-01-16 01:15:00,32.5,14.6,30.29,WNW,290,3.6,4.9,47,0.00,,OVC,0.00,VWS V14.00,2013-01-16 06:15:00,
2013-01-16 01:16:00,32.5,14.6,30.30,NW,317,3.1,5.4,47,0.00,,OVC,0.00,VWS V14.00,2013-01-16 06:16:00,
2013-01-16 01:17:00,32.5,14.6,30.30,NW,321,5.8,5.8,47,0.00,,OVC,0.00,VWS V14.00,2013-01-16 06:17:00,
2013-01-16 01:18:00,32.5,14.6,30.30,WNW,292,8.3,8.3,47,0.00,,OVC,0.00,VWS V14.00,2013-01-16 06:18:00,
2013-01-16 01:19:00,32.5,14.6,30.30,WNW,286,5.8,8.3,47,0.00,,OVC,0.00,VWS V14.00,2013-01-16 06:19:00,
2013-01-16 01:20:00,32.7,14.7,30.29,WNW,294,4.0,6.7,47,0.00,,OVC,0.00,VWS V14.00,2013-01-16 06:20:00,
2013-01-16 01:21:00,32.7,14.7,30.30,NW,320,4.9,5.4,47,0.00,,OVC,0.00,VWS V14.00,2013-01-16 06:21:00,
2013-01-16 01:22:00,32.7,14.7,30.30,WNW,302,8.1,8.1,47,0.00,,OVC,0.00,VWS V14.00,2013-01-16 06:22:00,
2013-01-16 01:23:00,32.7,14.7,30.30,NW,325,4.0,8.1,47,0.00,,OVC,0.00,VWS V14.00,2013-01-16 06:23:00,
2013-01-16 01:24:00,32.7,14.7,30.30,WNW,301,5.4,5.4,47,0.00,,OVC,0.00,VWS V14.00,2013-01-16 06:24:00,
2013-01-16 01:25:00,32.7,14.7,30.29,NW,314,5.8,8.1,47,0.00,,OVC,0.00,VWS V14.00,2013-01-16 06:25:00,
2013-01-16 01:26:00,32.9,14.9,30.30,NW,307,4.0,8.1,47,0.00,,OVC,0.00,VWS V14.00,2013-01-16 06:26:00,
2013-01-16 01:27:00,32.9,14.9,30.30,NW,307,5.8,6.3,47,0.00,,OVC,0.00,VWS V14.00,2013-01-16 06:27:00,
2013-01-16 01:28:00,32.9,14.9,30.30,NW,313,4.0,5.8,47,0.00,,OVC,0.00,VWS V14.00,2013-01-16 06:28:00,
2013-01-16 01:29:00,32.9,14.9,30.30,WNW,300,6.7,6.7,47,0.00,,OVC,0.00,VWS V14.00,2013-01-16 06:29:00,
2013-01-16 01:30:00,33.1,15.1,30.29,WNW,301,4.9,6.7,47,0.00,,OVC,0.00,VWS V14.00,2013-01-16 06:30:00,
2013-01-16 01:31:00,33.1,15.1,30.30,NW,307,4.0,6.3,47,0.00,,OVC,0.00,VWS V14.00,2013-01-16 06:31:00,
2013-01-16 01:32:00,33.1,15.1,30.30,NW,318,4.0,4.9,47,0.00,,OVC,0.00,VWS V14.00,2013-01-16 06:32:00,
2013-01-16 01:33:00,33.1,15.1,30.30,NNW,329,5.4,6.3,47,0.00,,OVC,0.00,VWS V14.00,2013-01-16 06:33:00,
2013-01-16 01:34:00,33.1,15.1,30.30,WNW,303,5.4,6.3,47,0.00,,OVC,0.00,VWS V14.00,2013-01-16 06:34:00,
2013-01-16 01:35:00,33.1,15.1,30.29,NW,314,4.9,6.3,47,0.00,,OVC,0.00,VWS V14.00,2013-01-16 06:35:00,
2013-01-16 01:36:00,33.1,14.6,30.30,NNW,327,4.0,4.9,46,0.00,,OVC,0.00,VWS V14.00,2013-01-16 06:36:00,
2013-01-16 01:37:00,33.1,15.1,30.30,West,278,5.4,5.8,47,0.00,,OVC,0.00,VWS V14.00,2013-01-16 06:37:00,
2013-01-16 01:38:00,33.1,15.1,30.30,NW,319,4.9,7.6,47,0.00,,OVC,0.00,VWS V14.00,2013-01-16 06:38:00,
2013-01-16 01:39:00,33.1,15.1,30.30,NW,318,5.4,5.4,47,0.00,,OVC,0.00,VWS V14.00,2013-01-16 06:39:00,
2013-01-16 01:40:00,33.1,15.1,30.29,WNW,302,4.0,5.4,47,0.00,,OVC,0.00,VWS V14.00,2013-01-16 06:40:00,
2013-01-16 01:41:00,33.1,15.1,30.30,WNW,299,3.6,6.3,47,0.00,,OVC,0.00,VWS V14.00,2013-01-16 06:41:00,
2013-01-16 01:42:00,33.1,14.6,30.30,WNW,293,4.9,5.8,46,0.00,,OVC,0.00,VWS V14.00,2013-01-16 06:42:00,
2013-01-16 01:43:00,33.1,15.1,30.30,NW,305,5.8,6.3,47,0.00,,OVC,0.00,VWS V14.00,2013-01-16 06:43:00,
2013-01-16 01:44:00,33.1,15.1,30.30,WNW,292,4.9,5.8,47,0.00,,OVC,0.00,VWS V14.00,2013-01-16 06:44:00,
2013-01-16 01:45:00,33.3,15.2,30.29,NNW,331,4.5,4.9,47,0.00,,OVC,0.00,VWS V14.00,2013-01-16 06:45:00,
2013-01-16 01:46:00,33.3,15.2,30.30,WNW,299,3.6,4.5,47,0.00,,OVC,0.00,VWS V14.00,2013-01-16 06:46:00,
2013-01-16 01:47:00,33.3,15.2,30.30,WNW,302,4.9,4.9,47,0.00,,OVC,0.00,VWS V14.00,2013-01-16 06:47:00,
2013-01-16 01:48:00,33.3,15.2,30.30,NW,318,4.0,5.4,47,0.00,,OVC,0.00,VWS V14.00,2013-01-16 06:48:00,
2013-01-16 01:49:00,33.3,15.2,30.30,NNW,332,4.0,5.8,47,0.00,,OVC,0.00,VWS V14.00,2013-01-16 06:49:00,
2013-01-16 01:50:00,33.3,14.7,30.29,North,357,4.0,4.0,46,0.00,,OVC,0.00,VWS V14.00,2013-01-16 06:50:00,
2013-01-16 01:51:00,33.3,14.7,30.30,NW,322,4.0,4.0,46,0.00,,OVC,0.00,VWS V14.00,2013-01-16 06:51:00,
2013-01-16 01:52:00,33.3,14.7,30.30,NW,314,2.7,4.9,46,0.00,,OVC,0.00,VWS V14.00,2013-01-16 06:52:00,
2013-01-16 01:53:00,33.3,14.7,30.30,WNW,284,3.6,5.4,46,0.00,,OVC,0.00,VWS V14.00,2013-01-16 06:53:00,
2013-01-16 01:54:00,33.3,14.7,30.30,WNW,293,3.1,3.6,46,0.00,,OVC,0.00,VWS V14.00,2013-01-16 06:54:00,
2013-01-16 01:55:00,33.3,14.7,30.29,North,0,5.4,5.4,46,0.00,,OVC,0.00,VWS V14.00,2013-01-16 06:55:00,
2013-01-16 01:56:00,33.3,14.7,30.30,NW,318,2.2,5.8,46,0.00,,OVC,0.00,VWS V14.00,2013-01-16 06:56:00,
2013-01-16 01:57:00,33.3,14.7,30.30,NW,315,4.5,4.5,46,0.00,,OVC,0.00,VWS V14.00,2013-01-16 06:57:00,
2013-01-16 01:58:00,33.3,14.7,30.30,NW,325,3.1,4.5,46,0.00,,OVC,0.00,VWS V14.00,2013-01-16 06:58:00,
2013-01-16 01:59:00,33.3,14.7,30.30,NNW,340,3.1,5.4,46,0.00,,OVC,0.00,VWS V14.00,2013-01-16 06:59:00,
2013-01-16 02:00:00,33.3,14.7,30.29,WNW,296,4.0,4.0,46,0.00,,OVC,0.05,VWS V14.00,2013-01-16 07:00:00,
2013-01-16 02:01:00,33.3,14.7,30.30,NNW,341,4.0,6.7,46,0.00,,OVC,0.00,VWS V14.00,2013-01-16 07:01:00,
2013-01-16 02:02:00,33.3,14.7,30.30,NW,312,3.1,4.0,46,0.00,,OVC,0.00,VWS V14.00,2013-01-16 07:02:00,
2013-01-16 02:03:00,33.3,14.7,30.30,NW,305,4.0,5.4,46,0.00,,OVC,0.00,VWS V14.00,2013-01-16 07:03:00,
2013-01-16 02:04:00,33.3,14.7,30.30,NW,315,4.9,4.9,46,0.00,,OVC,0.00,VWS V14.00,2013-01-16 07:04:00,
2013-01-16 02:05:00,33.3,14.7,30.29,NW,319,3.6,4.9,46,0.00,,OVC,0.00,VWS V14.00,2013-01-16 07:05:00,
2013-01-16 02:06:00,33.3,14.7,30.30,WNW,282,4.0,5.8,46,0.00,,OVC,0.00,VWS V14.00,2013-01-16 07:06:00,
2013-01-16 02:07:00,33.3,14.7,30.30,NNW,346,3.1,6.3,46,0.00,,OVC,0.00,VWS V14.00,2013-01-16 07:07:00,
2013-01-16 02:08:00,33.4,14.9,30.30,WNW,286,3.6,4.0,46,0.00,,OVC,0.00,VWS V14.00,2013-01-16 07:08:00,
2013-01-16 02:09:00,33.4,14.9,30.30,WNW,293,4.0,5.8,46,0.00,,OVC,0.00,VWS V14.00,2013-01-16 07:09:00,
2013-01-16 02:10:00,33.4,14.9,30.29,WNW,300,4.0,4.0,46,0.00,,OVC,0.00,VWS V14.00,2013-01-16 07:10:00,
2013-01-16 02:11:00,33.4,14.9,30.30,WNW,293,4.0,4.0,46,0.00,,OVC,0.00,VWS V14.00,2013-01-16 07:11:00,
2013-01-16 02:12:00,33.4,14.9,30.30,NW,309,4.0,4.9,46,0.00,,OVC,0.00,VWS V14.00,2013-01-16 07:12:00,
2013-01-16 02:13:00,33.4,14.9,30.30,NNW,329,3.1,4.9,46,0.00,,OVC,0.00,VWS V14.00,2013-01-16 07:13:00,
2013-01-16 02:14:00,33.4,14.9,30.30,NW,310,3.6,4.9,46,0.00,,OVC,0.00,VWS V14.00,2013-01-16 07:14:00,
2013-01-16 02:15:00,33.4,14.4,30.29,NW,317,4.0,4.0,45,0.00,,OVC,0.00,VWS V14.00,2013-01-16 07:15:00,
2013-01-16 02:16:00,33.4,14.4,30.30,NW,305,3.6,4.0,45,0.00,,OVC,0.00,VWS V14.00,2013-01-16 07:16:00,
2013-01-16 02:17:00,33.4,14.4,30.30,NW,307,3.1,3.6,45,0.00,,OVC,0.00,VWS V14.00,2013-01-16 07:17:00,
2013-01-16 02:18:00,33.4,14.4,30.30,NW,308,3.1,4.9,45,0.00,,OVC,0.00,VWS V14.00,2013-01-16 07:18:00,
2013-01-16 02:19:00,33.4,14.4,30.30,WNW,293,3.6,3.6,45,0.00,,OVC,0.00,VWS V14.00,2013-01-16 07:19:00,
2013-01-16 02:20:00,33.4,14.4,30.29,WNW,286,3.6,4.0,45,0.00,,OVC,0.00,VWS V14.00,2013-01-16 07:20:00,
2013-01-16 02:21:00,33.4,14.4,30.30,NW,307,4.0,4.5,45,0.00,,OVC,0.00,VWS V14.00,2013-01-16 07:21:00,
2013-01-16 02:22:00,33.4,14.4,30.30,WNW,295,5.8,5.8,45,0.00,,OVC,0.00,VWS V14.00,2013-01-16 07:22:00,
2013-01-16 02:23:00,33.4,14.4,30.30,WNW,290,5.4,5.8,45,0.00,,OVC,0.00,VWS V14.00,2013-01-16 07:23:00,
2013-01-16 02:24:00,33.4,14.4,30.30,WNW,298,4.0,5.4,45,0.00,,OVC,0.00,VWS V14.00,2013-01-16 07:24:00,
2013-01-16 02:25:00,33.4,14.4,30.29,WNW,302,3.6,5.4,45,0.00,,OVC,0.00,VWS V14.00,2013-01-16 07:25:00,
2013-01-16 02:26:00,33.4,14.4,30.30,WNW,289,4.0,4.0,45,0.00,,OVC,0.00,VWS V14.00,2013-01-16 07:26:00,
2013-01-16 02:27:00,33.4,14.4,30.30,WNW,292,4.0,4.0,45,0.00,,OVC,0.00,VWS V14.00,2013-01-16 07:27:00,
2013-01-16 02:28:00,33.4,14.4,30.30,NNW,330,3.6,4.0,45,0.00,,OVC,0.00,VWS V14.00,2013-01-16 07:28:00,
2013-01-16 02:29:00,33.4,14.4,30.30,NW,307,4.0,5.4,45,0.00,,OVC,0.00,VWS V14.00,2013-01-16 07:29:00,
2013-01-16 02:30:00,33.4,14.4,30.29,WNW,303,5.4,5.4,45,0.00,,OVC,0.00,VWS V14.00,2013-01-16 07:30:00,
2013-01-16 02:31:00,33.4,14.4,30.30,NW,325,3.1,5.4,45,0.00,,OVC,0.00,VWS V14.00,2013-01-16 07:31:00,
2013-01-16 02:32:00,33.4,14.4,30.30,WNW,294,4.5,4.5,45,0.00,,OVC,0.00,VWS V14.00,2013-01-16 07:32:00,
2013-01-16 02:33:00,33.4,14.4,30.30,WNW,295,4.9,6.3,45,0.00,,OVC,0.00,VWS V14.00,2013-01-16 07:33:00,
2013-01-16 02:34:00,33.4,14.4,30.30,WNW,295,4.0,4.9,45,0.00,,OVC,0.00,VWS V14.00,2013-01-16 07:34:00,
2013-01-16 02:35:00,33.4,14.4,30.29,NW,304,4.0,6.7,45,0.00,,OVC,0.00,VWS V14.00,2013-01-16 07:35:00,
2013-01-16 02:36:00,33.4,14.4,30.30,WNW,300,3.6,4.0,45,0.00,,OVC,0.00,VWS V14.00,2013-01-16 07:36:00,
2013-01-16 02:37:00,33.4,13.9,30.30,WNW,302,6.3,6.3,44,0.00,,OVC,0.00,VWS V14.00,2013-01-16 07:37:00,
2013-01-16 02:38:00,33.4,13.9,30.30,WNW,303,4.0,6.3,44,0.00,,OVC,0.00,VWS V14.00,2013-01-16 07:38:00,
2013-01-16 02:39:00,33.4,13.9,30.30,NW,309,4.5,6.3,44,0.00,,OVC,0.00,VWS V14.00,2013-01-16 07:39:00,
2013-01-16 02:40:00,33.4,13.9,30.29,WNW,285,4.9,6.3,44,0.00,,OVC,0.00,VWS V14.00,2013-01-16 07:40:00,
2013-01-16 02:41:00,33.4,13.9,30.30,WNW,303,4.0,4.9,44,0.00,,OVC,0.00,VWS V14.00,2013-01-16 07:41:00,
2013-01-16 02:42:00,33.4,13.9,30.30,WNW,301,4.0,4.9,44,0.00,,OVC,0.00,VWS V14.00,2013-01-16 07:42:00,
2013-01-16 02:43:00,33.4,13.9,30.30,WNW,297,5.4,5.4,44,0.00,,OVC,0.00,VWS V14.00,2013-01-16 07:43:00,
2013-01-16 02:44:00,33.4,13.9,30.30,NW,323,4.0,6.3,44,0.00,,OVC,0.00,VWS V14.00,2013-01-16 07:44:00,
2013-01-16 02:45:00,33.4,13.9,30.29,NW,304,3.1,5.4,44,0.00,,OVC,0.00,VWS V14.00,2013-01-16 07:45:00,
2013-01-16 02:46:00,33.4,13.9,30.30,WNW,303,5.4,8.1,44,0.00,,OVC,0.00,VWS V14.00,2013-01-16 07:46:00,
2013-01-16 02:47:00,33.4,13.9,30.30,NW,311,4.0,8.1,44,0.00,,OVC,0.00,VWS V14.00,2013-01-16 07:47:00,
2013-01-16 02:48:00,33.4,13.9,30.30,NNW,345,4.0,4.0,44,0.00,,OVC,0.00,VWS V14.00,2013-01-16 07:48:00,
2013-01-16 02:49:00,33.4,13.9,30.30,NW,306,5.4,6.3,44,0.00,,OVC,0.00,VWS V14.00,2013-01-16 07:49:00,
2013-01-16 02:50:00,33.4,13.9,30.29,NNW,337,4.0,5.8,44,0.00,,OVC,0.00,VWS V14.00,2013-01-16 07:50:00,
2013-01-16 02:51:00,33.4,13.4,30.30,NW,304,5.8,6.3,43,0.00,,OVC,0.00,VWS V14.00,2013-01-16 07:51:00,
2013-01-16 02:52:00,33.4,13.4,30.30,WNW,287,5.4,5.8,43,0.00,,OVC,0.00,VWS V14.00,2013-01-16 07:52:00,
2013-01-16 02:53:00,33.3,13.2,30.30,NW,308,5.8,6.3,43,0.00,,OVC,0.00,VWS V14.00,2013-01-16 07:53:00,
2013-01-16 02:54:00,33.3,13.2,30.30,NW,311,4.0,5.8,43,0.00,,OVC,0.00,VWS V14.00,2013-01-16 07:54:00,
2013-01-16 02:55:00,33.3,13.2,30.29,NNW,337,4.0,5.4,43,0.00,,OVC,0.00,VWS V14.00,2013-01-16 07:55:00,
2013-01-16 02:56:00,33.3,13.2,30.30,NW,313,5.8,6.3,43,0.00,,OVC,0.00,VWS V14.00,2013-01-16 07:56:00,
2013-01-16 02:57:00,33.3,13.2,30.30,WNW,298,5.4,5.8,43,0.00,,OVC,0.00,VWS V14.00,2013-01-16 07:57:00,
2013-01-16 02:58:00,33.3,13.2,30.30,NW,306,3.6,6.3,43,0.00,,OVC,0.00,VWS V14.00,2013-01-16 07:58:00,
2013-01-16 02:59:00,33.3,13.2,30.30,NW,309,8.1,8.1,43,0.00,,OVC,0.00,VWS V14.00,2013-01-16 07:59:00,
2013-01-16 03:00:00,33.3,13.2,30.29,NW,326,4.0,8.1,43,0.00,,OVC,0.00,VWS V14.00,2013-01-16 08:00:00,
2013-01-16 03:01:00,33.3,13.2,30.30,NNW,329,7.6,7.6,43,0.00,,OVC,0.00,VWS V14.00,2013-01-16 08:01:00,
2013-01-16 03:02:00,33.3,13.2,30.30,NNW,332,2.7,7.6,43,0.00,,OVC,0.00,VWS V14.00,2013-01-16 08:02:00,
2013-01-16 03:03:00,33.3,13.2,30.30,NW,311,5.8,6.3,43,0.00,,OVC,0.00,VWS V14.00,2013-01-16 08:03:00,
2013-01-16 03:04:00,33.3,13.2,30.30,NNW,345,2.7,5.8,43,0.00,,OVC,0.00,VWS V14.00,2013-01-16 08:04:00,
2013-01-16 03:05:00,33.3,13.2,30.29,NNW,331,6.3,6.3,43,0.00,,OVC,0.00,VWS V14.00,2013-01-16 08:05:00,
2013-01-16 03:06:00,33.1,13.0,30.30,NW,306,5.8,6.3,43,0.00,,OVC,0.00,VWS V14.00,2013-01-16 08:06:00,
2013-01-16 03:07:00,33.1,13.0,30.30,NW,318,5.4,5.8,43,0.00,,OVC,0.00,VWS V14.00,2013-01-16 08:07:00,
2013-01-16 03:08:00,33.1,13.0,30.30,NW,321,5.4,6.3,43,0.00,,OVC,0.00,VWS V14.00,2013-01-16 08:08:00,
2013-01-16 03:09:00,33.1,13.0,30.30,NW,320,5.4,5.8,43,0.00,,OVC,0.00,VWS V14.00,2013-01-16 08:09:00,
2013-01-16 03:10:00,33.1,13.0,30.29,NW,320,4.9,8.7,43,0.00,,OVC,0.00,VWS V14.00,2013-01-16 08:10:00,
2013-01-16 03:11:00,33.1,13.0,30.30,WNW,293,6.3,6.3,43,0.00,,OVC,0.00,VWS V14.00,2013-01-16 08:11:00,
2013-01-16 03:12:00,33.1,13.0,30.30,NNW,343,4.0,6.3,43,0.00,,OVC,0.00,VWS V14.00,2013-01-16 08:12:00,
2013-01-16 03:13:00,33.1,13.0,30.30,NW,316,7.6,7.6,43,0.00,,OVC,0.00,VWS V14.00,2013-01-16 08:13:00,
2013-01-16 03:14:00,33.1,13.0,30.30,WNW,301,7.2,7.6,43,0.00,,OVC,0.00,VWS V14.00,2013-01-16 08:14:00,
2013-01-16 03:15:00,33.1,13.0,30.29,NW,325,5.4,7.2,43,0.00,,OVC,0.00,VWS V14.00,2013-01-16 08:15:00,
2013-01-16 03:16:00,33.1,13.0,30.30,NW,321,4.9,7.6,43,0.00,,OVC,0.00,VWS V14.00,2013-01-16 08:16:00,
2013-01-16 03:17:00,33.1,13.0,30.30,NW,324,4.0,5.4,43,0.00,,OVC,0.00,VWS V14.00,2013-01-16 08:17:00,
2013-01-16 03:18:00,33.1,13.0,30.30,NW,311,5.4,5.4,43,0.00,,OVC,0.00,VWS V14.00,2013-01-16 08:18:00,
2013-01-16 03:19:00,33.1,13.0,30.30,NNW,329,3.1,5.8,43,0.00,,OVC,0.00,VWS V14.00,2013-01-16 08:19:00,
2013-01-16 03:20:00,32.9,12.9,30.29,NW,312,5.4,6.3,43,0.00,,OVC,0.00,VWS V14.00,2013-01-16 08:20:00,
2013-01-16 03:21:00,32.9,12.9,30.30,NW,320,4.9,5.4,43,0.00,,OVC,0.00,VWS V14.00,2013-01-16 08:21:00,
2013-01-16 03:22:00,32.9,12.9,30.30,NW,321,4.0,4.9,43,0.00,,OVC,0.00,VWS V14.00,2013-01-16 08:22:00,
2013-01-16 03:23:00,32.9,12.9,30.30,NW,321,4.0,7.6,43,0.00,,OVC,0.00,VWS V14.00,2013-01-16 08:23:00,
2013-01-16 03:24:00,32.7,12.7,30.30,NW,308,4.9,5.4,43,0.00,,OVC,0.00,VWS V14.00,2013-01-16 08:24:00,
2013-01-16 03:25:00,32.7,12.7,30.29,WNW,303,4.9,6.3,43,0.00,,OVC,0.00,VWS V14.00,2013-01-16 08:25:00,
2013-01-16 03:26:00,32.7,12.7,30.30,NW,317,5.4,8.1,43,0.00,,OVC,0.00,VWS V14.00,2013-01-16 08:26:00,
2013-01-16 03:27:00,32.7,12.7,30.30,WNW,302,6.7,6.7,43,0.00,,OVC,0.00,VWS V14.00,2013-01-16 08:27:00,
2013-01-16 03:28:00,32.7,12.7,30.30,NW,315,7.6,7.6,43,0.00,,OVC,0.00,VWS V14.00,2013-01-16 08:28:00,
2013-01-16 03:29:00,32.7,12.7,30.30,NW,314,7.6,7.6,43,0.00,,OVC,0.00,VWS V14.00,2013-01-16 08:29:00,
2013-01-16 03:30:00,32.5,12.5,30.29,WNW,294,4.9,7.6,43,0.00,,OVC,0.00,VWS V14.00,2013-01-16 08:30:00,
2013-01-16 03:31:00,32.5,12.5,30.30,NW,313,5.4,5.8,43,0.00,,OVC,0.00,VWS V14.00,2013-01-16 08:31:00,
2013-01-16 03:32:00,32.5,12.5,30.30,NW,308,5.4,5.8,43,0.00,,OVC,0.00,VWS V14.00,2013-01-16 08:32:00,
2013-01-16 03:33:00,32.5,12.5,30.30,NW,309,5.4,5.8,43,0.00,,OVC,0.00,VWS V14.00,2013-01-16 08:33:00,
2013-01-16 03:34:00,32.5,12.5,30.30,NW,307,6.3,6.3,43,0.00,,OVC,0.00,VWS V14.00,2013-01-16 08:34:00,
2013-01-16 03:35:00,32.4,12.4,30.29,West,279,6.3,6.3,43,0.00,,OVC,0.00,VWS V14.00,2013-01-16 08:35:00,
2013-01-16 03:36:00,32.4,12.4,30.30,WNW,295,5.8,6.3,43,0.00,,OVC,0.00,VWS V14.00,2013-01-16 08:36:00,
2013-01-16 03:37:00,32.4,12.4,30.30,NNW,328,5.4,6.3,43,0.00,,OVC,0.00,VWS V14.00,2013-01-16 08:37:00,
2013-01-16 03:38:00,32.2,12.2,30.30,WNW,302,8.1,8.7,43,0.00,,OVC,0.00,VWS V14.00,2013-01-16 08:38:00,
2013-01-16 03:39:00,32.2,12.2,30.30,WNW,303,6.3,8.1,43,0.00,,OVC,0.00,VWS V14.00,2013-01-16 08:39:00,
2013-01-16 03:40:00,32.2,12.2,30.29,NNW,330,5.8,6.3,43,0.00,,OVC,0.00,VWS V14.00,2013-01-16 08:40:00,
2013-01-16 03:41:00,32.2,12.2,30.30,NW,314,5.8,5.8,43,0.00,,OVC,0.00,VWS V14.00,2013-01-16 08:41:00,
2013-01-16 03:42:00,32.2,12.2,30.30,WNW,302,4.9,6.3,43,0.00,,OVC,0.00,VWS V14.00,2013-01-16 08:42:00,
2013-01-16 03:43:00,32.0,12.1,30.30,WNW,297,8.1,8.1,43,0.00,,OVC,0.00,VWS V14.00,2013-01-16 08:43:00,
2013-01-16 03:44:00,32.0,12.1,30.30,NW,306,8.3,8.3,43,0.00,,OVC,0.00,VWS V14.00,2013-01-16 08:44:00,
2013-01-16 03:45:00,32.0,12.1,30.29,NW,308,8.3,8.3,43,0.00,,OVC,0.00,VWS V14.00,2013-01-16 08:45:00,
2013-01-16 03:46:00,32.0,12.1,30.30,WNW,289,6.3,8.3,43,0.00,,OVC,0.00,VWS V14.00,2013-01-16 08:46:00,
2013-01-16 03:47:00,32.0,12.1,30.30,NW,326,5.8,6.7,43,0.00,,OVC,0.00,VWS V14.00,2013-01-16 08:47:00,
2013-01-16 03:48:00,31.8,11.9,30.30,NW,313,6.3,8.1,43,0.00,,OVC,0.00,VWS V14.00,2013-01-16 08:48:00,
2013-01-16 03:49:00,31.8,11.9,30.30,NW,310,7.2,8.3,43,0.00,,OVC,0.00,VWS V14.00,2013-01-16 08:49:00,
2013-01-16 03:50:00,31.8,11.9,30.29,NW,305,3.6,7.2,43,0.00,,OVC,0.00,VWS V14.00,2013-01-16 08:50:00,
2013-01-16 03:51:00,31.8,11.9,30.30,NW,320,6.3,6.3,43,0.00,,OVC,0.00,VWS V14.00,2013-01-16 08:51:00,
2013-01-16 03:52:00,31.8,11.9,30.30,WNW,295,5.4,6.3,43,0.00,,OVC,0.00,VWS V14.00,2013-01-16 08:52:00,
2013-01-16 03:53:00,31.6,11.7,30.30,NNW,327,8.1,8.1,43,0.00,,OVC,0.00,VWS V14.00,2013-01-16 08:53:00,
2013-01-16 03:54:00,31.6,11.7,30.30,WNW,290,6.3,8.1,43,0.00,,OVC,0.00,VWS V14.00,2013-01-16 08:54:00,
2013-01-16 03:55:00,31.6,11.7,30.29,NW,306,5.8,6.3,43,0.00,,OVC,0.00,VWS V14.00,2013-01-16 08:55:00,
2013-01-16 03:56:00,31.6,11.7,30.30,NW,311,8.3,8.3,43,0.00,,OVC,0.00,VWS V14.00,2013-01-16 08:56:00,
2013-01-16 03:57:00,31.6,11.7,30.30,WNW,298,5.4,8.3,43,0.00,,OVC,0.00,VWS V14.00,2013-01-16 08:57:00,
2013-01-16 03:58:00,31.6,11.7,30.30,NW,316,8.1,8.1,43,0.00,,OVC,0.00,VWS V14.00,2013-01-16 08:58:00,
2013-01-16 03:59:00,31.6,11.7,30.30,WNW,303,4.0,8.1,43,0.00,,OVC,0.00,VWS V14.00,2013-01-16 08:59:00,
2013-01-16 04:00:00,31.6,11.7,30.29,NW,310,4.0,6.3,43,0.00,,OVC,0.00,VWS V14.00,2013-01-16 09:00:00,
2013-01-16 04:01:00,31.5,11.6,30.30,WNW,302,4.9,5.8,43,0.00,,OVC,0.00,VWS V14.00,2013-01-16 09:01:00,
2013-01-16 04:02:00,31.5,11.6,30.30,NW,307,4.9,6.3,43,0.00,,OVC,0.00,VWS V14.00,2013-01-16 09:02:00,
2013-01-16 04:03:00,31.5,11.6,30.30,NW,311,6.3,6.3,43,0.00,,OVC,0.00,VWS V14.00,2013-01-16 09:03:00,
2013-01-16 04:04:00,31.5,11.6,30.30,WNW,291,6.3,6.3,43,0.00,,OVC,0.00,VWS V14.00,2013-01-16 09:04:00,
2013-01-16 04:05:00,31.5,11.6,30.29,NW,311,7.6,7.6,43,0.00,,OVC,0.00,VWS V14.00,2013-01-16 09:05:00,
2013-01-16 04:06:00,31.5,11.6,30.30,NW,312,7.6,7.6,43,0.00,,OVC,0.00,VWS V14.00,2013-01-16 09:06:00,
2013-01-16 04:07:00,31.5,11.6,30.30,NNW,327,5.8,7.6,43,0.00,,OVC,0.00,VWS V14.00,2013-01-16 09:07:00,
2013-01-16 04:08:00,31.5,11.6,30.30,WNW,303,5.8,6.3,43,0.00,,OVC,0.00,VWS V14.00,2013-01-16 09:08:00,
2013-01-16 04:09:00,31.3,11.4,30.29,WNW,299,5.4,5.8,43,0.00,,OVC,0.00,VWS V14.00,2013-01-16 09:09:00,
2013-01-16 04:10:00,31.3,11.4,30.30,WNW,289,5.8,5.8,43,0.00,,OVC,0.00,VWS V14.00,2013-01-16 09:10:00,
2013-01-16 04:11:00,31.3,11.4,30.30,West,281,5.8,8.1,43,0.00,,OVC,0.00,VWS V14.00,2013-01-16 09:11:00,
2013-01-16 04:12:00,31.3,11.4,30.30,WNW,282,4.9,5.8,43,0.00,,OVC,0.00,VWS V14.00,2013-01-16 09:12:00,
2013-01-16 04:13:00,31.1,11.2,30.30,NW,304,4.9,5.8,43,0.00,,OVC,0.00,VWS V14.00,2013-01-16 09:13:00,
2013-01-16 04:14:00,31.1,11.2,30.29,WNW,290,5.4,6.7,43,0.00,,OVC,0.00,VWS V14.00,2013-01-16 09:14:00,
2013-01-16 04:15:00,31.1,11.2,30.30,WNW,290,5.4,6.7,43,0.00,,OVC,0.00,VWS V14.00,2013-01-16 09:15:00,
2013-01-16 04:16:00,31.1,11.2,30.30,WNW,295,6.3,6.3,43,0.00,,OVC,0.00,VWS V14.00,2013-01-16 09:16:00,
2013-01-16 04:17:00,31.1,11.2,30.30,WNW,302,5.4,6.3,43,0.00,,OVC,0.00,VWS V14.00,2013-01-16 09:17:00,
2013-01-16 04:18:00,31.1,11.2,30.30,WNW,292,4.9,6.3,43,0.00,,OVC,0.00,VWS V14.00,2013-01-16 09:18:00,
2013-01-16 04:19:00,31.1,11.2,30.29,NW,306,5.4,5.4,43,0.00,,OVC,0.00,VWS V14.00,2013-01-16 09:19:00,
2013-01-16 04:20:00,31.1,11.2,30.30,NW,306,5.4,5.4,43,0.00,,OVC,0.00,VWS V14.00,2013-01-16 09:20:00,
2013-01-16 04:21:00,31.1,11.2,30.30,WNW,287,5.8,5.8,43,0.00,,OVC,0.00,VWS V14.00,2013-01-16 09:21:00,
2013-01-16 04:22:00,30.9,11.1,30.30,NW,305,4.0,5.8,43,0.00,,OVC,0.00,VWS V14.00,2013-01-16 09:22:00,
2013-01-16 04:23:00,30.9,11.6,30.30,WNW,294,3.6,5.4,44,0.00,,OVC,0.00,VWS V14.00,2013-01-16 09:23:00,
2013-01-16 04:24:00,30.9,11.6,30.29,WNW,295,3.6,5.4,44,0.00,,OVC,0.00,VWS V14.00,2013-01-16 09:24:00,
2013-01-16 04:25:00,30.9,11.6,30.30,WNW,289,4.0,5.4,44,0.00,,OVC,0.00,VWS V14.00,2013-01-16 09:25:00,
2013-01-16 04:26:00,30.7,11.4,30.30,WNW,291,3.6,5.4,44,0.00,,OVC,0.00,VWS V14.00,2013-01-16 09:26:00,
2013-01-16 04:27:00,30.7,11.4,30.30,WNW,287,4.0,5.4,44,0.00,,OVC,0.00,VWS V14.00,2013-01-16 09:27:00,
2013-01-16 04:28:00,30.7,11.4,30.30,NW,308,4.0,5.4,44,0.00,,OVC,0.00,VWS V14.00,2013-01-16 09:28:00,
2013-01-16 04:29:00,30.6,11.2,30.29,WNW,288,3.6,5.8,44,0.00,,OVC,0.00,VWS V14.00,2013-01-16 09:29:00,
2013-01-16 04:30:00,30.6,11.3,30.30,WNW,288,3.6,5.8,44,0.00,,OVC,0.00,VWS V14.00,2013-01-16 09:30:00,
2013-01-16 04:31:00,30.6,11.3,30.30,WNW,301,4.5,5.4,44,0.00,,OVC,0.00,VWS V14.00,2013-01-16 09:31:00,
2013-01-16 04:32:00,30.6,11.3,30.30,WNW,298,3.6,4.5,44,0.00,,OVC,0.00,VWS V14.00,2013-01-16 09:32:00,
2013-01-16 04:33:00,30.4,11.1,30.30,WNW,292,4.0,5.4,44,0.00,,OVC,0.00,VWS V14.00,2013-01-16 09:33:00,
2013-01-16 04:34:00,30.4,11.1,30.29,West,277,4.0,5.4,44,0.00,,OVC,0.00,VWS V14.00,2013-01-16 09:34:00,
2013-01-16 04:35:00,30.4,11.1,30.30,WNW,291,4.0,5.4,44,0.00,,OVC,0.00,VWS V14.00,2013-01-16 09:35:00,
2013-01-16 04:36:00,30.4,11.1,30.30,WNW,293,4.0,4.5,44,0.00,,OVC,0.00,VWS V14.00,2013-01-16 09:36:00,
2013-01-16 04:37:00,30.2,10.9,30.30,WNW,296,3.6,4.0,44,0.00,,OVC,0.00,VWS V14.00,2013-01-16 09:37:00,
2013-01-16 04:38:00,30.2,10.9,30.30,WNW,300,4.0,4.0,44,0.00,,OVC,0.00,VWS V14.00,2013-01-16 09:38:00,
2013-01-16 04:39:00,30.2,10.9,30.29,WNW,294,5.4,5.4,44,0.00,,OVC,0.00,VWS V14.00,2013-01-16 09:39:00,
2013-01-16 04:40:00,30.2,10.9,30.30,WNW,294,5.4,5.4,44,0.00,,OVC,0.00,VWS V14.00,2013-01-16 09:40:00,
2013-01-16 04:41:00,30.2,10.9,30.30,WNW,283,4.0,5.4,44,0.00,,OVC,0.00,VWS V14.00,2013-01-16 09:41:00,
2013-01-16 04:42:00,30.2,10.9,30.30,WNW,292,3.6,4.0,44,0.00,,OVC,0.00,VWS V14.00,2013-01-16 09:42:00,
2013-01-16 04:43:00,30.0,10.8,30.30,WNW,288,4.0,4.0,44,0.00,,OVC,0.00,VWS V14.00,2013-01-16 09:43:00,
2013-01-16 04:44:00,30.0,10.8,30.29,WNW,284,3.1,3.6,44,0.00,,OVC,0.00,VWS V14.00,2013-01-16 09:44:00,
2013-01-16 04:45:00,30.0,10.8,30.30,WNW,284,3.6,3.6,44,0.00,,OVC,0.00,VWS V14.00,2013-01-16 09:45:00,
2013-01-16 04:46:00,30.0,10.8,30.30,WNW,287,3.6,4.0,44,0.00,,OVC,0.00,VWS V14.00,2013-01-16 09:46:00,
2013-01-16 04:47:00,30.0,10.8,30.30,West,276,4.0,5.4,44,0.00,,OVC,0.00,VWS V14.00,2013-01-16 09:47:00,
2013-01-16 04:48:00,29.8,10.6,30.30,WNW,283,3.1,4.0,44,0.00,,OVC,0.00,VWS V14.00,2013-01-16 09:48:00,
2013-01-16 04:49:00,29.8,10.6,30.29,WNW,288,4.0,5.4,44,0.00,,OVC,0.00,VWS V14.00,2013-01-16 09:49:00,
2013-01-16 04:50:00,29.8,10.6,30.30,West,273,3.6,5.4,44,0.00,,OVC,0.00,VWS V14.00,2013-01-16 09:50:00,
2013-01-16 04:51:00,29.8,10.6,30.30,WNW,298,5.4,5.4,44,0.00,,OVC,0.00,VWS V14.00,2013-01-16 09:51:00,
2013-01-16 04:52:00,29.7,10.4,30.30,West,280,3.6,5.4,44,0.00,,OVC,0.00,VWS V14.00,2013-01-16 09:52:00,
2013-01-16 04:53:00,29.7,10.4,30.30,West,279,3.6,4.0,44,0.00,,OVC,0.00,VWS V14.00,2013-01-16 09:53:00,
2013-01-16 04:54:00,29.7,10.4,30.29,West,266,5.4,5.8,44,0.00,,OVC,0.00,VWS V14.00,2013-01-16 09:54:00,
2013-01-16 04:55:00,29.5,10.8,30.30,West,266,5.4,5.8,45,0.00,,OVC,0.00,VWS V14.00,2013-01-16 09:55:00,
2013-01-16 04:56:00,29.5,10.8,30.30,WNW,293,3.1,5.4,45,0.00,,OVC,0.00,VWS V14.00,2013-01-16 09:56:00,
2013-01-16 04:57:00,29.5,10.8,30.30,WNW,295,3.1,4.9,45,0.00,,OVC,0.00,VWS V14.00,2013-01-16 09:57:00,
2013-01-16 04:58:00,29.5,10.8,30.30,WNW,290,4.9,5.4,45,0.00,,OVC,0.00,VWS V14.00,2013-01-16 09:58:00,
2013-01-16 04:59:00,29.5,10.8,30.29,WNW,292,4.0,4.9,45,0.00,,OVC,0.00,VWS V14.00,2013-01-16 09:59:00,
2013-01-16 05:00:00,29.5,10.8,30.30,WNW,291,3.6,4.9,45,0.00,,OVC,0.00,VWS V14.00,2013-01-16 10:00:00,
2013-01-16 05:01:00,29.5,10.8,30.30,West,279,3.6,4.5,45,0.00,,OVC,0.00,VWS V14.00,2013-01-16 10:01:00,
2013-01-16 05:02:00,29.5,10.8,30.30,West,280,4.0,4.5,45,0.00,,OVC,0.00,VWS V14.00,2013-01-16 10:02:00,
2013-01-16 05:03:00,29.5,10.8,30.30,WNW,293,5.8,5.8,45,0.00,,OVC,0.00,VWS V14.00,2013-01-16 10:03:00,
2013-01-16 05:04:00,29.5,10.8,30.29,WNW,288,4.9,4.9,45,0.00,,OVC,0.00,VWS V14.00,2013-01-16 10:04:00,
2013-01-16 05:05:00,29.5,10.8,30.30,WNW,288,4.9,4.9,45,0.00,,OVC,0.00,VWS V14.00,2013-01-16 10:05:00,
2013-01-16 05:06:00,29.5,10.8,30.30,West,281,4.0,5.4,45,0.00,,OVC,0.00,VWS V14.00,2013-01-16 10:06:00,
2013-01-16 05:07:00,29.5,10.8,30.30,WNW,293,3.6,5.8,45,0.00,,OVC,0.00,VWS V14.00,2013-01-16 10:07:00,
2013-01-16 05:08:00,29.5,10.8,30.30,WNW,290,4.9,4.9,45,0.00,,OVC,0.00,VWS V14.00,2013-01-16 10:08:00,
2013-01-16 05:09:00,29.5,10.8,30.29,WNW,290,5.8,5.8,45,0.00,,OVC,0.00,VWS V14.00,2013-01-16 10:09:00,
2013-01-16 05:10:00,29.5,10.8,30.30,NW,306,5.8,5.8,45,0.00,,OVC,0.00,VWS V14.00,2013-01-16 10:10:00,
2013-01-16 05:11:00,29.5,10.8,30.30,WNW,289,4.9,5.8,45,0.00,,OVC,0.00,VWS V14.00,2013-01-16 10:11:00,
2013-01-16 05:12:00,29.5,10.8,30.30,WNW,290,2.7,4.9,45,0.00,,OVC,0.00,VWS V14.00,2013-01-16 10:12:00,
2013-01-16 05:13:00,29.5,10.8,30.30,WNW,303,5.8,5.8,45,0.00,,OVC,0.00,VWS V14.00,2013-01-16 10:13:00,
2013-01-16 05:14:00,29.5,11.3,30.29,WNW,299,6.3,6.3,46,0.00,,OVC,0.00,VWS V14.00,2013-01-16 10:14:00,
2013-01-16 05:15:00,29.5,11.3,30.30,WNW,299,6.3,6.3,46,0.00,,OVC,0.00,VWS V14.00,2013-01-16 10:15:00,
2013-01-16 05:16:00,29.5,11.3,30.30,WNW,302,4.5,6.3,46,0.00,,OVC,0.00,VWS V14.00,2013-01-16 10:16:00,
2013-01-16 05:17:00,29.5,11.3,30.30,WNW,289,3.1,4.9,46,0.00,,OVC,0.00,VWS V14.00,2013-01-16 10:17:00,
2013-01-16 05:18:00,29.5,11.3,30.32,NW,307,5.4,6.3,46,0.00,,OVC,0.00,VWS V14.00,2013-01-16 10:18:00,
2013-01-16 05:19:00,29.5,11.3,30.32,WNW,288,5.8,6.3,46,0.00,,OVC,0.00,VWS V14.00,2013-01-16 10:19:00,
2013-01-16 05:20:00,29.5,11.3,30.32,WNW,302,4.9,6.3,46,0.00,,OVC,0.00,VWS V14.00,2013-01-16 10:20:00,
2013-01-16 05:21:00,29.5,11.3,30.32,West,276,5.8,5.8,46,0.00,,OVC,0.00,VWS V14.00,2013-01-16 10:21:00,
2013-01-16 05:22:00,29.5,11.3,30.32,WNW,301,5.4,5.8,46,0.00,,OVC,0.00,VWS V14.00,2013-01-16 10:22:00,
2013-01-16 05:23:00,29.5,11.8,30.32,NW,315,4.0,5.4,47,0.00,,OVC,0.00,VWS V14.00,2013-01-16 10:23:00,
2013-01-16 05:24:00,29.5,11.8,30.32,NW,312,6.3,6.3,47,0.00,,OVC,0.00,VWS V14.00,2013-01-16 10:24:00,
2013-01-16 05:25:00,29.5,11.8,30.32,WNW,303,5.8,6.3,47,0.00,,OVC,0.00,VWS V14.00,2013-01-16 10:25:00,
2013-01-16 05:26:00,29.5,11.8,30.32,WNW,286,5.4,5.8,47,0.00,,OVC,0.00,VWS V14.00,2013-01-16 10:26:00,
2013-01-16 05:27:00,29.5,11.8,30.32,WNW,303,4.0,5.4,47,0.00,,OVC,0.00,VWS V14.00,2013-01-16 10:27:00,
2013-01-16 05:28:00,29.5,11.8,30.32,NW,317,5.8,5.8,47,0.00,,OVC,0.00,VWS V14.00,2013-01-16 10:28:00,
2013-01-16 05:29:00,29.5,11.8,30.32,WNW,298,6.3,8.1,47,0.00,,OVC,0.00,VWS V14.00,2013-01-16 10:29:00,
2013-01-16 05:30:00,29.5,11.8,30.32,WNW,298,6.3,8.1,47,0.00,,OVC,0.00,VWS V14.00,2013-01-16 10:30:00,
2013-01-16 05:31:00,29.5,11.8,30.32,WNW,293,5.4,6.3,47,0.00,,OVC,0.00,VWS V14.00,2013-01-16 10:31:00,
2013-01-16 05:32:00,29.5,11.8,30.32,NW,305,3.6,5.4,47,0.00,,OVC,0.00,VWS V14.00,2013-01-16 10:32:00,
2013-01-16 05:33:00,29.5,11.8,30.32,West,278,4.0,5.8,47,0.00,,OVC,0.00,VWS V14.00,2013-01-16 10:33:00,
2013-01-16 05:34:00,29.5,11.8,30.32,WNW,301,5.8,6.3,47,0.00,,OVC,0.00,VWS V14.00,2013-01-16 10:34:00,
2013-01-16 05:35:00,29.5,11.8,30.32,West,281,3.6,6.3,47,0.00,,OVC,0.00,VWS V14.00,2013-01-16 10:35:00,
2013-01-16 05:36:00,29.5,11.8,30.32,WNW,292,3.1,3.6,47,0.00,,OVC,0.00,VWS V14.00,2013-01-16 10:36:00,
2013-01-16 05:37:00,29.5,11.8,30.32,NW,309,5.4,5.4,47,0.00,,OVC,0.00,VWS V14.00,2013-01-16 10:37:00,
2013-01-16 05:38:00,29.5,11.8,30.32,WNW,288,4.0,5.4,47,0.00,,OVC,0.00,VWS V14.00,2013-01-16 10:38:00,
2013-01-16 05:39:00,29.5,11.8,30.32,WNW,301,3.6,5.4,47,0.00,,OVC,0.00,VWS V14.00,2013-01-16 10:39:00,
2013-01-16 05:40:00,29.5,11.8,30.32,WNW,301,3.6,5.4,47,0.00,,OVC,0.00,VWS V14.00,2013-01-16 10:40:00,
2013-01-16 05:41:00,29.5,11.8,30.32,WNW,298,4.0,5.8,47,0.00,,OVC,0.00,VWS V14.00,2013-01-16 10:41:00,
2013-01-16 05:42:00,29.5,11.8,30.32,WNW,300,5.8,5.8,47,0.00,,OVC,0.00,VWS V14.00,2013-01-16 10:42:00,
2013-01-16 05:43:00,29.5,11.8,30.32,WNW,300,3.6,5.8,47,0.00,,OVC,0.00,VWS V14.00,2013-01-16 10:43:00,
2013-01-16 05:44:00,29.5,11.8,30.32,WNW,292,5.4,5.8,47,0.00,,OVC,0.00,VWS V14.00,2013-01-16 10:44:00,
2013-01-16 05:45:00,29.5,11.8,30.32,NNW,328,5.4,5.8,47,0.00,,OVC,0.00,VWS V14.00,2013-01-16 10:45:00,
2013-01-16 05:46:00,29.5,11.8,30.32,WNW,303,3.6,5.4,47,0.00,,OVC,0.00,VWS V14.00,2013-01-16 10:46:00,
2013-01-16 05:47:00,29.5,11.8,30.32,WNW,294,4.9,5.8,47,0.00,,OVC,0.00,VWS V14.00,2013-01-16 10:47:00,
2013-01-16 05:48:00,29.5,11.8,30.32,NNW,327,4.9,4.9,47,0.00,,OVC,0.00,VWS V14.00,2013-01-16 10:48:00,
2013-01-16 05:49:00,29.5,11.8,30.32,NW,321,3.6,5.4,47,0.00,,OVC,0.00,VWS V14.00,2013-01-16 10:49:00,
2013-01-16 05:50:00,29.3,11.6,30.32,WNW,298,5.4,5.4,47,0.00,,OVC,0.00,VWS V14.00,2013-01-16 10:50:00,
2013-01-16 05:51:00,29.3,11.6,30.32,NW,316,3.1,5.4,47,0.00,,OVC,0.00,VWS V14.00,2013-01-16 10:51:00,
2013-01-16 05:52:00,29.3,11.6,30.32,WNW,294,4.0,4.0,47,0.00,,OVC,0.00,VWS V14.00,2013-01-16 10:52:00,
2013-01-16 05:53:00,29.3,11.6,30.32,NW,307,2.7,4.0,47,0.00,,OVC,0.00,VWS V14.00,2013-01-16 10:53:00,
2013-01-16 05:54:00,29.3,11.6,30.32,NW,323,3.6,3.6,47,0.00,,OVC,0.00,VWS V14.00,2013-01-16 10:54:00,
2013-01-16 05:55:00,29.3,11.6,30.32,NNW,332,5.4,5.4,47,0.00,,OVC,0.00,VWS V14.00,2013-01-16 10:55:00,
2013-01-16 05:56:00,29.1,11.9,30.32,WNW,300,3.1,5.4,48,0.00,,OVC,0.00,VWS V14.00,2013-01-16 10:56:00,
2013-01-16 05:57:00,29.1,11.9,30.32,NW,317,3.1,5.4,48,0.00,,OVC,0.00,VWS V14.00,2013-01-16 10:57:00,
2013-01-16 05:58:00,29.1,11.9,30.32,NW,325,3.6,5.4,48,0.00,,OVC,0.00,VWS V14.00,2013-01-16 10:58:00,
2013-01-16 05:59:00,28.9,11.7,30.32,NW,308,4.0,4.0,48,0.00,,OVC,0.00,VWS V14.00,2013-01-16 10:59:00,
2013-01-16 06:00:00,28.9,11.7,30.32,NW,313,4.0,4.0,48,0.00,,OVC,0.00,VWS V14.00,2013-01-16 11:00:00,
2013-01-16 06:01:00,28.9,11.7,30.32,NW,311,4.9,4.9,48,0.00,,OVC,0.00,VWS V14.00,2013-01-16 11:01:00,
2013-01-16 06:02:00,28.9,11.7,30.32,NNW,337,6.3,6.3,48,0.00,,OVC,0.00,VWS V14.00,2013-01-16 11:02:00,
2013-01-16 06:03:00,28.9,11.7,30.32,WNW,294,4.9,6.3,48,0.00,,OVC,0.00,VWS V14.00,2013-01-16 11:03:00,
2013-01-16 06:04:00,28.9,11.7,30.32,NW,310,4.0,5.4,48,0.00,,OVC,0.00,VWS V14.00,2013-01-16 11:04:00,
2013-01-16 06:05:00,28.9,11.7,30.32,NW,310,4.0,5.4,48,0.00,,OVC,0.00,VWS V14.00,2013-01-16 11:05:00,
2013-01-16 06:06:00,28.9,11.7,30.32,NW,317,3.1,4.0,48,0.00,,OVC,0.00,VWS V14.00,2013-01-16 11:06:00,
2013-01-16 06:07:00,28.9,11.7,30.32,NW,317,5.4,5.4,48,0.00,,OVC,0.00,VWS V14.00,2013-01-16 11:07:00,
2013-01-16 06:08:00,28.9,11.7,30.32,NW,305,3.6,5.8,48,0.00,,OVC,0.00,VWS V14.00,2013-01-16 11:08:00,
2013-01-16 06:09:00,28.8,11.6,30.32,WNW,295,4.0,4.0,48,0.00,,OVC,0.00,VWS V14.00,2013-01-16 11:09:00,
2013-01-16 06:10:00,28.8,11.6,30.32,NW,308,5.4,5.4,48,0.00,,OVC,0.00,VWS V14.00,2013-01-16 11:10:00,
2013-01-16 06:11:00,28.8,11.6,30.32,WNW,302,3.1,5.4,48,0.00,,OVC,0.00,VWS V14.00,2013-01-16 11:11:00,
2013-01-16 06:12:00,28.8,11.6,30.32,NW,322,4.0,5.8,48,0.00,,OVC,0.00,VWS V14.00,2013-01-16 11:12:00,
2013-01-16 06:13:00,28.8,11.6,30.32,WNW,302,5.8,5.8,48,0.00,,OVC,0.00,VWS V14.00,2013-01-16 11:13:00,
2013-01-16 06:14:00,28.8,11.6,30.32,NW,305,4.9,5.8,48,0.00,,OVC,0.00,VWS V14.00,2013-01-16 11:14:00,
2013-01-16 06:15:00,28.8,11.6,30.32,NW,305,6.3,6.3,48,0.00,,OVC,0.00,VWS V14.00,2013-01-16 11:15:00,
2013-01-16 06:16:00,28.8,11.6,30.32,NW,320,4.9,6.3,48,0.00,,OVC,0.00,VWS V14.00,2013-01-16 11:16:00,
2013-01-16 06:17:00,28.8,11.6,30.32,WNW,300,4.0,5.8,48,0.00,,OVC,0.00,VWS V14.00,2013-01-16 11:17:00,
2013-01-16 06:18:00,28.8,11.6,30.32,NW,316,5.8,7.6,48,0.00,,OVC,0.00,VWS V14.00,2013-01-16 11:18:00,
2013-01-16 06:19:00,28.8,11.6,30.32,WNW,300,5.4,5.8,48,0.00,,OVC,0.00,VWS V14.00,2013-01-16 11:19:00,
2013-01-16 06:20:00,28.8,11.6,30.32,NW,306,5.8,5.8,48,0.00,,OVC,0.00,VWS V14.00,2013-01-16 11:20:00,
2013-01-16 06:21:00,28.8,11.6,30.32,NW,304,5.8,5.8,48,0.00,,OVC,0.00,VWS V14.00,2013-01-16 11:21:00,
2013-01-16 06:22:00,28.8,11.6,30.32,WNW,297,4.0,6.3,48,0.00,,OVC,0.00,VWS V14.00,2013-01-16 11:22:00,
2013-01-16 06:23:00,28.8,11.6,30.32,WNW,294,3.6,6.7,48,0.00,,OVC,0.00,VWS V14.00,2013-01-16 11:23:00,
2013-01-16 06:24:00,28.8,11.6,30.32,NW,322,5.4,6.3,48,0.00,,OVC,0.00,VWS V14.00,2013-01-16 11:24:00,
2013-01-16 06:25:00,28.8,11.6,30.32,NW,321,5.4,6.3,48,0.00,,OVC,0.00,VWS V14.00,2013-01-16 11:25:00,
2013-01-16 06:26:00,28.8,11.6,30.32,NW,310,5.4,6.3,48,0.00,,OVC,0.00,VWS V14.00,2013-01-16 11:26:00,
2013-01-16 06:27:00,28.8,11.6,30.32,WNW,298,4.0,6.3,48,0.00,,OVC,0.00,VWS V14.00,2013-01-16 11:27:00,
2013-01-16 06:28:00,28.8,11.6,30.32,WNW,297,5.4,5.4,48,0.00,,OVC,0.00,VWS V14.00,2013-01-16 11:28:00,
2013-01-16 06:29:00,28.8,11.6,30.32,NW,304,6.3,6.3,48,0.00,,OVC,0.00,VWS V14.00,2013-01-16 11:29:00,
2013-01-16 06:30:00,28.8,11.6,30.32,NW,318,5.4,6.3,48,0.00,,OVC,0.00,VWS V14.00,2013-01-16 11:30:00,
2013-01-16 06:31:00,28.8,11.6,30.32,WNW,300,4.9,5.8,48,0.00,,OVC,0.00,VWS V14.00,2013-01-16 11:31:00,
2013-01-16 06:32:00,28.8,11.6,30.32,WNW,289,5.4,5.4,48,0.00,,OVC,0.00,VWS V14.00,2013-01-16 11:32:00,
2013-01-16 06:33:00,28.8,11.6,30.32,NW,318,7.2,7.2,48,0.00,,OVC,0.00,VWS V14.00,2013-01-16 11:33:00,
2013-01-16 06:34:00,28.8,11.6,30.32,NW,310,5.4,5.4,48,0.00,,OVC,0.00,VWS V14.00,2013-01-16 11:34:00,
2013-01-16 06:35:00,28.8,11.6,30.32,WNW,295,3.6,5.4,48,0.00,,OVC,0.00,VWS V14.00,2013-01-16 11:35:00,
2013-01-16 06:36:00,28.8,11.6,30.32,NW,313,7.6,7.6,48,0.00,,OVC,0.00,VWS V14.00,2013-01-16 11:36:00,
2013-01-16 06:37:00,28.8,11.6,30.32,WNW,300,4.9,7.6,48,0.00,,OVC,0.00,VWS V14.00,2013-01-16 11:37:00,
2013-01-16 06:38:00,28.8,11.6,30.32,WNW,291,5.4,5.8,48,0.00,,OVC,0.00,VWS V14.00,2013-01-16 11:38:00,
2013-01-16 06:39:00,28.6,11.4,30.32,WNW,297,5.4,5.4,48,0.00,,OVC,0.00,VWS V14.00,2013-01-16 11:39:00,
2013-01-16 06:40:00,28.6,11.4,30.32,NW,316,5.4,5.4,48,0.00,,OVC,0.00,VWS V14.00,2013-01-16 11:40:00,
2013-01-16 06:41:00,28.6,11.4,30.32,NW,315,5.4,5.4,48,0.00,,OVC,0.00,VWS V14.00,2013-01-16 11:41:00,
2013-01-16 06:42:00,28.6,11.4,30.32,NW,304,5.8,6.3,48,0.00,,OVC,0.00,VWS V14.00,2013-01-16 11:42:00,
2013-01-16 06:43:00,28.6,11.4,30.32,WNW,294,6.7,7.6,48,0.00,,OVC,0.00,VWS V14.00,2013-01-16 11:43:00,
2013-01-16 06:44:00,28.6,11.4,30.32,NW,304,4.9,4.9,48,0.00,,OVC,0.00,VWS V14.00,2013-01-16 11:44:00,
2013-01-16 06:45:00,28.6,11.4,30.32,NW,325,5.8,5.8,48,0.00,,OVC,0.00,VWS V14.00,2013-01-16 11:45:00,
2013-01-16 06:46:00,28.6,11.4,30.32,NW,306,5.4,6.3,48,0.00,,OVC,0.00,VWS V14.00,2013-01-16 11:46:00,
2013-01-16 06:47:00,28.6,11.4,30.32,NW,316,5.4,5.8,48,0.00,,OVC,0.00,VWS V14.00,2013-01-16 11:47:00,
2013-01-16 06:48:00,28.6,11.4,30.32,NW,304,6.3,6.3,48,0.00,,OVC,0.00,VWS V14.00,2013-01-16 11:48:00,
2013-01-16 06:49:00,28.6,11.4,30.32,WNW,300,5.8,5.8,48,0.00,,OVC,0.00,VWS V14.00,2013-01-16 11:49:00,
2013-01-16 06:50:00,28.6,11.4,30.32,WNW,296,4.9,5.8,48,0.00,,OVC,0.00,VWS V14.00,2013-01-16 11:50:00,
2013-01-16 06:51:00,28.6,11.4,30.32,WNW,294,4.5,6.3,48,0.00,,OVC,0.00,VWS V14.00,2013-01-16 11:51:00,
2013-01-16 06:52:00,28.6,11.4,30.32,West,276,3.6,4.9,48,0.00,,OVC,0.00,VWS V14.00,2013-01-16 11:52:00,
2013-01-16 06:53:00,28.6,11.4,30.32,WNW,284,5.8,5.8,48,0.00,,OVC,0.00,VWS V14.00,2013-01-16 11:53:00,
2013-01-16 06:54:00,28.6,11.9,30.32,WNW,293,4.0,5.8,49,0.00,,OVC,0.00,VWS V14.00,2013-01-16 11:54:00,
2013-01-16 06:55:00,28.6,11.9,30.32,WNW,298,5.4,5.8,49,0.00,,OVC,0.00,VWS V14.00,2013-01-16 11:55:00,
2013-01-16 06:56:00,28.6,11.4,30.32,WNW,291,4.0,5.4,48,0.00,,OVC,0.00,VWS V14.00,2013-01-16 11:56:00,
2013-01-16 06:57:00,28.6,11.4,30.32,WNW,288,3.6,4.9,48,0.00,,OVC,0.00,VWS V14.00,2013-01-16 11:57:00,
2013-01-16 06:58:00,28.6,11.4,30.32,WNW,296,3.1,5.8,48,0.00,,OVC,0.00,VWS V14.00,2013-01-16 11:58:00,
2013-01-16 06:59:00,28.6,11.9,30.32,NW,310,4.0,4.9,49,0.00,,OVC,0.00,VWS V14.00,2013-01-16 11:59:00,
2013-01-16 07:00:00,28.6,11.9,30.32,WNW,303,5.4,5.4,49,0.00,,OVC,0.00,VWS V14.00,2013-01-16 12:00:00,
2013-01-16 07:01:00,28.6,11.9,30.32,NW,307,5.4,5.4,49,0.00,,OVC,0.00,VWS V14.00,2013-01-16 12:01:00,
2013-01-16 07:02:00,28.6,11.9,30.32,WNW,295,3.6,5.4,49,0.00,,OVC,0.00,VWS V14.00,2013-01-16 12:02:00,
2013-01-16 07:03:00,28.6,11.4,30.32,WNW,298,3.6,5.8,48,0.00,,OVC,0.00,VWS V14.00,2013-01-16 12:03:00,
2013-01-16 07:04:00,28.4,11.7,30.32,NW,313,5.4,5.4,49,0.00,,OVC,0.00,VWS V14.00,2013-01-16 12:04:00,
2013-01-16 07:05:00,28.4,11.7,30.32,WNW,299,3.6,5.8,49,0.00,,OVC,0.00,VWS V14.00,2013-01-16 12:05:00,
2013-01-16 07:06:00,28.4,11.7,30.32,WNW,287,4.9,4.9,49,0.00,,OVC,0.00,VWS V14.00,2013-01-16 12:06:00,
2013-01-16 07:07:00,28.4,11.7,30.32,NW,316,4.0,4.9,49,0.00,,OVC,0.00,VWS V14.00,2013-01-16 12:07:00,
2013-01-16 07:08:00,28.4,11.7,30.32,NW,308,4.0,4.0,49,0.00,,OVC,0.00,VWS V14.00,2013-01-16 12:08:00,
2013-01-16 07:09:00,28.4,11.7,30.32,WNW,295,4.0,4.0,49,0.00,,OVC,0.00,VWS V14.00,2013-01-16 12:09:00,
2013-01-16 07:10:00,28.4,11.7,30.32,NW,308,5.4,5.4,49,0.00,,OVC,0.00,VWS V14.00,2013-01-16 12:10:00,
2013-01-16 07:11:00,28.4,11.7,30.32,West,280,2.7,5.4,49,0.00,,OVC,0.00,VWS V14.00,2013-01-16 12:11:00,
2013-01-16 07:12:00,28.4,11.7,30.32,WNW,296,2.7,4.0,49,0.00,,OVC,0.00,VWS V14.00,2013-01-16 12:12:00,
2013-01-16 07:13:00,28.4,11.7,30.32,WNW,298,3.6,3.6,49,0.00,,OVC,0.00,VWS V14.00,2013-01-16 12:13:00,
2013-01-16 07:14:00,28.2,11.5,30.32,WNW,285,2.7,3.6,49,0.00,,OVC,0.00,VWS V14.00,2013-01-16 12:14:00,
2013-01-16 07:15:00,28.2,11.5,30.32,WNW,286,2.2,3.6,49,0.00,,OVC,0.00,VWS V14.00,2013-01-16 12:15:00,
2013-01-16 07:16:00,28.2,11.5,30.32,WNW,296,3.1,3.1,49,0.00,,OVC,0.00,VWS V14.00,2013-01-16 12:16:00,
2013-01-16 07:17:00,28.0,11.4,30.32,WNW,292,2.7,3.1,49,0.00,,OVC,0.00,VWS V14.00,2013-01-16 12:17:00,
2013-01-16 07:18:00,28.0,11.4,30.32,NW,306,2.7,3.1,49,0.00,,OVC,0.00,VWS V14.00,2013-01-16 12:18:00,
2013-01-16 07:19:00,28.0,11.4,30.32,WNW,282,3.1,3.6,49,0.00,,OVC,0.00,VWS V14.00,2013-01-16 12:19:00,
2013-01-16 07:20:00,28.0,11.4,30.32,NW,305,3.1,3.6,49,0.00,,OVC,0.00,VWS V14.00,2013-01-16 12:20:00,
2013-01-16 07:21:00,28.0,11.4,30.32,WNW,291,2.7,3.6,49,0.00,,OVC,0.00,VWS V14.00,2013-01-16 12:21:00,
2013-01-16 07:22:00,28.0,11.4,30.32,WNW,282,3.1,3.1,49,0.00,,OVC,0.00,VWS V14.00,2013-01-16 12:22:00,
2013-01-16 07:23:00,27.9,11.2,30.32,WNW,286,2.7,3.6,49,0.00,,OVC,0.00,VWS V14.00,2013-01-16 12:23:00,
2013-01-16 07:24:00,27.9,11.2,30.32,WNW,291,3.1,4.0,49,0.00,,OVC,0.00,VWS V14.00,2013-01-16 12:24:00,
2013-01-16 07:25:00,27.9,11.2,30.32,WNW,291,2.7,4.0,49,0.00,,OVC,0.00,VWS V14.00,2013-01-16 12:25:00,
2013-01-16 07:26:00,27.9,11.2,30.32,WNW,298,3.1,4.0,49,0.00,,OVC,0.00,VWS V14.00,2013-01-16 12:26:00,
2013-01-16 07:27:00,27.9,11.2,30.32,WNW,294,2.7,3.1,49,0.00,,OVC,0.00,VWS V14.00,2013-01-16 12:27:00,
2013-01-16 07:28:00,27.9,11.2,30.32,WNW,297,3.1,3.1,49,0.00,,OVC,0.00,VWS V14.00,2013-01-16 12:28:00,
2013-01-16 07:29:00,27.9,11.2,30.32,WNW,302,3.6,3.6,49,0.00,,OVC,0.00,VWS V14.00,2013-01-16 12:29:00,
2013-01-16 07:30:00,27.9,11.2,30.32,WNW,301,3.1,3.6,49,0.00,,OVC,0.00,VWS V14.00,2013-01-16 12:30:00,
2013-01-16 07:31:00,27.9,11.2,30.32,NW,321,3.6,4.5,49,0.00,,OVC,0.00,VWS V14.00,2013-01-16 12:31:00,
2013-01-16 07:32:00,27.9,11.2,30.32,WNW,299,4.0,5.4,49,0.00,,OVC,0.00,VWS V14.00,2013-01-16 12:32:00,
2013-01-16 07:33:00,27.9,11.6,30.32,WNW,302,4.0,5.4,50,0.00,,OVC,0.00,VWS V14.00,2013-01-16 12:33:00,
2013-01-16 07:34:00,27.9,11.6,30.32,NW,305,2.7,6.3,50,0.00,,OVC,0.00,VWS V14.00,2013-01-16 12:34:00,
2013-01-16 07:35:00,27.9,11.6,30.32,WNW,293,5.4,6.3,50,0.00,,OVC,0.00,VWS V14.00,2013-01-16 12:35:00,
2013-01-16 07:36:00,27.7,11.5,30.32,WNW,293,6.3,8.3,50,0.00,,OVC,0.00,VWS V14.00,2013-01-16 12:36:00,
2013-01-16 07:37:00,27.7,11.5,30.32,NW,304,3.1,6.3,50,0.00,,OVC,0.00,VWS V14.00,2013-01-16 12:37:00,
2013-01-16 07:38:00,27.7,11.5,30.32,NW,309,5.8,5.8,50,0.00,,OVC,0.00,VWS V14.00,2013-01-16 12:38:00,
2013-01-16 07:39:00,27.7,11.9,30.32,West,280,5.8,5.8,51,0.00,,OVC,0.00,VWS V14.00,2013-01-16 12:39:00,
2013-01-16 07:40:00,27.7,11.9,30.32,NW,325,3.6,5.8,51,0.00,,OVC,0.00,VWS V14.00,2013-01-16 12:40:00,
2013-01-16 07:41:00,27.9,12.1,30.32,NW,309,3.6,4.0,51,0.00,,OVC,0.00,VWS V14.00,2013-01-16 12:41:00,
2013-01-16 07:42:00,27.9,12.1,30.32,WNW,288,3.6,4.0,51,0.00,,OVC,0.00,VWS V14.00,2013-01-16 12:42:00,
2013-01-16 07:43:00,27.9,12.1,30.32,NW,315,3.6,4.0,51,0.00,,OVC,0.00,VWS V14.00,2013-01-16 12:43:00,
2013-01-16 07:44:00,27.9,12.1,30.32,WNW,290,4.9,5.8,51,0.00,,OVC,0.00,VWS V14.00,2013-01-16 12:44:00,
2013-01-16 07:45:00,27.9,12.1,30.32,NW,305,4.9,5.8,51,0.00,,OVC,0.00,VWS V14.00,2013-01-16 12:45:00,
2013-01-16 07:46:00,27.9,12.1,30.32,West,277,4.0,4.9,51,0.00,,OVC,0.00,VWS V14.00,2013-01-16 12:46:00,
2013-01-16 07:47:00,27.9,12.1,30.32,NW,318,6.3,6.3,51,0.00,,OVC,0.00,VWS V14.00,2013-01-16 12:47:00,
2013-01-16 07:48:00,27.9,12.1,30.32,WNW,287,4.0,6.3,51,0.00,,OVC,0.00,VWS V14.00,2013-01-16 12:48:00,
2013-01-16 07:49:00,27.9,12.1,30.32,West,279,4.0,4.9,51,0.00,,OVC,0.00,VWS V14.00,2013-01-16 12:49:00,
2013-01-16 07:50:00,27.9,12.1,30.32,WNW,297,4.9,4.9,51,0.00,,OVC,0.00,VWS V14.00,2013-01-16 12:50:00,
2013-01-16 07:51:00,27.9,12.1,30.32,NW,309,6.3,6.3,51,0.00,,OVC,0.00,VWS V14.00,2013-01-16 12:51:00,
2013-01-16 07:52:00,27.9,12.1,30.32,NW,305,4.9,6.3,51,0.00,,OVC,0.00,VWS V14.00,2013-01-16 12:52:00,
2013-01-16 07:53:00,27.9,12.1,30.32,WNW,284,3.6,6.3,51,0.00,,OVC,0.00,VWS V14.00,2013-01-16 12:53:00,
2013-01-16 07:54:00,27.9,12.1,30.32,WNW,288,5.8,7.6,51,0.00,,OVC,0.00,VWS V14.00,2013-01-16 12:54:00,
2013-01-16 07:55:00,27.9,12.1,30.32,WNW,289,5.8,7.6,51,0.00,,OVC,0.00,VWS V14.00,2013-01-16 12:55:00,
2013-01-16 07:56:00,28.0,12.3,30.32,NW,307,5.4,5.8,51,0.00,,OVC,0.00,VWS V14.00,2013-01-16 12:56:00,
2013-01-16 07:57:00,28.0,12.3,30.32,WNW,301,6.3,6.3,51,0.00,,OVC,0.00,VWS V14.00,2013-01-16 12:57:00,
2013-01-16 07:58:00,28.0,12.3,30.32,WNW,289,5.4,6.3,51,0.00,,OVC,0.00,VWS V14.00,2013-01-16 12:58:00,
2013-01-16 07:59:00,28.0,12.3,30.32,WNW,296,5.4,5.8,51,0.00,,OVC,0.00,VWS V14.00,2013-01-16 12:59:00,
2013-01-16 08:00:00,28.0,12.3,30.32,WNW,295,3.6,5.8,51,0.00,,OVC,0.00,VWS V14.00,2013-01-16 13:00:00,
2013-01-16 08:01:00,28.0,12.3,30.32,WNW,303,8.1,8.1,51,0.00,,OVC,0.00,VWS V14.00,2013-01-16 13:01:00,
2013-01-16 08:02:00,28.0,12.3,30.32,WNW,301,4.0,8.1,51,0.00,,OVC,0.00,VWS V14.00,2013-01-16 13:02:00,
2013-01-16 08:03:00,28.0,12.3,30.32,WNW,282,8.3,8.3,51,0.00,,OVC,0.00,VWS V14.00,2013-01-16 13:03:00,
2013-01-16 08:04:00,28.0,12.3,30.32,WNW,303,6.3,6.3,51,0.00,,OVC,0.00,VWS V14.00,2013-01-16 13:04:00,
2013-01-16 08:05:00,28.0,12.3,30.32,NW,305,4.0,6.3,51,0.00,,OVC,0.00,VWS V14.00,2013-01-16 13:05:00,
2013-01-16 08:06:00,28.0,12.3,30.32,NW,306,3.6,5.4,51,0.00,,OVC,0.00,VWS V14.00,2013-01-16 13:06:00,
2013-01-16 08:07:00,28.0,12.3,30.32,WNW,293,5.4,5.4,51,0.00,,OVC,0.00,VWS V14.00,2013-01-16 13:07:00,
2013-01-16 08:08:00,28.0,12.3,30.32,WNW,292,6.3,8.1,51,0.00,,OVC,0.00,VWS V14.00,2013-01-16 13:08:00,
2013-01-16 08:09:00,28.0,12.3,30.32,WNW,285,4.9,5.8,51,0.00,,OVC,0.00,VWS V14.00,2013-01-16 13:09:00,
2013-01-16 08:10:00,28.0,12.3,30.32,WNW,293,4.0,5.8,51,0.00,,OVC,0.00,VWS V14.00,2013-01-16 13:10:00,
2013-01-16 08:11:00,28.0,12.3,30.32,WNW,301,4.9,7.6,51,0.00,,OVC,0.00,VWS V14.00,2013-01-16 13:11:00,
2013-01-16 08:12:00,28.0,12.3,30.32,WNW,284,5.8,6.3,51,0.00,,OVC,0.00,VWS V14.00,2013-01-16 13:12:00,
2013-01-16 08:13:00,28.0,12.3,30.32,West,281,5.8,5.8,51,0.00,,OVC,0.00,VWS V14.00,2013-01-16 13:13:00,
2013-01-16 08:14:00,28.0,12.3,30.32,WNW,301,5.4,5.8,51,0.00,,OVC,0.00,VWS V14.00,2013-01-16 13:14:00,
2013-01-16 08:15:00,28.0,12.3,30.32,WNW,299,4.0,5.8,51,0.00,,OVC,0.00,VWS V14.00,2013-01-16 13:15:00,
2013-01-16 08:16:00,28.0,12.3,30.32,WNW,282,8.1,8.1,51,0.00,,OVC,0.00,VWS V14.00,2013-01-16 13:16:00,
2013-01-16 08:17:00,28.0,12.3,30.32,West,270,5.4,8.1,51,0.00,,OVC,0.00,VWS V14.00,2013-01-16 13:17:00,
2013-01-16 08:18:00,28.0,12.3,30.32,WNW,295,4.0,5.4,51,0.00,,OVC,0.00,VWS V14.00,2013-01-16 13:18:00,
2013-01-16 08:19:00,28.0,12.3,30.32,WNW,294,4.0,6.3,51,0.00,,OVC,0.00,VWS V14.00,2013-01-16 13:19:00,
2013-01-16 08:20:00,28.0,12.3,30.32,WNW,297,4.0,6.3,51,0.00,,OVC,0.00,VWS V14.00,2013-01-16 13:20:00,
2013-01-16 08:21:00,28.0,12.3,30.32,WNW,282,3.6,5.8,51,0.00,,OVC,0.00,VWS V14.00,2013-01-16 13:21:00,
2013-01-16 08:22:00,28.0,12.3,30.32,WNW,299,4.9,5.8,51,0.00,,OVC,0.00,VWS V14.00,2013-01-16 13:22:00,
2013-01-16 08:23:00,28.0,12.3,30.32,NW,307,4.9,6.3,51,0.00,,OVC,0.00,VWS V14.00,2013-01-16 13:23:00,
2013-01-16 08:24:00,28.0,12.3,30.32,WNW,291,3.6,4.9,51,0.00,,OVC,0.00,VWS V14.00,2013-01-16 13:24:00,
2013-01-16 08:25:00,28.0,12.3,30.32,WNW,288,4.0,4.9,51,0.00,,OVC,0.00,VWS V14.00,2013-01-16 13:25:00,
2013-01-16 08:26:00,28.2,12.4,30.32,NW,314,5.4,6.3,51,0.00,,OVC,0.00,VWS V14.00,2013-01-16 13:26:00,
2013-01-16 08:27:00,28.2,12.4,30.32,WNW,288,3.6,6.3,51,0.00,,OVC,0.00,VWS V14.00,2013-01-16 13:27:00,
2013-01-16 08:28:00,28.2,12.4,30.32,WNW,293,4.0,4.9,51,0.00,,OVC,0.00,VWS V14.00,2013-01-16 13:28:00,
2013-01-16 08:29:00,28.2,12.4,30.32,WNW,290,4.0,5.4,51,0.00,,OVC,0.00,VWS V14.00,2013-01-16 13:29:00,
2013-01-16 08:30:00,28.2,12.4,30.32,WNW,293,6.3,6.3,51,0.00,,OVC,0.00,VWS V14.00,2013-01-16 13:30:00,
2013-01-16 08:31:00,28.2,12.4,30.32,West,281,5.8,6.3,51,0.00,,OVC,0.00,VWS V14.00,2013-01-16 13:31:00,
2013-01-16 08:32:00,28.2,12.4,30.32,NW,304,7.6,7.6,51,0.00,,OVC,0.00,VWS V14.00,2013-01-16 13:32:00,
2013-01-16 08:33:00,28.4,12.6,30.35,WNW,299,4.9,7.6,51,0.00,,OVC,0.00,VWS V14.00,2013-01-16 13:33:00,
2013-01-16 08:34:00,28.4,12.6,30.35,WNW,293,5.8,6.3,51,0.00,,OVC,0.00,VWS V14.00,2013-01-16 13:34:00,
2013-01-16 08:35:00,28.4,12.6,30.35,WNW,285,5.4,6.3,51,0.00,,OVC,0.00,VWS V14.00,2013-01-16 13:35:00,
2013-01-16 08:36:00,28.4,12.6,30.35,WNW,292,4.0,6.3,51,0.00,,OVC,0.00,VWS V14.00,2013-01-16 13:36:00,
2013-01-16 08:37:00,28.4,12.6,30.35,WNW,285,4.0,6.3,51,0.00,,OVC,0.00,VWS V14.00,2013-01-16 13:37:00,
2013-01-16 08:38:00,28.4,12.6,30.35,West,272,4.9,5.8,51,0.00,,OVC,0.00,VWS V14.00,2013-01-16 13:38:00,
2013-01-16 08:39:00,28.4,12.6,30.35,NW,314,5.8,5.8,51,0.00,,OVC,0.00,VWS V14.00,2013-01-16 13:39:00,
2013-01-16 08:40:00,28.4,12.6,30.35,NW,308,4.0,6.3,51,0.00,,OVC,0.00,VWS V14.00,2013-01-16 13:40:00,
2013-01-16 08:41:00,28.6,12.8,30.35,NW,310,5.4,5.8,51,0.00,,OVC,0.00,VWS V14.00,2013-01-16 13:41:00,
2013-01-16 08:42:00,28.6,12.8,30.35,WNW,303,4.9,5.4,51,0.00,,OVC,0.00,VWS V14.00,2013-01-16 13:42:00,
2013-01-16 08:43:00,28.6,12.8,30.35,West,278,6.7,6.7,51,0.00,,OVC,0.00,VWS V14.00,2013-01-16 13:43:00,
2013-01-16 08:44:00,28.6,12.8,30.35,WNW,286,4.9,6.7,51,0.00,,OVC,0.00,VWS V14.00,2013-01-16 13:44:00,
2013-01-16 08:45:00,28.6,12.8,30.35,WNW,288,5.4,6.7,51,0.00,,OVC,0.00,VWS V14.00,2013-01-16 13:45:00,
2013-01-16 08:46:00,28.6,12.8,30.35,NW,313,7.2,7.2,51,0.00,,OVC,0.00,VWS V14.00,2013-01-16 13:46:00,
2013-01-16 08:47:00,28.6,12.8,30.35,WNW,289,3.6,7.2,51,0.00,,OVC,0.00,VWS V14.00,2013-01-16 13:47:00,
2013-01-16 08:48:00,28.6,12.8,30.32,WNW,298,4.9,4.9,51,0.00,,OVC,0.00,VWS V14.00,2013-01-16 13:48:00,
2013-01-16 08:49:00,28.6,12.8,30.32,West,280,4.9,6.3,51,0.00,,OVC,0.00,VWS V14.00,2013-01-16 13:49:00,
2013-01-16 08:50:00,28.6,12.8,30.32,WNW,283,4.0,6.3,51,0.00,,OVC,0.00,VWS V14.00,2013-01-16 13:50:00,
2013-01-16 08:51:00,28.6,12.8,30.32,NW,317,5.4,5.4,51,0.00,,OVC,0.00,VWS V14.00,2013-01-16 13:51:00,
2013-01-16 08:52:00,28.6,12.8,30.32,WNW,299,4.9,5.4,51,0.00,,OVC,0.00,VWS V14.00,2013-01-16 13:52:00,
2013-01-16 08:53:00,28.6,12.8,30.32,WNW,282,5.4,5.4,51,0.00,,OVC,0.00,VWS V14.00,2013-01-16 13:53:00,
2013-01-16 08:54:00,28.6,12.8,30.32,NW,311,3.1,4.9,51,0.00,,OVC,0.00,VWS V14.00,2013-01-16 13:54:00,
2013-01-16 08:55:00,28.6,12.8,30.32,NW,318,4.9,4.9,51,0.00,,OVC,0.00,VWS V14.00,2013-01-16 13:55:00,
2013-01-16 08:56:00,28.6,12.8,30.32,WNW,288,4.5,4.9,51,0.00,,OVC,0.00,VWS V14.00,2013-01-16 13:56:00,
2013-01-16 08:57:00,28.6,12.8,30.32,WNW,294,3.6,6.3,51,0.00,,OVC,0.00,VWS V14.00,2013-01-16 13:57:00,
2013-01-16 08:58:00,28.6,12.8,30.32,WNW,287,4.0,4.0,51,0.00,,OVC,0.00,VWS V14.00,2013-01-16 13:58:00,
2013-01-16 08:59:00,28.6,12.8,30.32,WNW,295,4.9,5.8,51,0.00,,OVC,0.00,VWS V14.00,2013-01-16 13:59:00,
2013-01-16 09:00:00,28.6,12.8,30.32,WNW,294,4.9,5.8,51,0.00,,OVC,0.00,VWS V14.00,2013-01-16 14:00:00,
2013-01-16 09:01:00,28.6,12.8,30.32,NW,307,3.6,4.9,51,0.00,,OVC,0.00,VWS V14.00,2013-01-16 14:01:00,
2013-01-16 09:02:00,28.6,12.8,30.32,WNW,293,6.3,6.3,51,0.00,,OVC,0.00,VWS V14.00,2013-01-16 14:02:00,
2013-01-16 09:03:00,28.6,12.8,30.35,NW,308,4.9,6.3,51,0.00,,OVC,0.00,VWS V14.00,2013-01-16 14:03:00,
2013-01-16 09:04:00,28.6,12.8,30.35,WNW,282,3.6,3.6,51,0.00,,OVC,0.00,VWS V14.00,2013-01-16 14:04:00,
2013-01-16 09:05:00,28.6,12.8,30.35,WNW,282,5.8,5.8,51,0.00,,OVC,0.00,VWS V14.00,2013-01-16 14:05:00,
2013-01-16 09:06:00,28.6,12.8,30.35,WNW,290,3.1,5.8,51,0.00,,OVC,0.00,VWS V14.00,2013-01-16 14:06:00,
2013-01-16 09:07:00,28.6,12.8,30.35,WNW,283,4.0,5.4,51,0.00,,OVC,0.00,VWS V14.00,2013-01-16 14:07:00,
2013-01-16 09:08:00,28.6,12.8,30.35,NW,313,5.4,6.7,51,0.00,,OVC,0.00,VWS V14.00,2013-01-16 14:08:00,
2013-01-16 09:09:00,28.6,12.8,30.35,WNW,295,6.3,6.3,51,0.00,,OVC,0.00,VWS V14.00,2013-01-16 14:09:00,
2013-01-16 09:10:00,28.6,12.8,30.35,WNW,286,6.3,6.3,51,0.00,,OVC,0.00,VWS V14.00,2013-01-16 14:10:00,
2013-01-16 09:11:00,28.6,12.8,30.35,WNW,298,4.0,7.6,51,0.00,,OVC,0.00,VWS V14.00,2013-01-16 14:11:00,
2013-01-16 09:12:00,28.6,12.8,30.35,WNW,301,3.1,4.9,51,0.00,,OVC,0.00,VWS V14.00,2013-01-16 14:12:00,
2013-01-16 09:13:00,28.8,12.9,30.35,WNW,301,5.8,5.8,51,0.00,,OVC,0.00,VWS V14.00,2013-01-16 14:13:00,
2013-01-16 09:14:00,28.8,12.9,30.35,WNW,303,4.9,4.9,51,0.00,,OVC,0.00,VWS V14.00,2013-01-16 14:14:00,
2013-01-16 09:15:00,28.8,12.9,30.35,NW,306,3.6,4.9,51,0.00,,OVC,0.00,VWS V14.00,2013-01-16 14:15:00,
2013-01-16 09:16:00,28.8,12.9,30.35,West,274,4.0,4.0,51,0.00,,OVC,0.00,VWS V14.00,2013-01-16 14:16:00,
2013-01-16 09:17:00,28.9,13.1,30.35,WNW,298,4.0,4.0,51,0.00,,OVC,0.00,VWS V14.00,2013-01-16 14:17:00,
2013-01-16 09:18:00,28.9,13.1,30.35,NW,313,5.8,6.3,51,0.00,,OVC,0.00,VWS V14.00,2013-01-16 14:18:00,
2013-01-16 09:19:00,28.9,13.1,30.35,WNW,295,6.3,6.3,51,0.00,,OVC,0.00,VWS V14.00,2013-01-16 14:19:00,
2013-01-16 09:20:00,28.9,13.1,30.35,WNW,299,5.4,6.3,51,0.00,,OVC,0.00,VWS V14.00,2013-01-16 14:20:00,
2013-01-16 09:21:00,29.1,13.3,30.35,WNW,294,3.1,5.4,51,0.00,,OVC,0.00,VWS V14.00,2013-01-16 14:21:00,
2013-01-16 09:22:00,29.1,13.3,30.35,West,276,3.1,3.6,51,0.00,,OVC,0.00,VWS V14.00,2013-01-16 14:22:00,
2013-01-16 09:23:00,29.1,13.3,30.35,WNW,284,5.4,5.4,51,0.00,,OVC,0.00,VWS V14.00,2013-01-16 14:23:00,
2013-01-16 09:24:00,29.3,13.4,30.35,NW,305,5.4,5.8,51,0.00,,OVC,0.00,VWS V14.00,2013-01-16 14:24:00,
2013-01-16 09:25:00,29.3,13.4,30.35,West,279,4.9,5.8,51,0.00,,OVC,0.00,VWS V14.00,2013-01-16 14:25:00,
2013-01-16 09:26:00,29.3,13.4,30.35,WNW,303,4.0,4.9,51,0.00,,OVC,0.00,VWS V14.00,2013-01-16 14:26:00,
2013-01-16 09:27:00,29.5,13.6,30.35,WNW,299,6.3,6.3,51,0.00,,OVC,0.00,VWS V14.00,2013-01-16 14:27:00,
2013-01-16 09:28:00,29.5,13.6,30.35,West,279,5.8,6.3,51,0.00,,OVC,0.00,VWS V14.00,2013-01-16 14:28:00,
2013-01-16 09:29:00,29.7,13.8,30.35,West,276,3.1,5.4,51,0.00,,OVC,0.00,VWS V14.00,2013-01-16 14:29:00,
2013-01-16 09:30:00,29.7,13.8,30.35,NNW,335,4.0,5.4,51,0.00,,OVC,0.00,VWS V14.00,2013-01-16 14:30:00,
2013-01-16 09:31:00,29.7,13.8,30.35,WNW,295,4.0,4.0,51,0.00,,OVC,0.00,VWS V14.00,2013-01-16 14:31:00,
2013-01-16 09:32:00,29.8,13.9,30.35,WNW,302,3.1,4.9,51,0.00,,OVC,0.00,VWS V14.00,2013-01-16 14:32:00,
2013-01-16 09:33:00,29.8,13.9,30.35,WNW,294,5.4,5.8,51,0.00,,OVC,0.00,VWS V14.00,2013-01-16 14:33:00,
2013-01-16 09:34:00,30.2,14.3,30.35,WNW,300,5.8,7.6,51,0.00,,OVC,0.00,VWS V14.00,2013-01-16 14:34:00,
2013-01-16 09:35:00,30.2,14.3,30.35,NW,314,4.0,7.6,51,0.00,,OVC,0.00,VWS V14.00,2013-01-16 14:35:00,
2013-01-16 09:36:00,30.2,14.3,30.35,WNW,293,4.5,4.9,51,0.00,,OVC,0.00,VWS V14.00,2013-01-16 14:36:00,
2013-01-16 09:37:00,30.2,13.8,30.35,NW,315,6.3,6.3,50,0.00,,OVC,0.00,VWS V14.00,2013-01-16 14:37:00,
2013-01-16 09:38:00,30.4,14.0,30.35,NW,323,4.0,6.3,50,0.00,,OVC,0.00,VWS V14.00,2013-01-16 14:38:00,
2013-01-16 09:39:00,30.6,13.7,30.35,WNW,297,5.8,5.8,49,0.00,,OVC,0.00,VWS V14.00,2013-01-16 14:39:00,
2013-01-16 09:40:00,30.7,13.4,30.35,WNW,290,4.0,5.8,48,0.00,,OVC,0.00,VWS V14.00,2013-01-16 14:40:00,
2013-01-16 09:41:00,30.7,13.4,30.35,West,271,3.1,4.0,48,0.00,,OVC,0.00,VWS V14.00,2013-01-16 14:41:00,
2013-01-16 09:42:00,30.9,13.6,30.35,West,264,5.4,5.8,48,0.00,,OVC,0.00,VWS V14.00,2013-01-16 14:42:00,
2013-01-16 09:43:00,31.1,13.7,30.35,West,267,4.9,6.3,48,0.00,,OVC,0.00,VWS V14.00,2013-01-16 14:43:00,
2013-01-16 09:44:00,31.1,13.7,30.35,WNW,286,8.7,8.7,48,0.00,,OVC,0.00,VWS V14.00,2013-01-16 14:44:00,
2013-01-16 09:45:00,31.3,13.9,30.35,WNW,289,8.1,8.7,48,0.00,,OVC,0.00,VWS V14.00,2013-01-16 14:45:00,
2013-01-16 09:46:00,31.5,14.1,30.35,NNW,330,4.0,8.1,48,0.00,,OVC,0.00,VWS V14.00,2013-01-16 14:46:00,
2013-01-16 09:47:00,31.5,14.1,30.35,WNW,285,5.8,7.6,48,0.00,,OVC,0.00,VWS V14.00,2013-01-16 14:47:00,
2013-01-16 09:48:00,31.6,14.2,30.35,NW,306,6.3,7.6,48,0.00,,OVC,0.00,VWS V14.00,2013-01-16 14:48:00,
2013-01-16 09:49:00,31.8,14.4,30.35,NW,305,6.3,8.1,48,0.00,,OVC,0.00,VWS V14.00,2013-01-16 14:49:00,
2013-01-16 09:50:00,31.8,14.4,30.35,West,280,6.3,8.1,48,0.00,,OVC,0.00,VWS V14.00,2013-01-16 14:50:00,
2013-01-16 09:51:00,32.0,14.6,30.35,NW,304,3.6,6.3,48,0.00,,OVC,0.00,VWS V14.00,2013-01-16 14:51:00,
2013-01-16 09:52:00,32.2,14.2,30.35,WNW,303,5.8,5.8,47,0.00,,OVC,0.00,VWS V14.00,2013-01-16 14:52:00,
2013-01-16 09:53:00,32.2,14.2,30.35,WNW,287,4.9,8.1,47,0.00,,OVC,0.00,VWS V14.00,2013-01-16 14:53:00,
2013-01-16 09:54:00,32.4,13.9,30.35,WNW,285,5.4,5.4,46,0.00,,OVC,0.00,VWS V14.00,2013-01-16 14:54:00,
2013-01-16 09:55:00,32.4,13.9,30.35,West,264,5.4,5.4,46,0.00,,OVC,0.00,VWS V14.00,2013-01-16 14:55:00,
2013-01-16 09:56:00,32.5,14.6,30.35,WNW,297,8.1,8.1,47,0.00,,OVC,0.00,VWS V14.00,2013-01-16 14:56:00,
2013-01-16 09:57:00,32.5,14.6,30.35,NW,322,5.8,8.7,47,0.00,,OVC,0.00,VWS V14.00,2013-01-16 14:57:00,
2013-01-16 09:58:00,32.7,14.7,30.35,NW,315,3.6,6.3,47,0.00,,OVC,0.00,VWS V14.00,2013-01-16 14:58:00,
2013-01-16 09:59:00,32.7,14.7,30.35,WNW,293,6.7,6.7,47,0.00,,OVC,0.00,VWS V14.00,2013-01-16 14:59:00,
2013-01-16 10:00:00,32.7,14.7,30.35,West,277,6.3,6.7,47,0.00,,OVC,0.00,VWS V14.00,2013-01-16 15:00:00,
2013-01-16 10:01:00,32.9,14.9,30.35,WNW,290,5.8,7.6,47,0.00,,OVC,0.00,VWS V14.00,2013-01-16 15:01:00,
2013-01-16 10:02:00,32.9,14.4,30.35,WNW,288,4.9,6.7,46,0.00,,OVC,0.00,VWS V14.00,2013-01-16 15:02:00,
2013-01-16 10:03:00,33.1,14.6,30.35,NW,314,4.9,5.4,46,0.00,,OVC,0.00,VWS V14.00,2013-01-16 15:03:00,
2013-01-16 10:04:00,33.3,14.7,30.35,NNW,328,7.6,8.7,46,0.00,,OVC,0.00,VWS V14.00,2013-01-16 15:04:00,
2013-01-16 10:05:00,33.3,14.7,30.35,WNW,291,8.1,8.7,46,0.00,,OVC,0.00,VWS V14.00,2013-01-16 15:05:00,
2013-01-16 10:06:00,33.3,14.2,30.35,WNW,302,5.4,8.1,45,0.00,,OVC,0.00,VWS V14.00,2013-01-16 15:06:00,
2013-01-16 10:07:00,33.4,13.9,30.35,NNW,343,4.9,6.3,44,0.00,,OVC,0.00,VWS V14.00,2013-01-16 15:07:00,
2013-01-16 10:08:00,33.4,13.9,30.35,NW,324,5.8,6.3,44,0.00,,OVC,0.00,VWS V14.00,2013-01-16 15:08:00,
2013-01-16 10:09:00,33.6,14.1,30.35,NW,305,4.9,5.8,44,0.00,,OVC,0.00,VWS V14.00,2013-01-16 15:09:00,
2013-01-16 10:10:00,33.6,14.1,30.35,WNW,302,5.4,5.8,44,0.00,,OVC,0.00,VWS V14.00,2013-01-16 15:10:00,
2013-01-16 10:11:00,33.6,14.1,30.35,WNW,294,6.3,6.3,44,0.00,,OVC,0.00,VWS V14.00,2013-01-16 15:11:00,
2013-01-16 10:12:00,33.8,13.7,30.35,WNW,298,7.6,8.1,43,0.00,,OVC,0.00,VWS V14.00,2013-01-16 15:12:00,
2013-01-16 10:13:00,33.8,13.7,30.35,NW,325,8.1,8.1,43,0.00,,OVC,0.00,VWS V14.00,2013-01-16 15:13:00,
2013-01-16 10:14:00,33.8,13.7,30.35,NNW,339,6.3,6.3,43,0.00,,OVC,0.00,VWS V14.00,2013-01-16 15:14:00,
2013-01-16 10:15:00,34.0,13.9,30.35,WNW,294,4.9,6.3,43,0.00,,OVC,0.00,VWS V14.00,2013-01-16 15:15:00,
2013-01-16 10:16:00,34.0,13.9,30.35,NW,315,7.6,8.3,43,0.00,,OVC,0.00,VWS V14.00,2013-01-16 15:16:00,
2013-01-16 10:17:00,34.0,13.3,30.35,NNW,335,6.3,7.6,42,0.00,,OVC,0.00,VWS V14.00,2013-01-16 15:17:00,
2013-01-16 10:18:00,34.0,13.3,30.35,West,278,5.8,6.3,42,0.00,,OVC,0.00,VWS V14.00,2013-01-16 15:18:00,
2013-01-16 10:19:00,34.2,13.5,30.35,SW,234,2.7,5.8,42,0.00,,OVC,0.00,VWS V14.00,2013-01-16 15:19:00,
2013-01-16 10:20:00,34.2,13.5,30.35,WNW,297,5.8,5.8,42,0.00,,OVC,0.00,VWS V14.00,2013-01-16 15:20:00,
2013-01-16 10:21:00,34.3,13.6,30.35,West,276,4.9,6.3,42,0.00,,OVC,0.00,VWS V14.00,2013-01-16 15:21:00,
2013-01-16 10:22:00,34.3,13.6,30.35,WNW,295,3.1,4.9,42,0.00,,OVC,0.00,VWS V14.00,2013-01-16 15:22:00,
2013-01-16 10:23:00,34.5,13.8,30.35,WNW,296,6.3,6.3,42,0.00,,OVC,0.00,VWS V14.00,2013-01-16 15:23:00,
2013-01-16 10:24:00,34.5,13.8,30.35,NW,316,8.3,8.3,42,0.00,,OVC,0.00,VWS V14.00,2013-01-16 15:24:00,
2013-01-16 10:25:00,34.7,14.0,30.35,NW,307,11.0,11.0,42,0.00,,OVC,0.00,VWS V14.00,2013-01-16 15:25:00,
2013-01-16 10:26:00,34.7,14.5,30.35,WNW,298,6.3,11.0,43,0.00,,OVC,0.00,VWS V14.00,2013-01-16 15:26:00,
2013-01-16 10:27:00,34.9,14.7,30.35,NW,314,7.6,8.1,43,0.00,,OVC,0.00,VWS V14.00,2013-01-16 15:27:00,
2013-01-16 10:28:00,35.1,14.3,30.35,NW,317,7.6,8.7,42,0.00,,OVC,0.00,VWS V14.00,2013-01-16 15:28:00,
2013-01-16 10:29:00,35.1,14.3,30.35,NW,316,6.3,8.3,42,0.00,,OVC,0.00,VWS V14.00,2013-01-16 15:29:00,
2013-01-16 10:30:00,35.1,14.3,30.35,NNW,332,4.0,8.3,42,0.00,,OVC,0.00,VWS V14.00,2013-01-16 15:30:00,
2013-01-16 10:31:00,35.2,14.5,30.35,NW,308,8.1,8.1,42,0.00,,OVC,0.00,VWS V14.00,2013-01-16 15:31:00,
2013-01-16 10:32:00,35.2,14.5,30.35,WNW,289,3.6,8.1,42,0.00,,OVC,0.00,VWS V14.00,2013-01-16 15:32:00,
2013-01-16 10:33:00,35.4,14.6,30.35,WNW,300,8.1,8.7,42,0.00,,OVC,0.00,VWS V14.00,2013-01-16 15:33:00,
2013-01-16 10:34:00,35.4,14.6,30.35,NW,311,5.4,5.4,42,0.00,,OVC,0.00,VWS V14.00,2013-01-16 15:34:00,
2013-01-16 10:35:00,35.6,14.2,30.35,NW,306,4.9,5.4,41,0.00,,OVC,0.00,VWS V14.00,2013-01-16 15:35:00,
2013-01-16 10:36:00,35.6,14.2,30.35,NW,314,5.4,5.4,41,0.00,,OVC,0.00,VWS V14.00,2013-01-16 15:36:00,
2013-01-16 10:37:00,35.6,14.2,30.35,NW,312,4.0,5.8,41,0.00,,OVC,0.00,VWS V14.00,2013-01-16 15:37:00,
2013-01-16 10:38:00,35.8,14.4,30.35,NW,311,4.0,6.3,41,0.00,,OVC,0.00,VWS V14.00,2013-01-16 15:38:00,
2013-01-16 10:39:00,35.8,14.4,30.35,NW,310,3.6,4.0,41,0.00,,OVC,0.00,VWS V14.00,2013-01-16 15:39:00,
2013-01-16 10:40:00,35.8,14.4,30.35,WNW,282,5.4,5.4,41,0.00,,OVC,0.00,VWS V14.00,2013-01-16 15:40:00,
2013-01-16 10:41:00,36.0,14.6,30.35,NW,304,8.1,8.1,41,0.00,,OVC,0.00,VWS V14.00,2013-01-16 15:41:00,
2013-01-16 10:42:00,36.0,14.6,30.35,NW,304,8.3,8.3,41,0.00,,OVC,0.00,VWS V14.00,2013-01-16 15:42:00,
2013-01-16 10:43:00,36.1,14.7,30.35,NW,307,5.8,8.7,41,0.00,,OVC,0.00,VWS V14.00,2013-01-16 15:43:00,
2013-01-16 10:44:00,36.3,14.9,30.35,NNW,327,6.7,6.7,41,0.00,,OVC,0.00,VWS V14.00,2013-01-16 15:44:00,
2013-01-16 10:45:00,36.3,14.9,30.35,NW,315,5.4,6.7,41,0.00,,OVC,0.00,VWS V14.00,2013-01-16 15:45:00,
2013-01-16 10:46:00,36.3,14.9,30.35,WNW,293,3.6,6.3,41,0.00,,OVC,0.00,VWS V14.00,2013-01-16 15:46:00,
2013-01-16 10:47:00,36.5,15.1,30.35,NW,306,5.4,6.3,41,0.00,,OVC,0.00,VWS V14.00,2013-01-16 15:47:00,
2013-01-16 10:48:00,36.7,15.2,30.35,NW,323,8.1,8.1,41,0.00,,OVC,0.00,VWS V14.00,2013-01-16 15:48:00,
2013-01-16 10:49:00,36.7,15.2,30.35,WNW,297,7.6,10.1,41,0.00,,OVC,0.00,VWS V14.00,2013-01-16 15:49:00,
2013-01-16 10:50:00,36.7,15.2,30.35,WNW,295,8.1,10.1,41,0.00,,OVC,0.00,VWS V14.00,2013-01-16 15:50:00,
2013-01-16 10:51:00,36.9,15.4,30.35,WNW,289,6.3,8.1,41,0.00,,OVC,0.00,VWS V14.00,2013-01-16 15:51:00,
2013-01-16 10:52:00,36.9,15.4,30.35,WNW,302,5.4,8.3,41,0.00,,OVC,0.00,VWS V14.00,2013-01-16 15:52:00,
2013-01-16 10:53:00,36.9,15.4,30.35,WNW,288,8.3,8.7,41,0.00,,OVC,0.00,VWS V14.00,2013-01-16 15:53:00,
2013-01-16 10:54:00,37.0,15.0,30.35,NW,314,5.8,8.1,40,0.00,,OVC,0.00,VWS V14.00,2013-01-16 15:54:00,
2013-01-16 10:55:00,37.0,15.0,30.35,WNW,293,4.5,8.1,40,0.00,,OVC,0.00,VWS V14.00,2013-01-16 15:55:00,
2013-01-16 10:56:00,37.0,15.0,30.35,WNW,302,5.8,8.1,40,0.00,,OVC,0.00,VWS V14.00,2013-01-16 15:56:00,
2013-01-16 10:57:00,37.0,15.0,30.35,North,0,8.7,8.7,40,0.00,,OVC,0.00,VWS V14.00,2013-01-16 15:57:00,
2013-01-16 10:58:00,37.2,15.1,30.35,WNW,296,5.8,8.7,40,0.00,,OVC,0.00,VWS V14.00,2013-01-16 15:58:00,
2013-01-16 10:59:00,37.4,15.3,30.35,NW,314,5.8,7.6,40,0.00,,OVC,0.00,VWS V14.00,2013-01-16 15:59:00,
2013-01-16 11:00:00,37.4,15.3,30.35,NW,325,5.4,7.6,40,0.00,,OVC,0.00,VWS V14.00,2013-01-16 16:00:00,
2013-01-16 11:01:00,37.4,15.3,30.35,North,0,6.3,6.3,40,0.00,,OVC,0.00,VWS V14.00,2013-01-16 16:01:00,
2013-01-16 11:02:00,37.6,15.5,30.35,NNW,344,3.6,6.3,40,0.00,,OVC,0.00,VWS V14.00,2013-01-16 16:02:00,
2013-01-16 11:03:00,37.6,15.5,30.35,NNW,342,6.3,8.1,40,0.00,,OVC,0.00,VWS V14.00,2013-01-16 16:03:00,
2013-01-16 11:04:00,37.8,15.6,30.35,NNW,342,5.4,6.3,40,0.00,,OVC,0.00,VWS V14.00,2013-01-16 16:04:00,
2013-01-16 11:05:00,37.8,15.6,30.35,NW,316,5.4,6.3,40,0.00,,OVC,0.00,VWS V14.00,2013-01-16 16:05:00,
2013-01-16 11:06:00,37.8,15.6,30.35,WNW,287,4.9,7.6,40,0.00,,OVC,0.00,VWS V14.00,2013-01-16 16:06:00,
2013-01-16 11:07:00,37.9,15.8,30.35,North,2,5.4,6.3,40,0.00,,OVC,0.00,VWS V14.00,2013-01-16 16:07:00,
2013-01-16 11:08:00,37.9,15.2,30.35,NNW,338,8.1,8.1,39,0.00,,OVC,0.00,VWS V14.00,2013-01-16 16:08:00,
2013-01-16 11:09:00,37.9,15.2,30.35,NNW,333,5.8,5.8,39,0.00,,OVC,0.00,VWS V14.00,2013-01-16 16:09:00,
2013-01-16 11:10:00,38.1,15.4,30.35,North,353,7.2,7.6,39,0.00,,OVC,0.00,VWS V14.00,2013-01-16 16:10:00,
2013-01-16 11:11:00,38.1,15.4,30.35,WNW,296,8.7,8.7,39,0.00,,OVC,0.00,VWS V14.00,2013-01-16 16:11:00,
2013-01-16 11:12:00,38.1,15.4,30.35,NW,306,6.3,8.7,39,0.00,,OVC,0.00,VWS V14.00,2013-01-16 16:12:00,
2013-01-16 11:13:00,38.3,15.5,30.35,NNW,338,3.1,6.3,39,0.00,,OVC,0.00,VWS V14.00,2013-01-16 16:13:00,
2013-01-16 11:14:00,38.5,15.7,30.35,NW,315,4.0,4.0,39,0.00,,OVC,0.00,VWS V14.00,2013-01-16 16:14:00,
2013-01-16 11:15:00,38.7,15.9,30.35,NNW,334,5.8,5.8,39,0.00,,OVC,0.00,VWS V14.00,2013-01-16 16:15:00,
2013-01-16 11:16:00,38.7,15.9,30.35,NW,312,6.3,6.3,39,0.00,,OVC,0.00,VWS V14.00,2013-01-16 16:16:00,
2013-01-16 11:17:00,38.8,16.6,30.35,WNW,286,3.6,6.3,40,0.00,,OVC,0.00,VWS V14.00,2013-01-16 16:17:00,
2013-01-16 11:18:00,38.8,16.0,30.35,NNW,332,5.8,7.6,39,0.00,,OVC,0.00,VWS V14.00,2013-01-16 16:18:00,
2013-01-16 11:19:00,39.0,16.2,30.35,North,353,5.8,10.1,39,0.00,,OVC,0.00,VWS V14.00,2013-01-16 16:19:00,
2013-01-16 11:20:00,39.2,16.3,30.35,NNW,337,5.8,10.1,39,0.00,,OVC,0.00,VWS V14.00,2013-01-16 16:20:00,
2013-01-16 11:21:00,39.2,16.3,30.35,NNW,338,5.8,10.1,39,0.00,,OVC,0.00,VWS V14.00,2013-01-16 16:21:00,
2013-01-16 11:22:00,39.2,16.3,30.35,North,353,8.1,8.1,39,0.00,,OVC,0.00,VWS V14.00,2013-01-16 16:22:00,
2013-01-16 11:23:00,39.4,16.5,30.35,NNW,344,7.6,8.1,39,0.00,,OVC,0.00,VWS V14.00,2013-01-16 16:23:00,
2013-01-16 11:24:00,39.4,15.9,30.35,NW,304,5.4,5.4,38,0.00,,OVC,0.00,VWS V14.00,2013-01-16 16:24:00,
2013-01-16 11:25:00,39.4,16.5,30.35,NW,326,5.8,7.6,39,0.00,,OVC,0.00,VWS V14.00,2013-01-16 16:25:00,
2013-01-16 11:26:00,39.6,16.7,30.35,NW,322,5.4,5.8,39,0.00,,OVC,0.00,VWS V14.00,2013-01-16 16:26:00,
2013-01-16 11:27:00,39.7,16.8,30.35,WNW,294,8.3,8.3,39,0.00,,OVC,0.00,VWS V14.00,2013-01-16 16:27:00,
2013-01-16 11:28:00,39.7,16.8,30.35,NW,322,7.6,8.3,39,0.00,,OVC,0.00,VWS V14.00,2013-01-16 16:28:00,
2013-01-16 11:29:00,39.9,17.0,30.35,NW,311,5.4,8.3,39,0.00,,OVC,0.00,VWS V14.00,2013-01-16 16:29:00,
2013-01-16 11:30:00,39.9,17.0,30.35,NNW,330,5.4,8.3,39,0.00,,OVC,0.00,VWS V14.00,2013-01-16 16:30:00,
2013-01-16 11:31:00,40.1,17.1,30.35,WNW,300,3.1,6.3,39,0.00,,OVC,0.00,VWS V14.00,2013-01-16 16:31:00,
2013-01-16 11:32:00,40.3,17.3,30.35,WSW,247,4.0,5.4,39,0.00,,OVC,0.00,VWS V14.00,2013-01-16 16:32:00,
2013-01-16 11:33:00,40.3,17.3,30.35,WNW,297,4.5,4.5,39,0.00,,OVC,0.00,VWS V14.00,2013-01-16 16:33:00,
2013-01-16 11:34:00,40.5,17.5,30.35,NW,313,5.4,5.4,39,0.00,,OVC,0.00,VWS V14.00,2013-01-16 16:34:00,
2013-01-16 11:35:00,40.5,17.5,30.35,WNW,295,3.1,5.4,39,0.00,,OVC,0.00,VWS V14.00,2013-01-16 16:35:00,
2013-01-16 11:36:00,40.5,17.5,30.35,North,357,5.4,5.4,39,0.00,,OVC,0.00,VWS V14.00,2013-01-16 16:36:00,
2013-01-16 11:37:00,40.6,17.0,30.35,North,0,3.6,5.8,38,0.00,,OVC,0.00,VWS V14.00,2013-01-16 16:37:00,
2013-01-16 11:38:00,40.6,17.0,30.35,NNE,14,5.4,5.4,38,0.00,,OVC,0.00,VWS V14.00,2013-01-16 16:38:00,
2013-01-16 11:39:00,40.6,17.0,30.35,NNE,21,4.0,6.3,38,0.00,,OVC,0.00,VWS V14.00,2013-01-16 16:39:00,
2013-01-16 11:40:00,40.6,17.0,30.35,NW,319,3.1,6.3,38,0.00,,OVC,0.00,VWS V14.00,2013-01-16 16:40:00,
2013-01-16 11:41:00,40.8,17.2,30.35,West,260,5.4,5.4,38,0.00,,OVC,0.00,VWS V14.00,2013-01-16 16:41:00,
2013-01-16 11:42:00,40.8,17.2,30.35,WNW,293,7.6,8.3,38,0.00,,OVC,0.00,VWS V14.00,2013-01-16 16:42:00,
2013-01-16 11:43:00,41.0,17.4,30.35,WNW,284,6.3,7.6,38,0.00,,OVC,0.00,VWS V14.00,2013-01-16 16:43:00,
2013-01-16 11:44:00,41.2,17.5,30.35,WNW,285,6.3,6.3,38,0.00,,OVC,0.00,VWS V14.00,2013-01-16 16:44:00,
2013-01-16 11:45:00,41.2,17.5,30.35,WNW,291,5.8,6.3,38,0.00,,OVC,0.00,VWS V14.00,2013-01-16 16:45:00,
2013-01-16 11:46:00,41.4,17.7,30.35,West,268,5.8,5.8,38,0.00,,OVC,0.00,VWS V14.00,2013-01-16 16:46:00,
2013-01-16 11:47:00,41.5,17.8,30.35,West,274,5.8,6.3,38,0.00,,OVC,0.00,VWS V14.00,2013-01-16 16:47:00,
2013-01-16 11:48:00,41.5,17.8,30.35,WNW,288,2.2,5.8,38,0.00,,OVC,0.00,VWS V14.00,2013-01-16 16:48:00,
2013-01-16 11:49:00,41.7,18.0,30.35,WNW,301,7.2,7.2,38,0.00,,OVC,0.00,VWS V14.00,2013-01-16 16:49:00,
2013-01-16 11:50:00,41.7,18.0,30.35,WNW,301,5.8,7.2,38,0.00,,OVC,0.00,VWS V14.00,2013-01-16 16:50:00,
2013-01-16 11:51:00,41.7,18.0,30.35,WNW,302,6.3,6.3,38,0.00,,OVC,0.00,VWS V14.00,2013-01-16 16:51:00,
2013-01-16 11:52:00,41.9,18.2,30.35,NW,305,3.6,6.3,38,0.00,,OVC,0.00,VWS V14.00,2013-01-16 16:52:00,
2013-01-16 11:53:00,41.9,18.2,30.35,WNW,298,5.8,7.6,38,0.00,,OVC,0.00,VWS V14.00,2013-01-16 16:53:00,
2013-01-16 11:54:00,42.1,18.3,30.35,WNW,299,4.0,5.4,38,0.00,,OVC,0.00,VWS V14.00,2013-01-16 16:54:00,
2013-01-16 11:55:00,42.1,18.3,30.35,NW,321,8.1,8.1,38,0.00,,OVC,0.00,VWS V14.00,2013-01-16 16:55:00,
2013-01-16 11:56:00,42.1,18.3,30.35,NW,313,5.8,8.1,38,0.00,,OVC,0.00,VWS V14.00,2013-01-16 16:56:00,
2013-01-16 11:57:00,42.3,18.5,30.35,NW,308,6.3,8.3,38,0.00,,OVC,0.00,VWS V14.00,2013-01-16 16:57:00,
2013-01-16 11:58:00,42.3,18.5,30.35,WNW,284,5.4,6.3,38,0.00,,OVC,0.00,VWS V14.00,2013-01-16 16:58:00,
2013-01-16 11:59:00,42.4,18.6,30.35,WNW,286,8.1,8.1,38,0.00,,OVC,0.00,VWS V14.00,2013-01-16 16:59:00,
2013-01-16 12:00:00,42.4,18.6,30.35,WSW,253,5.4,8.1,38,0.00,,OVC,0.00,VWS V14.00,2013-01-16 17:00:00,
2013-01-16 12:01:00,42.6,18.8,30.35,West,278,7.6,7.6,38,0.00,,OVC,0.00,VWS V14.00,2013-01-16 17:01:00,
2013-01-16 12:02:00,42.6,18.8,30.35,WNW,286,4.0,7.6,38,0.00,,OVC,0.00,VWS V14.00,2013-01-16 17:02:00,
2013-01-16 12:03:00,42.8,19.0,30.32,NW,318,5.8,5.8,38,0.00,,OVC,0.00,VWS V14.00,2013-01-16 17:03:00,
2013-01-16 12:04:00,42.8,19.0,30.32,NNW,342,3.1,4.9,38,0.00,,OVC,0.00,VWS V14.00,2013-01-16 17:04:00,
2013-01-16 12:05:00,42.8,19.0,30.32,NW,317,4.0,4.9,38,0.00,,OVC,0.00,VWS V14.00,2013-01-16 17:05:00,
2013-01-16 12:06:00,43.0,19.1,30.32,North,9,4.9,5.4,38,0.00,,OVC,0.00,VWS V14.00,2013-01-16 17:06:00,
2013-01-16 12:07:00,43.0,19.1,30.32,SW,236,2.7,4.9,38,0.00,,OVC,0.00,VWS V14.00,2013-01-16 17:07:00,
2013-01-16 12:08:00,43.0,19.1,30.32,SW,232,2.2,4.0,38,0.00,,OVC,0.00,VWS V14.00,2013-01-16 17:08:00,
2013-01-16 12:09:00,43.0,18.5,30.32,North,350,2.7,4.0,37,0.00,,OVC,0.00,VWS V14.00,2013-01-16 17:09:00,
2013-01-16 12:10:00,43.0,18.5,30.32,NNE,24,4.0,4.0,37,0.00,,OVC,0.00,VWS V14.00,2013-01-16 17:10:00,
2013-01-16 12:11:00,43.0,18.5,30.32,NNW,331,5.8,5.8,37,0.00,,OVC,0.00,VWS V14.00,2013-01-16 17:11:00,
2013-01-16 12:12:00,43.0,18.5,30.32,NW,315,7.6,8.1,37,0.00,,OVC,0.00,VWS V14.00,2013-01-16 17:12:00,
2013-01-16 12:13:00,43.2,18.7,30.32,WNW,289,5.4,8.1,37,0.00,,OVC,0.00,VWS V14.00,2013-01-16 17:13:00,
2013-01-16 12:14:00,43.2,18.7,30.32,NW,326,5.4,5.4,37,0.00,,OVC,0.00,VWS V14.00,2013-01-16 17:14:00,
2013-01-16 12:15:00,43.2,18.7,30.32,NNE,29,6.3,6.3,37,0.00,,OVC,0.00,VWS V14.00,2013-01-16 17:15:00,
2013-01-16 12:16:00,43.3,18.8,30.32,North,11,5.8,7.6,37,0.00,,OVC,0.00,VWS V14.00,2013-01-16 17:16:00,
2013-01-16 12:17:00,43.3,18.8,30.32,North,0,3.6,7.6,37,0.00,,OVC,0.00,VWS V14.00,2013-01-16 17:17:00,
2013-01-16 12:18:00,43.5,19.0,30.32,North,10,4.9,7.2,37,0.00,,OVC,0.00,VWS V14.00,2013-01-16 17:18:00,
2013-01-16 12:19:00,43.5,18.4,30.32,North,350,8.1,8.1,36,0.00,,OVC,0.00,VWS V14.00,2013-01-16 17:19:00,
2013-01-16 12:20:00,43.5,18.4,30.32,NNW,345,3.6,8.1,36,0.00,,OVC,0.00,VWS V14.00,2013-01-16 17:20:00,
2013-01-16 12:21:00,43.5,18.4,30.32,North,0,6.3,6.7,36,0.00,,OVC,0.00,VWS V14.00,2013-01-16 17:21:00,
2013-01-16 12:22:00,43.7,18.5,30.32,NW,320,8.3,8.3,36,0.00,,OVC,0.00,VWS V14.00,2013-01-16 17:22:00,
2013-01-16 12:23:00,43.7,18.5,30.32,North,353,6.3,8.3,36,0.00,,OVC,0.00,VWS V14.00,2013-01-16 17:23:00,
2013-01-16 12:24:00,43.7,18.5,30.32,NNW,332,6.3,6.3,36,0.00,,OVC,0.00,VWS V14.00,2013-01-16 17:24:00,
2013-01-16 12:25:00,43.9,18.7,30.32,WNW,287,5.4,6.3,36,0.00,,OVC,0.00,VWS V14.00,2013-01-16 17:25:00,
2013-01-16 12:26:00,43.9,18.7,30.32,WNW,292,5.4,5.4,36,0.00,,OVC,0.00,VWS V14.00,2013-01-16 17:26:00,
2013-01-16 12:27:00,44.1,18.8,30.32,WNW,298,3.6,6.3,36,0.00,,OVC,0.00,VWS V14.00,2013-01-16 17:27:00,
2013-01-16 12:28:00,44.1,18.8,30.32,WNW,303,3.1,3.6,36,0.00,,OVC,0.00,VWS V14.00,2013-01-16 17:28:00,
2013-01-16 12:29:00,44.2,18.3,30.32,NNW,346,4.0,6.3,35,0.00,,OVC,0.00,VWS V14.00,2013-01-16 17:29:00,
2013-01-16 12:30:00,44.2,18.3,30.32,NNW,344,2.2,6.3,35,0.00,,OVC,0.00,VWS V14.00,2013-01-16 17:30:00,
2013-01-16 12:31:00,44.2,18.3,30.32,NNW,338,8.3,8.3,35,0.00,,OVC,0.00,VWS V14.00,2013-01-16 17:31:00,
2013-01-16 12:32:00,44.2,18.3,30.32,North,350,7.6,8.3,35,0.00,,OVC,0.00,VWS V14.00,2013-01-16 17:32:00,
2013-01-16 12:33:00,44.2,18.3,30.30,NNW,332,4.0,8.1,35,0.00,,OVC,0.00,VWS V14.00,2013-01-16 17:33:00,
2013-01-16 12:34:00,44.2,18.3,30.29,North,350,5.8,8.7,35,0.00,,OVC,0.00,VWS V14.00,2013-01-16 17:34:00,
2013-01-16 12:35:00,44.2,18.3,30.30,North,357,6.3,8.7,35,0.00,,OVC,0.00,VWS V14.00,2013-01-16 17:35:00,
2013-01-16 12:36:00,44.2,17.7,30.30,NW,321,7.6,7.6,34,0.00,,OVC,0.00,VWS V14.00,2013-01-16 17:36:00,
2013-01-16 12:37:00,44.4,17.8,30.30,NW,315,3.6,7.6,34,0.00,,OVC,0.00,VWS V14.00,2013-01-16 17:37:00,
2013-01-16 12:38:00,44.4,18.5,30.30,NNW,331,5.8,7.2,35,0.00,,OVC,0.00,VWS V14.00,2013-01-16 17:38:00,
2013-01-16 12:39:00,44.6,18.0,30.29,NNW,328,7.6,7.6,34,0.00,,OVC,0.00,VWS V14.00,2013-01-16 17:39:00,
2013-01-16 12:40:00,44.6,18.0,30.30,NNW,327,3.6,7.6,34,0.00,,OVC,0.00,VWS V14.00,2013-01-16 17:40:00,
2013-01-16 12:41:00,44.6,18.0,30.30,North,0,5.4,5.4,34,0.00,,OVC,0.00,VWS V14.00,2013-01-16 17:41:00,
2013-01-16 12:42:00,44.8,18.8,30.30,WNW,301,6.3,8.1,35,0.00,,OVC,0.00,VWS V14.00,2013-01-16 17:42:00,
2013-01-16 12:43:00,45.0,19.0,30.30,NW,318,5.4,10.5,35,0.00,,OVC,0.00,VWS V14.00,2013-01-16 17:43:00,
2013-01-16 12:44:00,45.1,19.1,30.29,NW,319,3.6,5.8,35,0.00,,OVC,0.00,VWS V14.00,2013-01-16 17:44:00,
2013-01-16 12:45:00,45.1,19.1,30.30,WNW,303,5.8,5.8,35,0.00,,OVC,0.00,VWS V14.00,2013-01-16 17:45:00,
2013-01-16 12:46:00,45.1,19.1,30.30,WNW,286,3.1,5.8,35,0.00,,OVC,0.00,VWS V14.00,2013-01-16 17:46:00,
2013-01-16 12:47:00,45.3,18.6,30.30,NNW,332,5.8,5.8,34,0.00,,OVC,0.00,VWS V14.00,2013-01-16 17:47:00,
2013-01-16 12:48:00,45.1,18.5,30.30,NNW,336,8.1,8.1,34,0.00,,OVC,0.00,VWS V14.00,2013-01-16 17:48:00,
2013-01-16 12:49:00,45.3,18.6,30.29,North,349,5.4,11.4,34,0.00,,OVC,0.00,VWS V14.00,2013-01-16 17:49:00,
2013-01-16 12:50:00,45.3,18.6,30.30,WNW,303,6.3,11.4,34,0.00,,OVC,0.00,VWS V14.00,2013-01-16 17:50:00,
2013-01-16 12:51:00,45.3,17.9,30.30,NNW,327,8.1,9.2,33,0.00,,OVC,0.00,VWS V14.00,2013-01-16 17:51:00,
2013-01-16 12:52:00,45.3,18.6,30.30,NNW,344,10.1,11.4,34,0.00,,OVC,0.00,VWS V14.00,2013-01-16 17:52:00,
2013-01-16 12:53:00,45.3,18.6,30.30,NW,325,4.0,10.1,34,0.00,,OVC,0.00,VWS V14.00,2013-01-16 17:53:00,
2013-01-16 12:54:00,45.3,18.6,30.29,WNW,301,7.6,8.3,34,0.00,,OVC,0.00,VWS V14.00,2013-01-16 17:54:00,
2013-01-16 12:55:00,45.5,18.8,30.30,WNW,299,6.3,8.7,34,0.00,,OVC,0.00,VWS V14.00,2013-01-16 17:55:00,
2013-01-16 12:56:00,45.5,18.8,30.30,West,280,5.4,10.1,34,0.00,,OVC,0.00,VWS V14.00,2013-01-16 17:56:00,
2013-01-16 12:57:00,45.5,18.8,30.30,WNW,290,5.4,6.3,34,0.00,,OVC,0.00,VWS V14.00,2013-01-16 17:57:00,
2013-01-16 12:58:00,45.7,18.9,30.30,NW,325,6.3,7.6,34,0.00,,OVC,0.00,VWS V14.00,2013-01-16 17:58:00,
2013-01-16 12:59:00,45.7,18.9,30.29,NNW,346,6.3,7.6,34,0.00,,OVC,0.00,VWS V14.00,2013-01-16 17:59:00,
2013-01-16 13:00:00,45.7,18.9,30.30,NNW,331,5.4,7.6,34,0.00,,OVC,0.00,VWS V14.00,2013-01-16 18:00:00,
2013-01-16 13:01:00,45.7,18.9,30.30,NNW,334,4.0,8.3,34,0.00,,OVC,0.00,VWS V14.00,2013-01-16 18:01:00,
2013-01-16 13:02:00,45.9,19.1,30.30,North,353,6.3,7.6,34,0.00,,OVC,0.00,VWS V14.00,2013-01-16 18:02:00,
2013-01-16 13:03:00,45.7,18.2,30.30,NNW,338,8.7,8.7,33,0.00,,OVC,0.00,VWS V14.00,2013-01-16 18:03:00,
2013-01-16 13:04:00,45.9,19.1,30.29,NW,304,7.6,8.7,34,0.00,,OVC,0.00,VWS V14.00,2013-01-16 18:04:00,
2013-01-16 13:05:00,45.9,19.1,30.30,WNW,284,5.4,8.7,34,0.00,,OVC,0.00,VWS V14.00,2013-01-16 18:05:00,
2013-01-16 13:06:00,45.9,18.4,30.30,West,280,5.8,7.6,33,0.00,,OVC,0.00,VWS V14.00,2013-01-16 18:06:00,
2013-01-16 13:07:00,45.9,18.4,30.30,North,0,8.1,8.1,33,0.00,,OVC,0.00,VWS V14.00,2013-01-16 18:07:00,
2013-01-16 13:08:00,46.0,18.6,30.30,NW,321,6.7,8.7,33,0.00,,OVC,0.00,VWS V14.00,2013-01-16 18:08:00,
2013-01-16 13:09:00,46.0,19.3,30.29,WNW,284,10.1,10.1,34,0.00,,OVC,0.00,VWS V14.00,2013-01-16 18:09:00,
2013-01-16 13:10:00,46.2,19.4,30.30,WNW,296,6.3,10.5,34,0.00,,OVC,0.00,VWS V14.00,2013-01-16 18:10:00,
2013-01-16 13:11:00,46.2,19.4,30.30,WNW,302,11.9,11.9,34,0.00,,OVC,0.00,VWS V14.00,2013-01-16 18:11:00,
2013-01-16 13:12:00,46.4,19.6,30.30,West,278,10.1,11.9,34,0.00,,OVC,0.00,VWS V14.00,2013-01-16 18:12:00,
2013-01-16 13:13:00,46.6,19.7,30.30,WNW,299,8.3,11.0,34,0.00,,OVC,0.00,VWS V14.00,2013-01-16 18:13:00,
2013-01-16 13:14:00,46.6,19.0,30.29,WNW,298,5.8,5.8,33,0.00,,OVC,0.00,VWS V14.00,2013-01-16 18:14:00,
2013-01-16 13:15:00,46.8,19.2,30.30,WNW,282,7.6,7.6,33,0.00,,OVC,0.00,VWS V14.00,2013-01-16 18:15:00,
2013-01-16 13:16:00,46.8,19.2,30.30,NNW,337,11.0,11.0,33,0.00,,OVC,0.00,VWS V14.00,2013-01-16 18:16:00,
2013-01-16 13:17:00,46.9,19.4,30.30,WNW,287,4.0,11.0,33,0.00,,OVC,0.00,VWS V14.00,2013-01-16 18:17:00,
2013-01-16 13:18:00,46.9,19.4,30.30,WNW,292,5.4,5.4,33,0.00,,OVC,0.00,VWS V14.00,2013-01-16 18:18:00,
2013-01-16 13:19:00,47.1,19.5,30.29,NW,310,8.1,8.1,33,0.00,,OVC,0.00,VWS V14.00,2013-01-16 18:19:00,
2013-01-16 13:20:00,47.1,19.5,30.30,NW,316,5.4,8.1,33,0.00,,OVC,0.00,VWS V14.00,2013-01-16 18:20:00,
2013-01-16 13:21:00,47.1,18.8,30.30,NNW,341,8.7,9.2,32,0.00,,OVC,0.00,VWS V14.00,2013-01-16 18:21:00,
2013-01-16 13:22:00,47.3,19.0,30.30,WNW,298,10.1,11.0,32,0.00,,OVC,0.00,VWS V14.00,2013-01-16 18:22:00,
2013-01-16 13:23:00,47.3,19.0,30.30,NNW,338,11.4,12.8,32,0.00,,OVC,0.00,VWS V14.00,2013-01-16 18:23:00,
2013-01-16 13:24:00,47.3,18.2,30.29,WNW,295,7.6,8.1,31,0.00,,OVC,0.00,VWS V14.00,2013-01-16 18:24:00,
2013-01-16 13:25:00,47.3,18.2,30.30,North,4,8.1,10.5,31,0.00,,OVC,0.00,VWS V14.00,2013-01-16 18:25:00,
2013-01-16 13:26:00,47.5,18.4,30.30,North,5,3.6,13.2,31,0.00,,OVC,0.00,VWS V14.00,2013-01-16 18:26:00,
2013-01-16 13:27:00,47.3,18.2,30.30,North,0,13.2,13.2,31,0.00,,OVC,0.00,VWS V14.00,2013-01-16 18:27:00,
2013-01-16 13:28:00,47.3,18.2,30.30,NNW,343,8.1,13.2,31,0.00,,OVC,0.00,VWS V14.00,2013-01-16 18:28:00,
2013-01-16 13:29:00,47.3,18.2,30.29,NW,314,11.0,11.0,31,0.00,,OVC,0.00,VWS V14.00,2013-01-16 18:29:00,
2013-01-16 13:30:00,47.3,18.2,30.30,North,353,8.7,12.8,31,0.00,,OVC,0.00,VWS V14.00,2013-01-16 18:30:00,
2013-01-16 13:31:00,47.5,18.4,30.30,NW,322,8.3,8.7,31,0.00,,OVC,0.00,VWS V14.00,2013-01-16 18:31:00,
2013-01-16 13:32:00,47.5,18.4,30.30,NW,311,11.0,11.0,31,0.00,,OVC,0.00,VWS V14.00,2013-01-16 18:32:00,
2013-01-16 13:33:00,47.7,18.5,30.26,WNW,301,8.3,11.0,31,0.00,,OVC,0.00,VWS V14.00,2013-01-16 18:33:00,
2013-01-16 13:34:00,47.7,18.5,30.27,North,353,13.6,14.5,31,0.00,,OVC,0.00,VWS V14.00,2013-01-16 18:34:00,
2013-01-16 13:35:00,47.7,17.8,30.26,NNE,12,10.5,14.5,30,0.00,,OVC,0.00,VWS V14.00,2013-01-16 18:35:00,
2013-01-16 13:36:00,47.7,18.5,30.26,WNW,298,8.3,10.5,31,0.00,,OVC,0.00,VWS V14.00,2013-01-16 18:36:00,
2013-01-16 13:37:00,47.7,17.8,30.26,NNW,327,8.7,10.5,30,0.00,,OVC,0.00,VWS V14.00,2013-01-16 18:37:00,
2013-01-16 13:38:00,47.7,17.8,30.26,NW,307,10.1,11.0,30,0.00,,OVC,0.00,VWS V14.00,2013-01-16 18:38:00,
2013-01-16 13:39:00,47.7,17.8,30.27,NNW,341,10.5,10.5,30,0.00,,OVC,0.00,VWS V14.00,2013-01-16 18:39:00,
2013-01-16 13:40:00,47.7,17.8,30.26,North,8,8.3,10.5,30,0.00,,OVC,0.00,VWS V14.00,2013-01-16 18:40:00,
2013-01-16 13:41:00,47.7,17.8,30.26,NW,307,15.4,15.4,30,0.00,,OVC,0.00,VWS V14.00,2013-01-16 18:41:00,
2013-01-16 13:42:00,47.7,17.8,30.26,NW,315,10.1,15.4,30,0.00,,OVC,0.00,VWS V14.00,2013-01-16 18:42:00,
2013-01-16 13:43:00,47.8,17.9,30.26,NW,316,8.1,10.1,30,0.00,,OVC,0.00,VWS V14.00,2013-01-16 18:43:00,
2013-01-16 13:44:00,47.8,17.9,30.27,NW,321,9.6,11.0,30,0.00,,OVC,0.00,VWS V14.00,2013-01-16 18:44:00,
2013-01-16 13:45:00,47.8,17.9,30.26,WNW,300,10.5,12.3,30,0.00,,OVC,0.00,VWS V14.00,2013-01-16 18:45:00,
2013-01-16 13:46:00,47.8,17.9,30.26,NW,311,10.5,10.5,30,0.00,,OVC,0.00,VWS V14.00,2013-01-16 18:46:00,
2013-01-16 13:47:00,48.0,18.1,30.26,WNW,288,9.6,10.5,30,0.00,,OVC,0.00,VWS V14.00,2013-01-16 18:47:00,
2013-01-16 13:48:00,48.0,18.1,30.26,NW,320,8.1,9.6,30,0.00,,OVC,0.00,VWS V14.00,2013-01-16 18:48:00,
2013-01-16 13:49:00,48.0,18.1,30.27,NNW,340,6.3,8.3,30,0.00,,OVC,0.00,VWS V14.00,2013-01-16 18:49:00,
2013-01-16 13:50:00,48.0,18.1,30.26,NW,316,11.0,11.0,30,0.00,,OVC,0.00,VWS V14.00,2013-01-16 18:50:00,
2013-01-16 13:51:00,48.0,17.3,30.26,NNW,334,8.1,13.2,29,0.00,,OVC,0.00,VWS V14.00,2013-01-16 18:51:00,
2013-01-16 13:52:00,48.0,17.3,30.26,WNW,302,13.2,13.2,29,0.00,,OVC,0.00,VWS V14.00,2013-01-16 18:52:00,
2013-01-16 13:53:00,48.0,17.3,30.26,WNW,293,8.7,13.2,29,0.00,,OVC,0.00,VWS V14.00,2013-01-16 18:53:00,
2013-01-16 13:54:00,48.0,17.3,30.27,NNW,332,6.3,12.3,29,0.00,,OVC,0.00,VWS V14.00,2013-01-16 18:54:00,
2013-01-16 13:55:00,48.0,17.3,30.26,NW,321,6.3,12.3,29,0.00,,OVC,0.00,VWS V14.00,2013-01-16 18:55:00,
2013-01-16 13:56:00,48.2,17.5,30.26,NW,312,7.6,7.6,29,0.00,,OVC,0.00,VWS V14.00,2013-01-16 18:56:00,
2013-01-16 13:57:00,48.2,17.5,30.26,NW,304,6.3,8.7,29,0.00,,OVC,0.00,VWS V14.00,2013-01-16 18:57:00,
2013-01-16 13:58:00,48.2,17.5,30.26,WNW,296,4.9,6.3,29,0.00,,OVC,0.00,VWS V14.00,2013-01-16 18:58:00,
2013-01-16 13:59:00,48.4,17.6,30.27,WNW,299,9.6,9.6,29,0.00,,OVC,0.00,VWS V14.00,2013-01-16 18:59:00,
2013-01-16 14:00:00,48.4,17.6,30.26,NW,319,10.1,10.1,29,0.00,,OVC,0.00,VWS V14.00,2013-01-16 19:00:00,
2013-01-16 14:01:00,48.4,17.6,30.26,WNW,283,11.0,11.0,29,0.00,,OVC,0.00,VWS V14.00,2013-01-16 19:01:00,
2013-01-16 14:02:00,48.6,17.8,30.26,NW,319,8.1,11.0,29,0.00,,OVC,0.00,VWS V14.00,2013-01-16 19:02:00,
2013-01-16 14:03:00,48.6,17.8,30.26,NW,320,8.3,8.3,29,0.00,,OVC,0.00,VWS V14.00,2013-01-16 19:03:00,
2013-01-16 14:04:00,48.7,17.9,30.27,WNW,282,4.0,4.0,29,0.00,,OVC,0.00,VWS V14.00,2013-01-16 19:04:00,
2013-01-16 14:05:00,48.7,17.9,30.26,NNW,339,5.4,13.2,29,0.00,,OVC,0.00,VWS V14.00,2013-01-16 19:05:00,
2013-01-16 14:06:00,48.7,17.9,30.26,North,353,5.8,11.9,29,0.00,,OVC,0.00,VWS V14.00,2013-01-16 19:06:00,
2013-01-16 14:07:00,48.7,17.9,30.26,NNW,331,10.1,10.1,29,0.00,,OVC,0.00,VWS V14.00,2013-01-16 19:07:00,
2013-01-16 14:08:00,48.7,17.9,30.26,NE,39,8.3,10.1,29,0.00,,OVC,0.00,VWS V14.00,2013-01-16 19:08:00,
2013-01-16 14:09:00,48.7,17.9,30.27,WNW,288,5.8,8.1,29,0.00,,OVC,0.00,VWS V14.00,2013-01-16 19:09:00,
2013-01-16 14:10:00,48.7,17.9,30.26,North,353,11.0,11.0,29,0.00,,OVC,0.00,VWS V14.00,2013-01-16 19:10:00,
2013-01-16 14:11:00,48.7,17.9,30.26,WNW,303,7.6,11.0,29,0.00,,OVC,0.00,VWS V14.00,2013-01-16 19:11:00,
2013-01-16 14:12:00,48.7,17.9,30.26,WNW,284,3.1,8.1,29,0.00,,OVC,0.00,VWS V14.00,2013-01-16 19:12:00,
2013-01-16 14:13:00,48.7,17.1,30.26,NNW,330,7.6,7.6,28,0.00,,OVC,0.00,VWS V14.00,2013-01-16 19:13:00,
2013-01-16 14:14:00,48.7,17.1,30.27,North,353,5.8,8.3,28,0.00,,OVC,0.00,VWS V14.00,2013-01-16 19:14:00,
2013-01-16 14:15:00,48.7,17.1,30.26,NW,319,7.6,10.1,28,0.00,,OVC,0.00,VWS V14.00,2013-01-16 19:15:00,
2013-01-16 14:16:00,48.9,18.1,30.26,NW,324,11.9,11.9,29,0.00,,OVC,0.00,VWS V14.00,2013-01-16 19:16:00,
2013-01-16 14:17:00,48.9,17.3,30.26,WNW,290,6.3,11.9,28,0.00,,OVC,0.00,VWS V14.00,2013-01-16 19:17:00,
2013-01-16 14:18:00,48.7,17.1,30.26,NNW,341,5.4,6.3,28,0.00,,OVC,0.00,VWS V14.00,2013-01-16 19:18:00,
2013-01-16 14:19:00,48.9,17.3,30.27,WNW,303,11.9,11.9,28,0.00,,OVC,0.00,VWS V14.00,2013-01-16 19:19:00,
2013-01-16 14:20:00,48.9,17.3,30.26,NW,317,8.3,11.9,28,0.00,,OVC,0.00,VWS V14.00,2013-01-16 19:20:00,
2013-01-16 14:21:00,48.9,17.3,30.26,NNW,342,10.5,10.5,28,0.00,,OVC,0.00,VWS V14.00,2013-01-16 19:21:00,
2013-01-16 14:22:00,48.9,17.3,30.26,NNW,338,5.4,10.5,28,0.00,,OVC,0.00,VWS V14.00,2013-01-16 19:22:00,
2013-01-16 14:23:00,48.9,17.3,30.26,WNW,282,8.1,8.7,28,0.00,,OVC,0.00,VWS V14.00,2013-01-16 19:23:00,
2013-01-16 14:24:00,48.9,17.3,30.27,NW,305,8.7,10.5,28,0.00,,OVC,0.00,VWS V14.00,2013-01-16 19:24:00,
2013-01-16 14:25:00,49.1,17.4,30.26,NNW,340,8.1,10.5,28,0.00,,OVC,0.00,VWS V14.00,2013-01-16 19:25:00,
2013-01-16 14:26:00,49.1,17.4,30.26,WNW,284,10.1,10.1,28,0.00,,OVC,0.00,VWS V14.00,2013-01-16 19:26:00,
2013-01-16 14:27:00,49.1,17.4,30.26,West,280,5.8,10.1,28,0.00,,OVC,0.00,VWS V14.00,2013-01-16 19:27:00,
2013-01-16 14:28:00,48.9,17.3,30.26,NNW,342,3.6,9.2,28,0.00,,OVC,0.00,VWS V14.00,2013-01-16 19:28:00,
2013-01-16 14:29:00,49.1,17.4,30.27,NW,305,8.7,8.7,28,0.00,,OVC,0.00,VWS V14.00,2013-01-16 19:29:00,
2013-01-16 14:30:00,49.1,17.4,30.26,NW,323,8.3,11.0,28,0.00,,OVC,0.00,VWS V14.00,2013-01-16 19:30:00,
2013-01-16 14:31:00,48.9,17.3,30.26,NNE,16,12.8,12.8,28,0.00,,OVC,0.00,VWS V14.00,2013-01-16 19:31:00,
2013-01-16 14:32:00,48.9,17.3,30.26,NW,323,10.1,12.8,28,0.00,,OVC,0.00,VWS V14.00,2013-01-16 19:32:00,
2013-01-16 14:33:00,48.9,17.3,30.26,WNW,287,6.7,10.1,28,0.00,,OVC,0.00,VWS V14.00,2013-01-16 19:33:00,
2013-01-16 14:34:00,48.9,17.3,30.27,NW,309,3.6,7.6,28,0.00,,OVC,0.00,VWS V14.00,2013-01-16 19:34:00,
2013-01-16 14:35:00,49.1,17.4,30.26,WNW,282,5.4,7.6,28,0.00,,OVC,0.00,VWS V14.00,2013-01-16 19:35:00,
2013-01-16 14:36:00,49.1,17.4,30.26,North,350,3.6,6.3,28,0.00,,OVC,0.00,VWS V14.00,2013-01-16 19:36:00,
2013-01-16 14:37:00,49.1,17.4,30.26,NW,307,8.7,10.1,28,0.00,,OVC,0.00,VWS V14.00,2013-01-16 19:37:00,
2013-01-16 14:38:00,49.1,17.4,30.26,NNW,328,8.1,8.7,28,0.00,,OVC,0.00,VWS V14.00,2013-01-16 19:38:00,
2013-01-16 14:39:00,49.1,17.4,30.27,NNW,344,8.3,8.7,28,0.00,,OVC,0.00,VWS V14.00,2013-01-16 19:39:00,
2013-01-16 14:40:00,49.1,17.4,30.26,North,0,6.3,10.5,28,0.00,,OVC,0.00,VWS V14.00,2013-01-16 19:40:00,
2013-01-16 14:41:00,49.1,17.4,30.26,North,0,8.3,10.1,28,0.00,,OVC,0.00,VWS V14.00,2013-01-16 19:41:00,
2013-01-16 14:42:00,49.1,17.4,30.26,North,3,5.8,8.3,28,0.00,,OVC,0.00,VWS V14.00,2013-01-16 19:42:00,
2013-01-16 14:43:00,49.1,17.4,30.26,North,11,8.1,9.2,28,0.00,,OVC,0.00,VWS V14.00,2013-01-16 19:43:00,
2013-01-16 14:44:00,49.1,17.4,30.27,NNW,343,6.3,6.3,28,0.00,,OVC,0.00,VWS V14.00,2013-01-16 19:44:00,
2013-01-16 14:45:00,49.1,17.4,30.26,NW,307,4.0,6.3,28,0.00,,OVC,0.00,VWS V14.00,2013-01-16 19:45:00,
2013-01-16 14:46:00,49.1,17.4,30.26,WNW,290,8.3,11.0,28,0.00,,OVC,0.00,VWS V14.00,2013-01-16 19:46:00,
2013-01-16 14:47:00,49.3,17.6,30.26,West,277,8.1,9.6,28,0.00,,OVC,0.00,VWS V14.00,2013-01-16 19:47:00,
2013-01-16 14:48:00,49.3,17.6,30.24,NNE,16,7.6,8.3,28,0.00,,OVC,0.00,VWS V14.00,2013-01-16 19:48:00,
2013-01-16 14:49:00,49.5,17.7,30.24,NNW,331,12.8,12.8,28,0.00,,OVC,0.00,VWS V14.00,2013-01-16 19:49:00,
2013-01-16 14:50:00,49.5,17.7,30.24,NNE,12,5.8,12.8,28,0.00,,OVC,0.00,VWS V14.00,2013-01-16 19:50:00,
2013-01-16 14:51:00,49.5,17.7,30.24,NNW,348,8.3,8.3,28,0.00,,OVC,0.00,VWS V14.00,2013-01-16 19:51:00,
2013-01-16 14:52:00,49.5,17.7,30.24,WNW,293,5.8,10.1,28,0.00,,OVC,0.00,VWS V14.00,2013-01-16 19:52:00,
2013-01-16 14:53:00,49.5,17.7,30.24,WNW,287,5.8,8.7,28,0.00,,OVC,0.00,VWS V14.00,2013-01-16 19:53:00,
2013-01-16 14:54:00,49.5,17.7,30.24,WNW,296,8.3,8.7,28,0.00,,OVC,0.00,VWS V14.00,2013-01-16 19:54:00,
2013-01-16 14:55:00,49.6,17.9,30.24,WNW,284,6.3,8.7,28,0.00,,OVC,0.00,VWS V14.00,2013-01-16 19:55:00,
2013-01-16 14:56:00,49.6,17.9,30.24,West,267,6.3,12.3,28,0.00,,OVC,0.00,VWS V14.00,2013-01-16 19:56:00,
2013-01-16 14:57:00,49.6,17.9,30.24,WNW,302,11.0,12.8,28,0.00,,OVC,0.00,VWS V14.00,2013-01-16 19:57:00,
2013-01-16 14:58:00,49.8,18.0,30.24,NNE,23,5.8,11.0,28,0.00,,OVC,0.00,VWS V14.00,2013-01-16 19:58:00,
2013-01-16 14:59:00,49.8,18.0,30.24,North,353,8.1,10.1,28,0.00,,OVC,0.00,VWS V14.00,2013-01-16 19:59:00,
2013-01-16 15:00:00,50.0,18.2,30.24,WNW,299,4.0,10.1,28,0.00,,OVC,0.00,VWS V14.00,2013-01-16 20:00:00,
2013-01-16 15:01:00,49.8,18.0,30.24,NNE,19,6.3,7.6,28,0.00,,OVC,0.00,VWS V14.00,2013-01-16 20:01:00,
2013-01-16 15:02:00,49.8,18.0,30.24,NNW,339,8.3,8.7,28,0.00,,OVC,0.00,VWS V14.00,2013-01-16 20:02:00,
2013-01-16 15:03:00,50.0,18.2,30.24,NW,320,10.5,10.5,28,0.00,,OVC,0.00,VWS V14.00,2013-01-16 20:03:00,
2013-01-16 15:04:00,50.0,18.2,30.24,NW,310,10.1,15.0,28,0.00,,OVC,0.00,VWS V14.00,2013-01-16 20:04:00,
2013-01-16 15:05:00,50.0,18.2,30.24,NNW,327,5.8,15.0,28,0.00,,OVC,0.00,VWS V14.00,2013-01-16 20:05:00,
2013-01-16 15:06:00,50.0,18.2,30.24,NW,308,6.3,8.3,28,0.00,,OVC,0.00,VWS V14.00,2013-01-16 20:06:00,
2013-01-16 15:07:00,50.2,18.4,30.24,NW,321,12.3,12.8,28,0.00,,OVC,0.00,VWS V14.00,2013-01-16 20:07:00,
2013-01-16 15:08:00,50.2,18.4,30.24,NW,308,9.6,12.8,28,0.00,,OVC,0.00,VWS V14.00,2013-01-16 20:08:00,
2013-01-16 15:09:00,50.2,17.5,30.24,North,349,5.4,8.7,27,0.00,,OVC,0.00,VWS V14.00,2013-01-16 20:09:00,
2013-01-16 15:10:00,50.2,17.5,30.24,NW,312,5.4,8.7,27,0.00,,OVC,0.00,VWS V14.00,2013-01-16 20:10:00,
2013-01-16 15:11:00,50.2,17.5,30.24,NW,307,3.6,5.4,27,0.00,,OVC,0.00,VWS V14.00,2013-01-16 20:11:00,
2013-01-16 15:12:00,50.2,17.5,30.24,North,353,16.8,16.8,27,0.00,,OVC,0.00,VWS V14.00,2013-01-16 20:12:00,
2013-01-16 15:13:00,50.2,17.5,30.24,NNW,327,11.0,16.8,27,0.00,,OVC,0.00,VWS V14.00,2013-01-16 20:13:00,
2013-01-16 15:14:00,50.2,17.5,30.24,WNW,289,8.3,8.3,27,0.00,,OVC,0.00,VWS V14.00,2013-01-16 20:14:00,
2013-01-16 15:15:00,50.2,17.5,30.24,NNW,341,5.4,14.5,27,0.00,,OVC,0.00,VWS V14.00,2013-01-16 20:15:00,
2013-01-16 15:16:00,50.2,17.5,30.24,NW,325,8.7,8.7,27,0.00,,OVC,0.00,VWS V14.00,2013-01-16 20:16:00,
2013-01-16 15:17:00,50.2,17.5,30.24,WNW,291,13.2,13.2,27,0.00,,OVC,0.00,VWS V14.00,2013-01-16 20:17:00,
2013-01-16 15:18:00,50.2,17.5,30.24,NW,321,9.2,15.0,27,0.00,,OVC,0.00,VWS V14.00,2013-01-16 20:18:00,
2013-01-16 15:19:00,50.2,17.5,30.24,NW,312,15.0,15.0,27,0.00,,OVC,0.00,VWS V14.00,2013-01-16 20:19:00,
2013-01-16 15:20:00,50.2,17.5,30.24,NW,310,6.3,15.0,27,0.00,,OVC,0.00,VWS V14.00,2013-01-16 20:20:00,
2013-01-16 15:21:00,50.4,17.7,30.24,WNW,282,11.0,15.0,27,0.00,,OVC,0.00,VWS V14.00,2013-01-16 20:21:00,
2013-01-16 15:22:00,50.4,17.7,30.24,NW,322,8.1,13.2,27,0.00,,OVC,0.00,VWS V14.00,2013-01-16 20:22:00,
2013-01-16 15:23:00,50.4,17.7,30.24,WNW,301,10.5,11.4,27,0.00,,OVC,0.00,VWS V14.00,2013-01-16 20:23:00,
2013-01-16 15:24:00,50.5,17.8,30.24,NW,319,12.3,12.3,27,0.00,,OVC,0.00,VWS V14.00,2013-01-16 20:24:00,
2013-01-16 15:25:00,50.5,17.8,30.24,WNW,284,9.2,12.3,27,0.00,,OVC,0.00,VWS V14.00,2013-01-16 20:25:00,
2013-01-16 15:26:00,50.5,17.8,30.24,West,265,8.7,11.0,27,0.00,,OVC,0.00,VWS V14.00,2013-01-16 20:26:00,
2013-01-16 15:27:00,50.5,17.8,30.24,NNW,331,7.6,8.7,27,0.00,,OVC,0.00,VWS V14.00,2013-01-16 20:27:00,
2013-01-16 15:28:00,50.5,17.8,30.24,NNW,348,8.3,8.3,27,0.00,,OVC,0.00,VWS V14.00,2013-01-16 20:28:00,
2013-01-16 15:29:00,50.4,17.7,30.24,NW,306,8.1,8.1,27,0.00,,OVC,0.00,VWS V14.00,2013-01-16 20:29:00,
2013-01-16 15:30:00,50.5,17.8,30.24,WNW,302,13.2,13.2,27,0.00,,OVC,0.00,VWS V14.00,2013-01-16 20:30:00,
2013-01-16 15:31:00,50.4,17.7,30.24,NNW,327,8.7,15.4,27,0.00,,OVC,0.00,VWS V14.00,2013-01-16 20:31:00,
2013-01-16 15:32:00,50.5,17.8,30.24,NW,324,10.1,13.2,27,0.00,,OVC,0.00,VWS V14.00,2013-01-16 20:32:00,
2013-01-16 15:33:00,50.4,17.7,30.24,NW,310,10.1,11.4,27,0.00,,OVC,0.00,VWS V14.00,2013-01-16 20:33:00,
2013-01-16 15:34:00,50.4,17.7,30.24,NNW,337,13.2,13.2,27,0.00,,OVC,0.00,VWS V14.00,2013-01-16 20:34:00,
2013-01-16 15:35:00,50.4,17.7,30.24,NW,314,9.6,13.2,27,0.00,,OVC,0.00,VWS V14.00,2013-01-16 20:35:00,
2013-01-16 15:36:00,50.2,17.5,30.24,West,276,10.5,12.8,27,0.00,,OVC,0.00,VWS V14.00,2013-01-16 20:36:00,
2013-01-16 15:37:00,50.2,17.5,30.24,WNW,299,11.9,11.9,27,0.00,,OVC,0.00,VWS V14.00,2013-01-16 20:37:00,
2013-01-16 15:38:00,50.2,17.5,30.24,WNW,283,7.6,11.9,27,0.00,,OVC,0.00,VWS V14.00,2013-01-16 20:38:00,
2013-01-16 15:39:00,50.2,17.5,30.24,WNW,303,11.0,12.8,27,0.00,,OVC,0.00,VWS V14.00,2013-01-16 20:39:00,
2013-01-16 15:40:00,50.2,17.5,30.24,WNW,291,7.6,12.8,27,0.00,,OVC,0.00,VWS V14.00,2013-01-16 20:40:00,
2013-01-16 15:41:00,50.2,17.5,30.24,North,10,10.5,11.0,27,0.00,,OVC,0.00,VWS V14.00,2013-01-16 20:41:00,
2013-01-16 15:42:00,50.4,17.7,30.24,NNW,340,10.5,15.4,27,0.00,,OVC,0.00,VWS V14.00,2013-01-16 20:42:00,
2013-01-16 15:43:00,50.2,17.5,30.24,North,353,11.0,11.0,27,0.00,,OVC,0.00,VWS V14.00,2013-01-16 20:43:00,
2013-01-16 15:44:00,50.2,17.5,30.24,North,0,6.3,7.6,27,0.00,,OVC,0.00,VWS V14.00,2013-01-16 20:44:00,
2013-01-16 15:45:00,50.2,17.5,30.24,NNW,331,7.6,8.1,27,0.00,,OVC,0.00,VWS V14.00,2013-01-16 20:45:00,
2013-01-16 15:46:00,50.2,17.5,30.24,WNW,296,5.8,12.3,27,0.00,,OVC,0.00,VWS V14.00,2013-01-16 20:46:00,
2013-01-16 15:47:00,50.2,17.5,30.24,WNW,300,8.3,12.3,27,0.00,,OVC,0.00,VWS V14.00,2013-01-16 20:47:00,
2013-01-16 15:48:00,50.0,17.4,30.24,North,6,7.2,10.1,27,0.00,,OVC,0.00,VWS V14.00,2013-01-16 20:48:00,
2013-01-16 15:49:00,50.0,17.4,30.24,North,0,13.2,15.4,27,0.00,,OVC,0.00,VWS V14.00,2013-01-16 20:49:00,
2013-01-16 15:50:00,50.2,17.5,30.24,NNW,328,14.1,15.4,27,0.00,,OVC,0.00,VWS V14.00,2013-01-16 20:50:00,
2013-01-16 15:51:00,50.2,17.5,30.24,NW,314,10.5,14.1,27,0.00,,OVC,0.00,VWS V14.00,2013-01-16 20:51:00,
2013-01-16 15:52:00,50.2,17.5,30.24,WNW,295,8.1,14.5,27,0.00,,OVC,0.00,VWS V14.00,2013-01-16 20:52:00,
2013-01-16 15:53:00,50.2,17.5,30.24,WNW,286,15.4,15.4,27,0.00,,OVC,0.00,VWS V14.00,2013-01-16 20:53:00,
2013-01-16 15:54:00,50.2,17.5,30.24,WNW,291,7.6,8.7,27,0.00,,OVC,0.00,VWS V14.00,2013-01-16 20:54:00,
2013-01-16 15:55:00,50.2,17.5,30.24,NW,315,5.8,8.7,27,0.00,,OVC,0.00,VWS V14.00,2013-01-16 20:55:00,
2013-01-16 15:56:00,50.2,17.5,30.24,WNW,293,12.8,12.8,27,0.00,,OVC,0.00,VWS V14.00,2013-01-16 20:56:00,
2013-01-16 15:57:00,50.4,17.7,30.24,NW,313,13.2,13.2,27,0.00,,OVC,0.00,VWS V14.00,2013-01-16 20:57:00,
2013-01-16 15:58:00,50.4,17.7,30.24,NW,312,10.1,13.2,27,0.00,,OVC,0.00,VWS V14.00,2013-01-16 20:58:00,
2013-01-16 15:59:00,50.4,17.7,30.24,NW,310,11.0,12.3,27,0.00,,OVC,0.00,VWS V14.00,2013-01-16 20:59:00,
2013-01-16 16:00:00,50.4,17.7,30.24,NNW,331,6.3,13.2,27,0.00,,OVC,0.00,VWS V14.00,2013-01-16 21:00:00,
2013-01-16 16:01:00,50.4,17.7,30.24,NNW,335,6.3,9.2,27,0.00,,OVC,0.00,VWS V14.00,2013-01-16 21:01:00,
2013-01-16 16:02:00,50.4,17.7,30.24,WNW,300,5.4,12.3,27,0.00,,OVC,0.00,VWS V14.00,2013-01-16 21:02:00,
2013-01-16 16:03:00,50.4,17.7,30.24,North,353,8.7,12.8,27,0.00,,OVC,0.00,VWS V14.00,2013-01-16 21:03:00,
2013-01-16 16:04:00,50.4,17.7,30.24,WNW,303,4.0,5.4,27,0.00,,OVC,0.00,VWS V14.00,2013-01-16 21:04:00,
2013-01-16 16:05:00,50.4,17.7,30.24,NW,309,5.8,8.1,27,0.00,,OVC,0.00,VWS V14.00,2013-01-16 21:05:00,
2013-01-16 16:06:00,50.4,17.7,30.24,WNW,290,8.1,8.1,27,0.00,,OVC,0.00,VWS V14.00,2013-01-16 21:06:00,
2013-01-16 16:07:00,50.4,17.7,30.24,WNW,301,8.3,11.0,27,0.00,,OVC,0.00,VWS V14.00,2013-01-16 21:07:00,
2013-01-16 16:08:00,50.4,17.7,30.24,West,268,4.0,8.3,27,0.00,,OVC,0.00,VWS V14.00,2013-01-16 21:08:00,
2013-01-16 16:09:00,50.4,17.7,30.24,NNW,327,10.1,14.5,27,0.00,,OVC,0.00,VWS V14.00,2013-01-16 21:09:00,
2013-01-16 16:10:00,50.5,17.8,30.24,West,266,9.6,14.5,27,0.00,,OVC,0.00,VWS V14.00,2013-01-16 21:10:00,
2013-01-16 16:11:00,50.5,17.8,30.24,WNW,294,8.7,12.3,27,0.00,,OVC,0.00,VWS V14.00,2013-01-16 21:11:00,
2013-01-16 16:12:00,50.5,17.8,30.24,NW,309,5.4,9.6,27,0.00,,OVC,0.00,VWS V14.00,2013-01-16 21:12:00,
2013-01-16 16:13:00,50.5,17.8,30.24,NW,307,8.3,8.3,27,0.00,,OVC,0.00,VWS V14.00,2013-01-16 21:13:00,
2013-01-16 16:14:00,50.5,17.8,30.24,NNW,333,8.3,11.4,27,0.00,,OVC,0.00,VWS V14.00,2013-01-16 21:14:00,
2013-01-16 16:15:00,50.5,17.8,30.24,NW,324,8.1,11.4,27,0.00,,OVC,0.00,VWS V14.00,2013-01-16 21:15:00,
2013-01-16 16:16:00,50.5,17.8,30.24,NW,314,9.6,10.5,27,0.00,,OVC,0.00,VWS V14.00,2013-01-16 21:16:00,
2013-01-16 16:17:00,50.5,17.8,30.24,WNW,300,6.3,11.0,27,0.00,,OVC,0.00,VWS V14.00,2013-01-16 21:17:00,
2013-01-16 16:18:00,50.5,17.8,30.24,NNW,345,8.1,13.2,27,0.00,,OVC,0.00,VWS V14.00,2013-01-16 21:18:00,
2013-01-16 16:19:00,50.5,17.8,30.24,NNW,340,8.7,8.7,27,0.00,,OVC,0.00,VWS V14.00,2013-01-16 21:19:00,
2013-01-16 16:20:00,50.5,17.8,30.24,NNW,332,12.8,12.8,27,0.00,,OVC,0.00,VWS V14.00,2013-01-16 21:20:00,
2013-01-16 16:21:00,50.4,16.8,30.24,NW,321,11.0,12.8,26,0.00,,OVC,0.00,VWS V14.00,2013-01-16 21:21:00,
2013-01-16 16:22:00,50.4,16.8,30.24,North,353,8.1,12.3,26,0.00,,OVC,0.00,VWS V14.00,2013-01-16 21:22:00,
2013-01-16 16:23:00,50.4,16.8,30.24,WNW,291,10.5,10.5,26,0.00,,OVC,0.00,VWS V14.00,2013-01-16 21:23:00,
2013-01-16 16:24:00,50.4,16.8,30.24,WNW,290,8.7,8.7,26,0.00,,OVC,0.00,VWS V14.00,2013-01-16 21:24:00,
2013-01-16 16:25:00,50.4,16.8,30.24,NW,306,8.3,10.1,26,0.00,,OVC,0.00,VWS V14.00,2013-01-16 21:25:00,
2013-01-16 16:26:00,50.4,16.8,30.24,NW,304,5.4,8.3,26,0.00,,OVC,0.00,VWS V14.00,2013-01-16 21:26:00,
2013-01-16 16:27:00,50.4,16.8,30.24,NNW,329,8.3,11.4,26,0.00,,OVC,0.00,VWS V14.00,2013-01-16 21:27:00,
2013-01-16 16:28:00,50.4,16.8,30.24,WNW,302,11.0,11.0,26,0.00,,OVC,0.00,VWS V14.00,2013-01-16 21:28:00,
2013-01-16 16:29:00,50.5,17.0,30.24,WNW,292,13.2,13.2,26,0.00,,OVC,0.00,VWS V14.00,2013-01-16 21:29:00,
2013-01-16 16:30:00,50.5,16.9,30.24,NW,326,10.5,13.2,26,0.00,,OVC,0.00,VWS V14.00,2013-01-16 21:30:00,
2013-01-16 16:31:00,50.5,16.9,30.24,WNW,292,12.3,12.3,26,0.00,,OVC,0.00,VWS V14.00,2013-01-16 21:31:00,
2013-01-16 16:32:00,50.5,16.9,30.24,NW,307,11.4,15.0,26,0.00,,OVC,0.00,VWS V14.00,2013-01-16 21:32:00,
2013-01-16 16:33:00,50.5,16.9,30.21,NW,312,12.3,12.3,26,0.00,,OVC,0.00,VWS V14.00,2013-01-16 21:33:00,
2013-01-16 16:34:00,50.4,16.8,30.21,NW,308,7.6,12.8,26,0.00,,OVC,0.00,VWS V14.00,2013-01-16 21:34:00,
2013-01-16 16:35:00,50.4,14.9,30.21,NNW,330,7.6,12.8,24,0.00,,OVC,0.00,VWS V14.00,2013-01-16 21:35:00,
2013-01-16 16:36:00,50.4,14.9,30.21,NW,326,7.6,11.0,24,0.00,,OVC,0.00,VWS V14.00,2013-01-16 21:36:00,
2013-01-16 16:37:00,50.4,14.9,30.21,NW,319,11.0,11.0,24,0.00,,OVC,0.00,VWS V14.00,2013-01-16 21:37:00,
2013-01-16 16:38:00,50.2,16.6,30.21,NW,313,15.0,15.0,26,0.00,,OVC,0.00,VWS V14.00,2013-01-16 21:38:00,
2013-01-16 16:39:00,50.2,14.8,30.21,NW,305,11.0,12.3,24,0.00,,OVC,0.00,VWS V14.00,2013-01-16 21:39:00,
2013-01-16 16:40:00,50.2,14.8,30.21,NNW,337,8.7,12.3,24,0.00,,OVC,0.00,VWS V14.00,2013-01-16 21:40:00,
2013-01-16 16:41:00,50.2,14.8,30.21,WNW,289,10.1,10.1,24,0.00,,OVC,0.00,VWS V14.00,2013-01-16 21:41:00,
2013-01-16 16:42:00,50.2,14.8,30.21,WNW,294,11.9,11.9,24,0.00,,OVC,0.00,VWS V14.00,2013-01-16 21:42:00,
2013-01-16 16:43:00,50.2,14.8,30.21,North,350,6.3,11.9,24,0.00,,OVC,0.00,VWS V14.00,2013-01-16 21:43:00,
2013-01-16 16:44:00,50.2,14.8,30.21,NNW,346,8.7,11.0,24,0.00,,OVC,0.00,VWS V14.00,2013-01-16 21:44:00,
2013-01-16 16:45:00,50.2,14.8,30.21,North,0,10.5,11.0,24,0.00,,OVC,0.00,VWS V14.00,2013-01-16 21:45:00,
2013-01-16 16:46:00,50.2,14.8,30.21,North,349,8.7,13.2,24,0.00,,OVC,0.00,VWS V14.00,2013-01-16 21:46:00,
2013-01-16 16:47:00,50.2,14.8,30.21,NW,310,8.1,8.7,24,0.00,,OVC,0.00,VWS V14.00,2013-01-16 21:47:00,
2013-01-16 16:48:00,50.2,14.8,30.24,WNW,286,13.2,15.4,24,0.00,,OVC,0.00,VWS V14.00,2013-01-16 21:48:00,
2013-01-16 16:49:00,50.2,14.8,30.24,NNW,345,8.1,12.3,24,0.00,,OVC,0.00,VWS V14.00,2013-01-16 21:49:00,
2013-01-16 16:50:00,50.2,14.8,30.24,NW,312,8.1,12.3,24,0.00,,OVC,0.00,VWS V14.00,2013-01-16 21:50:00,
2013-01-16 16:51:00,50.2,14.8,30.24,NW,311,8.3,8.7,24,0.00,,OVC,0.00,VWS V14.00,2013-01-16 21:51:00,
2013-01-16 16:52:00,50.2,14.8,30.24,North,4,8.1,8.7,24,0.00,,OVC,0.00,VWS V14.00,2013-01-16 21:52:00,
2013-01-16 16:53:00,50.2,14.8,30.24,North,0,8.3,8.3,24,0.00,,OVC,0.00,VWS V14.00,2013-01-16 21:53:00,
2013-01-16 16:54:00,50.2,14.8,30.24,West,273,8.1,8.7,24,0.00,,OVC,0.00,VWS V14.00,2013-01-16 21:54:00,
2013-01-16 16:55:00,50.2,14.8,30.24,NNW,333,5.8,8.7,24,0.00,,OVC,0.00,VWS V14.00,2013-01-16 21:55:00,
2013-01-16 16:56:00,50.2,14.8,30.24,NW,314,6.3,6.3,24,0.00,,OVC,0.00,VWS V14.00,2013-01-16 21:56:00,
2013-01-16 16:57:00,50.0,14.6,30.24,NW,325,8.1,12.8,24,0.00,,OVC,0.00,VWS V14.00,2013-01-16 21:57:00,
2013-01-16 16:58:00,50.0,14.6,30.24,NNW,327,7.6,10.1,24,0.00,,OVC,0.00,VWS V14.00,2013-01-16 21:58:00,
2013-01-16 16:59:00,50.0,14.6,30.24,North,11,8.1,8.7,24,0.00,,OVC,0.00,VWS V14.00,2013-01-16 21:59:00,
2013-01-16 17:00:00,50.0,14.6,30.24,NNW,344,5.8,8.7,24,0.00,,OVC,0.00,VWS V14.00,2013-01-16 22:00:00,
2013-01-16 17:01:00,50.0,14.6,30.24,NNW,333,5.8,8.3,24,0.00,,OVC,0.00,VWS V14.00,2013-01-16 22:01:00,
2013-01-16 17:02:00,50.0,14.6,30.24,NW,323,5.4,8.1,24,0.00,,OVC,0.00,VWS V14.00,2013-01-16 22:02:00,
2013-01-16 17:03:00,50.0,14.6,30.24,NW,308,5.8,5.8,24,0.00,,OVC,0.00,VWS V14.00,2013-01-16 22:03:00,
2013-01-16 17:04:00,50.0,14.6,30.24,West,275,8.3,8.3,24,0.00,,OVC,0.00,VWS V14.00,2013-01-16 22:04:00,
2013-01-16 17:05:00,50.0,14.6,30.24,WNW,298,6.3,8.3,24,0.00,,OVC,0.00,VWS V14.00,2013-01-16 22:05:00,
2013-01-16 17:06:00,50.0,14.6,30.24,West,280,10.1,10.1,24,0.00,,OVC,0.00,VWS V14.00,2013-01-16 22:06:00,
2013-01-16 17:07:00,50.0,14.6,30.24,NW,312,8.3,10.5,24,0.00,,OVC,0.00,VWS V14.00,2013-01-16 22:07:00,
2013-01-16 17:08:00,50.0,14.6,30.24,North,357,7.6,12.3,24,0.00,,OVC,0.00,VWS V14.00,2013-01-16 22:08:00,
2013-01-16 17:09:00,50.0,14.6,30.24,NW,317,10.5,10.5,24,0.00,,OVC,0.00,VWS V14.00,2013-01-16 22:09:00,
2013-01-16 17:10:00,50.2,14.8,30.24,North,353,8.3,10.5,24,0.00,,OVC,0.00,VWS V14.00,2013-01-16 22:10:00,
2013-01-16 17:11:00,50.2,14.8,30.24,West,279,8.7,15.4,24,0.00,,OVC,0.00,VWS V14.00,2013-01-16 22:11:00,
2013-01-16 17:12:00,50.2,14.8,30.24,NNW,337,10.5,12.8,24,0.00,,OVC,0.00,VWS V14.00,2013-01-16 22:12:00,
2013-01-16 17:13:00,50.2,14.8,30.24,NW,325,10.5,10.5,24,0.00,,OVC,0.00,VWS V14.00,2013-01-16 22:13:00,
2013-01-16 17:14:00,50.0,14.6,30.24,WNW,293,8.7,8.7,24,0.00,,OVC,0.00,VWS V14.00,2013-01-16 22:14:00,
2013-01-16 17:15:00,50.0,14.6,30.24,NW,315,7.6,11.0,24,0.00,,OVC,0.00,VWS V14.00,2013-01-16 22:15:00,
2013-01-16 17:16:00,50.0,14.6,30.24,WNW,291,5.4,8.3,24,0.00,,OVC,0.00,VWS V14.00,2013-01-16 22:16:00,
2013-01-16 17:17:00,50.0,14.6,30.24,NW,314,8.3,8.7,24,0.00,,OVC,0.00,VWS V14.00,2013-01-16 22:17:00,
2013-01-16 17:18:00,50.0,14.6,30.24,NW,305,11.0,11.0,24,0.00,,OVC,0.00,VWS V14.00,2013-01-16 22:18:00,
2013-01-16 17:19:00,50.0,14.6,30.24,NW,305,8.7,11.0,24,0.00,,OVC,0.00,VWS V14.00,2013-01-16 22:19:00,
2013-01-16 17:20:00,50.0,14.6,30.24,NNW,339,10.1,11.0,24,0.00,,OVC,0.00,VWS V14.00,2013-01-16 22:20:00,
2013-01-16 17:21:00,50.0,14.6,30.24,NNW,339,11.0,12.8,24,0.00,,OVC,0.00,VWS V14.00,2013-01-16 22:21:00,
2013-01-16 17:22:00,50.0,14.6,30.24,WNW,293,12.8,12.8,24,0.00,,OVC,0.00,VWS V14.00,2013-01-16 22:22:00,
2013-01-16 17:23:00,50.0,14.6,30.24,NW,313,8.3,12.8,24,0.00,,OVC,0.00,VWS V14.00,2013-01-16 22:23:00,
2013-01-16 17:24:00,50.0,14.6,30.24,NW,321,8.3,11.0,24,0.00,,OVC,0.00,VWS V14.00,2013-01-16 22:24:00,
2013-01-16 17:25:00,49.8,14.5,30.24,North,357,11.0,11.0,24,0.00,,OVC,0.00,VWS V14.00,2013-01-16 22:25:00,
2013-01-16 17:26:00,49.8,14.5,30.24,NW,304,8.7,11.0,24,0.00,,OVC,0.00,VWS V14.00,2013-01-16 22:26:00,
2013-01-16 17:27:00,49.8,14.5,30.24,North,353,11.0,11.0,24,0.00,,OVC,0.00,VWS V14.00,2013-01-16 22:27:00,
2013-01-16 17:28:00,49.8,14.5,30.24,NNW,331,15.4,15.4,24,0.00,,OVC,0.00,VWS V14.00,2013-01-16 22:28:00,
2013-01-16 17:29:00,49.8,14.5,30.24,NW,304,8.3,12.8,24,0.00,,OVC,0.00,VWS V14.00,2013-01-16 22:29:00,
2013-01-16 17:30:00,49.8,14.5,30.24,NW,305,6.3,12.8,24,0.00,,OVC,0.00,VWS V14.00,2013-01-16 22:30:00,
2013-01-16 17:31:00,49.8,14.5,30.24,NW,307,8.3,8.3,24,0.00,,OVC,0.00,VWS V14.00,2013-01-16 22:31:00,
2013-01-16 17:32:00,49.8,14.5,30.24,NNW,344,7.6,8.3,24,0.00,,OVC,0.00,VWS V14.00,2013-01-16 22:32:00,
2013-01-16 17:33:00,49.6,14.3,30.24,WNW,302,5.4,7.6,24,0.00,,OVC,0.00,VWS V14.00,2013-01-16 22:33:00,
2013-01-16 17:34:00,49.6,14.3,30.24,NNW,331,10.5,10.5,24,0.00,,OVC,0.00,VWS V14.00,2013-01-16 22:34:00,
2013-01-16 17:35:00,49.6,14.3,30.24,NW,315,8.7,12.8,24,0.00,,OVC,0.00,VWS V14.00,2013-01-16 22:35:00,
2013-01-16 17:36:00,49.6,14.3,30.24,North,353,15.4,15.4,24,0.00,,OVC,0.00,VWS V14.00,2013-01-16 22:36:00,
2013-01-16 17:37:00,49.6,14.3,30.24,NW,316,10.1,15.4,24,0.00,,OVC,0.00,VWS V14.00,2013-01-16 22:37:00,
2013-01-16 17:38:00,49.6,14.3,30.24,NW,312,13.2,13.2,24,0.00,,OVC,0.00,VWS V14.00,2013-01-16 22:38:00,
2013-01-16 17:39:00,49.6,14.3,30.24,WNW,299,8.7,10.1,24,0.00,,OVC,0.00,VWS V14.00,2013-01-16 22:39:00,
2013-01-16 17:40:00,49.6,14.3,30.24,WNW,297,5.4,10.1,24,0.00,,OVC,0.00,VWS V14.00,2013-01-16 22:40:00,
2013-01-16 17:41:00,49.6,14.3,30.24,North,0,4.9,8.1,24,0.00,,OVC,0.00,VWS V14.00,2013-01-16 22:41:00,
2013-01-16 17:42:00,49.6,14.3,30.24,NNW,327,10.1,11.4,24,0.00,,OVC,0.00,VWS V14.00,2013-01-16 22:42:00,
2013-01-16 17:43:00,49.6,14.3,30.24,WNW,299,8.7,10.1,24,0.00,,OVC,0.00,VWS V14.00,2013-01-16 22:43:00,
2013-01-16 17:44:00,49.6,14.3,30.24,NNW,342,8.3,8.3,24,0.00,,OVC,0.00,VWS V14.00,2013-01-16 22:44:00,
2013-01-16 17:45:00,49.6,14.3,30.24,NNW,345,6.7,13.2,24,0.00,,OVC,0.00,VWS V14.00,2013-01-16 22:45:00,
2013-01-16 17:46:00,49.6,14.3,30.24,NW,310,8.1,8.7,24,0.00,,OVC,0.00,VWS V14.00,2013-01-16 22:46:00,
2013-01-16 17:47:00,49.6,14.3,30.24,NW,307,9.6,14.5,24,0.00,,OVC,0.00,VWS V14.00,2013-01-16 22:47:00,
2013-01-16 17:48:00,49.6,14.3,30.24,NW,305,7.6,10.1,24,0.00,,OVC,0.00,VWS V14.00,2013-01-16 22:48:00,
2013-01-16 17:49:00,49.6,14.3,30.24,WNW,302,8.3,10.5,24,0.00,,OVC,0.00,VWS V14.00,2013-01-16 22:49:00,
2013-01-16 17:50:00,49.6,14.3,30.24,NW,311,5.4,10.5,24,0.00,,OVC,0.00,VWS V14.00,2013-01-16 22:50:00,
2013-01-16 17:51:00,49.6,14.3,30.24,North,0,8.3,11.0,24,0.00,,OVC,0.00,VWS V14.00,2013-01-16 22:51:00,
2013-01-16 17:52:00,49.6,14.3,30.24,North,0,8.3,8.3,24,0.00,,OVC,0.00,VWS V14.00,2013-01-16 22:52:00,
2013-01-16 17:53:00,49.6,14.3,30.24,NW,322,10.1,10.5,24,0.00,,OVC,0.00,VWS V14.00,2013-01-16 22:53:00,
2013-01-16 17:54:00,49.5,14.2,30.24,NNE,26,8.3,8.3,24,0.00,,OVC,0.00,VWS V14.00,2013-01-16 22:54:00,
2013-01-16 17:55:00,49.5,14.2,30.24,NNW,341,6.3,8.7,24,0.00,,OVC,0.00,VWS V14.00,2013-01-16 22:55:00,
2013-01-16 17:56:00,49.5,14.2,30.24,NW,305,6.3,10.1,24,0.00,,OVC,0.00,VWS V14.00,2013-01-16 22:56:00,
2013-01-16 17:57:00,49.5,14.2,30.24,North,350,6.3,11.0,24,0.00,,OVC,0.00,VWS V14.00,2013-01-16 22:57:00,
2013-01-16 17:58:00,49.5,14.2,30.24,North,0,6.7,8.1,24,0.00,,OVC,0.00,VWS V14.00,2013-01-16 22:58:00,
2013-01-16 17:59:00,49.5,14.2,30.24,NNW,327,5.4,8.1,24,0.00,,OVC,0.00,VWS V14.00,2013-01-16 22:59:00,
2013-01-16 18:00:00,49.5,14.2,30.24,NNW,331,7.2,8.1,24,0.00,,OVC,0.00,VWS V14.00,2013-01-16 23:00:00,
2013-01-16 18:01:00,49.5,14.2,30.24,North,353,6.3,8.3,24,0.00,,OVC,0.00,VWS V14.00,2013-01-16 23:01:00,
2013-01-16 18:02:00,49.3,14.0,30.24,NNW,333,3.6,7.6,24,0.00,,OVC,0.00,VWS V14.00,2013-01-16 23:02:00,
2013-01-16 18:03:00,49.3,14.0,30.24,North,357,5.8,7.6,24,0.00,,OVC,0.00,VWS V14.00,2013-01-16 23:03:00,
2013-01-16 18:04:00,49.3,14.0,30.24,NW,325,5.4,7.6,24,0.00,,OVC,0.00,VWS V14.00,2013-01-16 23:04:00,
2013-01-16 18:05:00,49.3,14.0,30.24,North,5,5.8,7.6,24,0.00,,OVC,0.00,VWS V14.00,2013-01-16 23:05:00,
2013-01-16 18:06:00,49.3,14.0,30.24,North,11,3.6,6.3,24,0.00,,OVC,0.00,VWS V14.00,2013-01-16 23:06:00,
2013-01-16 18:07:00,49.3,14.0,30.24,North,0,4.9,6.3,24,0.00,,OVC,0.00,VWS V14.00,2013-01-16 23:07:00,
2013-01-16 18:08:00,49.3,14.0,30.24,North,353,10.1,10.5,24,0.00,,OVC,0.00,VWS V14.00,2013-01-16 23:08:00,
2013-01-16 18:09:00,49.1,13.9,30.24,NW,319,5.8,6.3,24,0.00,,OVC,0.00,VWS V14.00,2013-01-16 23:09:00,
2013-01-16 18:10:00,49.1,13.9,30.24,NNE,17,3.6,6.3,24,0.00,,OVC,0.00,VWS V14.00,2013-01-16 23:10:00,
2013-01-16 18:11:00,49.1,13.9,30.24,North,3,8.3,8.3,24,0.00,,OVC,0.00,VWS V14.00,2013-01-16 23:11:00,
2013-01-16 18:12:00,49.1,13.9,30.24,North,353,5.8,8.3,24,0.00,,OVC,0.00,VWS V14.00,2013-01-16 23:12:00,
2013-01-16 18:13:00,49.1,13.9,30.24,NW,325,6.3,9.6,24,0.00,,OVC,0.00,VWS V14.00,2013-01-16 23:13:00,
2013-01-16 18:14:00,49.1,13.9,30.24,NNW,338,5.8,5.8,24,0.00,,OVC,0.00,VWS V14.00,2013-01-16 23:14:00,
2013-01-16 18:15:00,49.1,13.9,30.24,NNW,341,7.6,10.1,24,0.00,,OVC,0.00,VWS V14.00,2013-01-16 23:15:00,
2013-01-16 18:16:00,48.9,13.7,30.24,NW,323,9.2,9.2,24,0.00,,OVC,0.00,VWS V14.00,2013-01-16 23:16:00,
2013-01-16 18:17:00,48.9,13.7,30.24,NW,317,6.3,9.2,24,0.00,,OVC,0.00,VWS V14.00,2013-01-16 23:17:00,
2013-01-16 18:18:00,48.9,13.7,30.24,NNW,328,4.9,6.3,24,0.00,,OVC,0.00,VWS V14.00,2013-01-16 23:18:00,
2013-01-16 18:19:00,48.9,13.7,30.24,NNW,329,5.4,7.2,24,0.00,,OVC,0.00,VWS V14.00,2013-01-16 23:19:00,
2013-01-16 18:20:00,48.9,13.7,30.24,NNW,339,8.1,8.1,24,0.00,,OVC,0.00,VWS V14.00,2013-01-16 23:20:00,
2013-01-16 18:21:00,48.9,13.7,30.24,NW,304,4.9,10.5,24,0.00,,OVC,0.00,VWS V14.00,2013-01-16 23:21:00,
2013-01-16 18:22:00,48.9,13.7,30.24,North,4,7.6,7.6,24,0.00,,OVC,0.00,VWS V14.00,2013-01-16 23:22:00,
2013-01-16 18:23:00,48.7,13.6,30.24,North,357,6.3,8.3,24,0.00,,OVC,0.00,VWS V14.00,2013-01-16 23:23:00,
2013-01-16 18:24:00,48.7,13.6,30.24,NNW,344,4.0,5.4,24,0.00,,OVC,0.00,VWS V14.00,2013-01-16 23:24:00,
2013-01-16 18:25:00,48.7,13.6,30.24,NNW,346,3.6,6.7,24,0.00,,OVC,0.00,VWS V14.00,2013-01-16 23:25:00,
2013-01-16 18:26:00,48.7,15.4,30.24,NNE,17,3.6,4.0,26,0.00,,OVC,0.00,VWS V14.00,2013-01-16 23:26:00,
2013-01-16 18:27:00,48.7,15.4,30.24,NNW,342,3.1,5.4,26,0.00,,OVC,0.00,VWS V14.00,2013-01-16 23:27:00,
2013-01-16 18:28:00,48.7,15.4,30.24,NW,324,3.1,6.3,26,0.00,,OVC,0.00,VWS V14.00,2013-01-16 23:28:00,
2013-01-16 18:29:00,48.6,15.2,30.24,North,0,5.4,5.4,26,0.00,,OVC,0.00,VWS V14.00,2013-01-16 23:29:00,
2013-01-16 18:30:00,48.6,15.2,30.24,NNW,332,6.7,6.7,26,0.00,,OVC,0.00,VWS V14.00,2013-01-16 23:30:00,
2013-01-16 18:31:00,48.6,15.2,30.24,North,357,3.6,6.7,26,0.00,,OVC,0.00,VWS V14.00,2013-01-16 23:31:00,
2013-01-16 18:32:00,48.6,15.2,30.24,NNE,16,6.3,6.3,26,0.00,,OVC,0.00,VWS V14.00,2013-01-16 23:32:00,
2013-01-16 18:33:00,48.4,15.1,30.24,North,0,6.3,6.3,26,0.00,,OVC,0.00,VWS V14.00,2013-01-16 23:33:00,
2013-01-16 18:34:00,48.4,15.1,30.24,North,7,8.3,8.3,26,0.00,,OVC,0.00,VWS V14.00,2013-01-16 23:34:00,
2013-01-16 18:35:00,48.4,15.1,30.24,NNW,329,4.9,8.7,26,0.00,,OVC,0.00,VWS V14.00,2013-01-16 23:35:00,
2013-01-16 18:36:00,48.4,15.1,30.24,NW,316,5.4,5.4,26,0.00,,OVC,0.00,VWS V14.00,2013-01-16 23:36:00,
2013-01-16 18:37:00,48.2,14.9,30.24,North,353,5.4,7.6,26,0.00,,OVC,0.00,VWS V14.00,2013-01-16 23:37:00,
2013-01-16 18:38:00,48.2,14.9,30.24,North,2,3.1,5.8,26,0.00,,OVC,0.00,VWS V14.00,2013-01-16 23:38:00,
2013-01-16 18:39:00,48.2,14.9,30.24,NNW,337,3.1,5.4,26,0.00,,OVC,0.00,VWS V14.00,2013-01-16 23:39:00,
2013-01-16 18:40:00,48.2,14.9,30.24,NW,325,3.1,5.4,26,0.00,,OVC,0.00,VWS V14.00,2013-01-16 23:40:00,
2013-01-16 18:41:00,48.0,15.6,30.24,NNW,328,3.1,5.4,27,0.00,,OVC,0.00,VWS V14.00,2013-01-16 23:41:00,
2013-01-16 18:42:00,48.0,15.6,30.24,NNW,345,2.7,4.0,27,0.00,,OVC,0.00,VWS V14.00,2013-01-16 23:42:00,
2013-01-16 18:43:00,48.0,15.6,30.24,North,353,3.6,4.9,27,0.00,,OVC,0.00,VWS V14.00,2013-01-16 23:43:00,
2013-01-16 18:44:00,47.8,15.5,30.24,NNW,345,3.1,3.6,27,0.00,,OVC,0.00,VWS V14.00,2013-01-16 23:44:00,
2013-01-16 18:45:00,47.8,15.5,30.24,North,353,3.6,6.3,27,0.00,,OVC,0.00,VWS V14.00,2013-01-16 23:45:00,
2013-01-16 18:46:00,47.8,15.5,30.24,NNW,342,7.6,7.6,27,0.00,,OVC,0.00,VWS V14.00,2013-01-16 23:46:00,
2013-01-16 18:47:00,47.7,15.3,30.24,NW,319,5.8,7.6,27,0.00,,OVC,0.00,VWS V14.00,2013-01-16 23:47:00,
2013-01-16 18:48:00,47.7,15.3,30.26,North,357,3.1,5.8,27,0.00,,OVC,0.00,VWS V14.00,2013-01-16 23:48:00,
2013-01-16 18:49:00,47.7,15.3,30.27,NNW,345,2.7,3.6,27,0.00,,OVC,0.00,VWS V14.00,2013-01-16 23:49:00,
2013-01-16 18:50:00,47.5,15.2,30.26,NNW,345,2.2,3.6,27,0.00,,OVC,0.00,VWS V14.00,2013-01-16 23:50:00,
2013-01-16 18:51:00,47.5,15.2,30.26,North,7,2.7,3.6,27,0.00,,OVC,0.00,VWS V14.00,2013-01-16 23:51:00,
2013-01-16 18:52:00,47.5,15.2,30.26,North,353,3.6,3.6,27,0.00,,OVC,0.00,VWS V14.00,2013-01-16 23:52:00,
2013-01-16 18:53:00,47.3,15.0,30.26,NNW,332,3.6,5.8,27,0.00,,OVC,0.00,VWS V14.00,2013-01-16 23:53:00,
2013-01-16 18:54:00,47.3,15.0,30.27,North,0,3.6,3.6,27,0.00,,OVC,0.00,VWS V14.00,2013-01-16 23:54:00,
2013-01-16 18:55:00,47.3,15.0,30.26,North,353,2.7,3.6,27,0.00,,OVC,0.00,VWS V14.00,2013-01-16 23:55:00,
2013-01-16 18:56:00,47.1,14.9,30.26,NNW,329,3.1,3.6,27,0.00,,OVC,0.00,VWS V14.00,2013-01-16 23:56:00,
2013-01-16 18:57:00,47.1,14.9,30.26,North,353,3.6,3.6,27,0.00,,OVC,0.00,VWS V14.00,2013-01-16 23:57:00,
2013-01-16 18:58:00,46.9,14.7,30.26,North,0,2.7,4.9,27,0.00,,OVC,0.00,VWS V14.00,2013-01-16 23:58:00,
2013-01-16 18:59:00,46.8,14.6,30.27,North,9,2.2,2.7,27,0.00,,OVC,0.00,VWS V14.00,2013-01-16 23:59:00,
2013-01-16 19:00:00,46.8,14.6,30.26,North,9,2.7,2.7,27,0.00,,OVC,0.00,VWS V14.00,2013-01-17 00:00:00,
2013-01-16 19:01:00,46.6,14.4,30.26,NNW,335,3.1,3.6,27,0.00,,OVC,0.00,VWS V14.00,2013-01-17 00:01:00,
2013-01-16 19:02:00,46.6,14.4,30.26,NNW,335,3.1,3.1,27,0.00,,OVC,0.00,VWS V14.00,2013-01-17 00:02:00,
2013-01-16 19:03:00,46.4,14.2,30.26,NNW,337,2.7,3.1,27,0.00,,OVC,0.00,VWS V14.00,2013-01-17 00:03:00,
2013-01-16 19:04:00,46.2,14.1,30.27,NNW,341,3.1,3.1,27,0.00,,OVC,0.00,VWS V14.00,2013-01-17 00:04:00,
2013-01-16 19:05:00,46.2,14.1,30.26,NNW,341,2.7,3.1,27,0.00,,OVC,0.00,VWS V14.00,2013-01-17 00:05:00,
2013-01-16 19:06:00,46.0,13.9,30.26,NNW,337,0.0,3.6,27,0.00,,OVC,0.00,VWS V14.00,2013-01-17 00:06:00,
2013-01-16 19:07:00,46.0,13.9,30.26,NNW,344,2.7,2.7,27,0.00,,OVC,0.00,VWS V14.00,2013-01-17 00:07:00,
2013-01-16 19:08:00,45.9,13.8,30.26,North,353,3.1,3.6,27,0.00,,OVC,0.00,VWS V14.00,2013-01-17 00:08:00,
2013-01-16 19:09:00,45.7,13.6,30.27,North,353,2.7,2.7,27,0.00,,OVC,0.00,VWS V14.00,2013-01-17 00:09:00,
2013-01-16 19:10:00,45.5,13.5,30.26,North,353,2.7,2.7,27,0.00,,OVC,0.00,VWS V14.00,2013-01-17 00:10:00,
2013-01-16 19:11:00,45.3,13.3,30.26,North,353,2.7,3.1,27,0.00,,OVC,0.00,VWS V14.00,2013-01-17 00:11:00,
2013-01-16 19:12:00,45.3,13.3,30.26,North,353,2.7,2.7,27,0.00,,OVC,0.00,VWS V14.00,2013-01-17 00:12:00,
2013-01-16 19:13:00,45.1,13.2,30.26,North,353,2.2,2.7,27,0.00,,OVC,0.00,VWS V14.00,2013-01-17 00:13:00,
2013-01-16 19:14:00,45.0,13.0,30.27,North,353,2.2,2.7,27,0.00,,OVC,0.00,VWS V14.00,2013-01-17 00:14:00,
2013-01-16 19:15:00,45.0,13.0,30.26,North,353,2.2,2.7,27,0.00,,OVC,0.00,VWS V14.00,2013-01-17 00:15:00,
2013-01-16 19:16:00,44.8,12.9,30.26,North,353,2.2,2.2,27,0.00,,OVC,0.00,VWS V14.00,2013-01-17 00:16:00,
2013-01-16 19:17:00,44.8,12.9,30.26,North,353,0.0,2.2,27,0.00,,OVC,0.00,VWS V14.00,2013-01-17 00:17:00,
2013-01-16 19:18:00,44.6,12.7,30.26,North,353,0.0,0.0,27,0.00,,OVC,0.00,VWS V14.00,2013-01-17 00:18:00,
2013-01-16 19:19:00,44.6,12.7,30.27,North,353,0.0,0.0,27,0.00,,OVC,0.00,VWS V14.00,2013-01-17 00:19:00,
2013-01-16 19:20:00,44.4,13.4,30.26,North,353,0.0,0.0,28,0.00,,OVC,0.00,VWS V14.00,2013-01-17 00:20:00,
2013-01-16 19:21:00,44.4,13.4,30.26,North,353,0.0,0.0,28,0.00,,OVC,0.00,VWS V14.00,2013-01-17 00:21:00,
2013-01-16 19:22:00,44.2,13.2,30.26,North,353,0.0,0.0,28,0.00,,OVC,0.00,VWS V14.00,2013-01-17 00:22:00,
2013-01-16 19:23:00,44.2,13.2,30.26,North,353,0.0,0.0,28,0.00,,OVC,0.00,VWS V14.00,2013-01-17 00:23:00,
2013-01-16 19:24:00,44.2,13.2,30.27,North,353,0.0,0.0,28,0.00,,OVC,0.00,VWS V14.00,2013-01-17 00:24:00,
2013-01-16 19:25:00,44.2,13.2,30.26,North,353,0.0,0.0,28,0.00,,OVC,0.00,VWS V14.00,2013-01-17 00:25:00,
2013-01-16 19:26:00,44.2,13.2,30.26,North,353,0.0,0.0,28,0.00,,OVC,0.00,VWS V14.00,2013-01-17 00:26:00,
2013-01-16 19:27:00,44.1,13.1,30.26,North,353,0.0,0.0,28,0.00,,OVC,0.00,VWS V14.00,2013-01-17 00:27:00,
2013-01-16 19:28:00,44.1,13.1,30.26,North,353,0.0,0.0,28,0.00,,OVC,0.00,VWS V14.00,2013-01-17 00:28:00,
2013-01-16 19:29:00,44.1,13.1,30.27,North,353,0.0,0.0,28,0.00,,OVC,0.00,VWS V14.00,2013-01-17 00:29:00,
2013-01-16 19:30:00,43.9,12.9,30.26,North,353,0.0,0.0,28,0.00,,OVC,0.00,VWS V14.00,2013-01-17 00:30:00,
2013-01-16 19:31:00,43.9,12.9,30.26,North,353,0.0,0.0,28,0.00,,OVC,0.00,VWS V14.00,2013-01-17 00:31:00,
2013-01-16 19:32:00,43.7,12.8,30.26,North,353,0.0,0.0,28,0.00,,OVC,0.00,VWS V14.00,2013-01-17 00:32:00,
2013-01-16 19:33:00,43.7,12.8,30.26,North,353,0.0,0.0,28,0.00,,OVC,0.00,VWS V14.00,2013-01-17 00:33:00,
2013-01-16 19:34:00,43.7,12.8,30.27,North,353,0.0,0.0,28,0.00,,OVC,0.00,VWS V14.00,2013-01-17 00:34:00,
2013-01-16 19:35:00,43.7,12.8,30.26,North,353,0.0,0.0,28,0.00,,OVC,0.00,VWS V14.00,2013-01-17 00:35:00,
2013-01-16 19:36:00,43.7,12.8,30.26,North,353,0.0,0.0,28,0.00,,OVC,0.00,VWS V14.00,2013-01-17 00:36:00,
2013-01-16 19:37:00,43.5,12.6,30.26,North,353,0.0,0.0,28,0.00,,OVC,0.00,VWS V14.00,2013-01-17 00:37:00,
2013-01-16 19:38:00,43.5,12.6,30.26,North,353,0.0,0.0,28,0.00,,OVC,0.00,VWS V14.00,2013-01-17 00:38:00,
2013-01-16 19:39:00,43.5,12.6,30.27,North,353,0.0,0.0,28,0.00,,OVC,0.00,VWS V14.00,2013-01-17 00:39:00,
2013-01-16 19:40:00,43.3,12.4,30.26,North,353,0.0,0.0,28,0.00,,OVC,0.00,VWS V14.00,2013-01-17 00:40:00,
2013-01-16 19:41:00,43.3,12.4,30.26,North,353,0.0,0.0,28,0.00,,OVC,0.00,VWS V14.00,2013-01-17 00:41:00,
2013-01-16 19:42:00,43.3,12.4,30.26,North,353,0.0,0.0,28,0.00,,OVC,0.00,VWS V14.00,2013-01-17 00:42:00,
2013-01-16 19:43:00,43.2,12.3,30.26,North,353,0.0,0.0,28,0.00,,OVC,0.00,VWS V14.00,2013-01-17 00:43:00,
2013-01-16 19:44:00,43.0,12.1,30.27,North,353,2.7,2.7,28,0.00,,OVC,0.00,VWS V14.00,2013-01-17 00:44:00,
2013-01-16 19:45:00,43.0,12.1,30.26,North,353,2.7,2.7,28,0.00,,OVC,0.00,VWS V14.00,2013-01-17 00:45:00,
2013-01-16 19:46:00,43.0,12.1,30.26,West,278,3.6,3.6,28,0.00,,OVC,0.00,VWS V14.00,2013-01-17 00:46:00,
2013-01-16 19:47:00,42.8,12.0,30.26,WSW,249,3.6,3.6,28,0.00,,OVC,0.00,VWS V14.00,2013-01-17 00:47:00,
2013-01-16 19:48:00,42.8,12.0,30.26,SW,220,3.6,3.6,28,0.00,,OVC,0.00,VWS V14.00,2013-01-17 00:48:00,
2013-01-16 19:49:00,42.6,12.6,30.27,SW,220,3.1,3.6,29,0.00,,OVC,0.00,VWS V14.00,2013-01-17 00:49:00,
2013-01-16 19:50:00,42.6,12.6,30.26,SW,219,3.6,3.6,29,0.00,,OVC,0.00,VWS V14.00,2013-01-17 00:50:00,
2013-01-16 19:51:00,42.4,12.4,30.26,SW,219,3.6,3.6,29,0.00,,OVC,0.00,VWS V14.00,2013-01-17 00:51:00,
2013-01-16 19:52:00,42.4,12.4,30.26,SW,217,4.0,4.9,29,0.00,,OVC,0.00,VWS V14.00,2013-01-17 00:52:00,
2013-01-16 19:53:00,42.4,12.4,30.26,SW,217,3.6,4.0,29,0.00,,OVC,0.00,VWS V14.00,2013-01-17 00:53:00,
2013-01-16 19:54:00,42.3,12.3,30.27,SW,217,3.6,4.0,29,0.00,,OVC,0.00,VWS V14.00,2013-01-17 00:54:00,
2013-01-16 19:55:00,42.3,12.3,30.26,SW,217,3.1,4.0,29,0.00,,OVC,0.00,VWS V14.00,2013-01-17 00:55:00,
2013-01-16 19:56:00,42.1,12.1,30.26,SW,217,2.7,3.6,29,0.00,,OVC,0.00,VWS V14.00,2013-01-17 00:56:00,
2013-01-16 19:57:00,42.1,12.1,30.26,SW,217,3.1,3.1,29,0.00,,OVC,0.00,VWS V14.00,2013-01-17 00:57:00,
2013-01-16 19:58:00,42.1,12.1,30.26,SW,217,4.0,4.0,29,0.00,,OVC,0.00,VWS V14.00,2013-01-17 00:58:00,
2013-01-16 19:59:00,41.9,12.0,30.27,SW,217,2.2,2.7,29,0.00,,OVC,0.00,VWS V14.00,2013-01-17 00:59:00,
2013-01-16 20:00:00,41.9,12.0,30.26,SW,217,0.0,2.7,29,0.00,,OVC,0.00,VWS V14.00,2013-01-17 01:00:00,
2013-01-16 20:01:00,41.7,11.8,30.26,SW,217,2.7,2.7,29,0.00,,OVC,0.00,VWS V14.00,2013-01-17 01:01:00,
2013-01-16 20:02:00,41.7,11.8,30.26,SW,217,2.2,3.1,29,0.00,,OVC,0.00,VWS V14.00,2013-01-17 01:02:00,
2013-01-16 20:03:00,41.7,11.8,30.26,SW,217,2.2,2.7,29,0.00,,OVC,0.00,VWS V14.00,2013-01-17 01:03:00,
2013-01-16 20:04:00,41.5,11.7,30.27,SW,217,2.2,2.7,29,0.00,,OVC,0.00,VWS V14.00,2013-01-17 01:04:00,
2013-01-16 20:05:00,41.5,11.7,30.26,SW,217,2.2,2.7,29,0.00,,OVC,0.00,VWS V14.00,2013-01-17 01:05:00,
2013-01-16 20:06:00,41.5,11.7,30.26,SW,217,2.2,2.2,29,0.00,,OVC,0.00,VWS V14.00,2013-01-17 01:06:00,
2013-01-16 20:07:00,41.4,11.5,30.26,SW,217,2.2,2.2,29,0.00,,OVC,0.00,VWS V14.00,2013-01-17 01:07:00,
2013-01-16 20:08:00,41.4,11.5,30.26,SW,217,2.2,2.2,29,0.00,,OVC,0.00,VWS V14.00,2013-01-17 01:08:00,
2013-01-16 20:09:00,41.2,11.4,30.27,SW,217,2.2,2.2,29,0.00,,OVC,0.00,VWS V14.00,2013-01-17 01:09:00,
2013-01-16 20:10:00,41.2,11.4,30.26,SW,217,2.7,2.7,29,0.00,,OVC,0.00,VWS V14.00,2013-01-17 01:10:00,
2013-01-16 20:11:00,41.2,11.4,30.26,SW,217,2.7,3.1,29,0.00,,OVC,0.00,VWS V14.00,2013-01-17 01:11:00,
2013-01-16 20:12:00,41.2,11.4,30.26,SW,223,3.1,3.6,29,0.00,,OVC,0.00,VWS V14.00,2013-01-17 01:12:00,
2013-01-16 20:13:00,41.0,11.2,30.26,SW,225,3.1,3.6,29,0.00,,OVC,0.00,VWS V14.00,2013-01-17 01:13:00,
2013-01-16 20:14:00,41.0,11.2,30.27,SW,226,3.1,3.1,29,0.00,,OVC,0.00,VWS V14.00,2013-01-17 01:14:00,
2013-01-16 20:15:00,41.0,11.2,30.26,SW,227,3.1,3.1,29,0.00,,OVC,0.00,VWS V14.00,2013-01-17 01:15:00,
2013-01-16 20:16:00,41.0,11.2,30.26,SW,231,3.6,3.6,29,0.00,,OVC,0.00,VWS V14.00,2013-01-17 01:16:00,
2013-01-16 20:17:00,40.8,11.8,30.26,SW,231,3.1,3.6,30,0.00,,OVC,0.00,VWS V14.00,2013-01-17 01:17:00,
2013-01-16 20:18:00,40.8,11.8,30.26,SW,231,2.7,3.1,30,0.00,,OVC,0.00,VWS V14.00,2013-01-17 01:18:00,
2013-01-16 20:19:00,40.6,11.6,30.27,SW,231,0.0,2.2,30,0.00,,OVC,0.00,VWS V14.00,2013-01-17 01:19:00,
2013-01-16 20:20:00,40.5,11.5,30.26,SW,231,2.2,2.2,30,0.00,,OVC,0.00,VWS V14.00,2013-01-17 01:20:00,
2013-01-16 20:21:00,40.5,11.5,30.26,SW,231,0.0,2.2,30,0.00,,OVC,0.00,VWS V14.00,2013-01-17 01:21:00,
2013-01-16 20:22:00,40.3,11.3,30.26,SW,231,0.0,2.2,30,0.00,,OVC,0.00,VWS V14.00,2013-01-17 01:22:00,
2013-01-16 20:23:00,40.3,11.3,30.26,SW,231,0.0,2.2,30,0.00,,OVC,0.00,VWS V14.00,2013-01-17 01:23:00,
2013-01-16 20:24:00,40.1,11.2,30.27,SW,231,2.2,2.2,30,0.00,,OVC,0.00,VWS V14.00,2013-01-17 01:24:00,
2013-01-16 20:25:00,39.9,11.0,30.26,SW,231,2.7,2.7,30,0.00,,OVC,0.00,VWS V14.00,2013-01-17 01:25:00,
2013-01-16 20:26:00,39.9,11.0,30.26,SW,231,3.1,3.1,30,0.00,,OVC,0.00,VWS V14.00,2013-01-17 01:26:00,
2013-01-16 20:27:00,39.7,10.9,30.26,SW,231,2.7,3.1,30,0.00,,OVC,0.00,VWS V14.00,2013-01-17 01:27:00,
2013-01-16 20:28:00,39.6,10.7,30.26,SW,231,2.7,2.7,30,0.00,,OVC,0.00,VWS V14.00,2013-01-17 01:28:00,
2013-01-16 20:29:00,39.4,10.5,30.27,SW,231,2.2,3.1,30,0.00,,OVC,0.00,VWS V14.00,2013-01-17 01:29:00,
2013-01-16 20:30:00,39.4,10.5,30.26,SW,231,2.2,3.1,30,0.00,,OVC,0.00,VWS V14.00,2013-01-17 01:30:00,
2013-01-16 20:31:00,39.2,10.4,30.26,SW,231,2.2,2.7,30,0.00,,OVC,0.00,VWS V14.00,2013-01-17 01:31:00,
2013-01-16 20:32:00,39.2,10.4,30.26,SW,231,2.2,2.7,30,0.00,,OVC,0.00,VWS V14.00,2013-01-17 01:32:00,
2013-01-16 20:33:00,39.0,11.0,30.26,SW,231,2.2,2.2,31,0.00,,OVC,0.00,VWS V14.00,2013-01-17 01:33:00,
2013-01-16 20:34:00,38.8,10.8,30.27,SW,231,2.7,2.7,31,0.00,,OVC,0.00,VWS V14.00,2013-01-17 01:34:00,
2013-01-16 20:35:00,38.8,10.8,30.26,SW,231,2.7,2.7,31,0.00,,OVC,0.00,VWS V14.00,2013-01-17 01:35:00,
2013-01-16 20:36:00,38.7,10.6,30.26,SW,231,2.7,2.7,31,0.00,,OVC,0.00,VWS V14.00,2013-01-17 01:36:00,
2013-01-16 20:37:00,38.7,10.6,30.26,SW,231,2.7,2.7,31,0.00,,OVC,0.00,VWS V14.00,2013-01-17 01:37:00,
2013-01-16 20:38:00,38.5,10.5,30.26,SW,231,2.2,3.1,31,0.00,,OVC,0.00,VWS V14.00,2013-01-17 01:38:00,
2013-01-16 20:39:00,38.5,10.5,30.27,SW,231,2.2,2.2,31,0.00,,OVC,0.00,VWS V14.00,2013-01-17 01:39:00,
2013-01-16 20:40:00,38.3,10.3,30.26,SW,231,2.2,2.2,31,0.00,,OVC,0.00,VWS V14.00,2013-01-17 01:40:00,
2013-01-16 20:41:00,38.3,10.3,30.26,SW,231,2.2,2.2,31,0.00,,OVC,0.00,VWS V14.00,2013-01-17 01:41:00,
2013-01-16 20:42:00,38.1,10.2,30.26,SW,231,2.2,2.2,31,0.00,,OVC,0.00,VWS V14.00,2013-01-17 01:42:00,
2013-01-16 20:43:00,38.1,10.2,30.26,SW,231,2.2,2.2,31,0.00,,OVC,0.00,VWS V14.00,2013-01-17 01:43:00,
2013-01-16 20:44:00,38.1,10.9,30.27,SW,231,2.2,2.2,32,0.00,,OVC,0.00,VWS V14.00,2013-01-17 01:44:00,
2013-01-16 20:45:00,37.9,10.7,30.26,SW,231,2.2,2.2,32,0.00,,OVC,0.00,VWS V14.00,2013-01-17 01:45:00,
2013-01-16 20:46:00,37.9,10.7,30.26,SW,231,2.7,2.7,32,0.00,,OVC,0.00,VWS V14.00,2013-01-17 01:46:00,
2013-01-16 20:47:00,37.9,10.7,30.26,SW,231,2.2,2.7,32,0.00,,OVC,0.00,VWS V14.00,2013-01-17 01:47:00,
2013-01-16 20:48:00,37.8,10.6,30.26,SW,231,2.2,2.7,32,0.00,,OVC,0.00,VWS V14.00,2013-01-17 01:48:00,
2013-01-16 20:49:00,37.6,10.4,30.27,SW,231,2.2,2.2,32,0.00,,OVC,0.00,VWS V14.00,2013-01-17 01:49:00,
2013-01-16 20:50:00,37.6,10.4,30.26,SW,231,2.2,2.2,32,0.00,,OVC,0.00,VWS V14.00,2013-01-17 01:50:00,
2013-01-16 20:51:00,37.6,10.4,30.26,SW,231,2.2,2.7,32,0.00,,OVC,0.00,VWS V14.00,2013-01-17 01:51:00,
2013-01-16 20:52:00,37.4,10.2,30.26,SW,231,2.2,2.7,32,0.00,,OVC,0.00,VWS V14.00,2013-01-17 01:52:00,
2013-01-16 20:53:00,37.4,10.2,30.26,SW,231,2.7,2.7,32,0.00,,OVC,0.00,VWS V14.00,2013-01-17 01:53:00,
2013-01-16 20:54:00,37.4,10.2,30.27,SW,231,2.7,2.7,32,0.00,,OVC,0.00,VWS V14.00,2013-01-17 01:54:00,
2013-01-16 20:55:00,37.4,10.2,30.26,SW,231,3.1,3.1,32,0.00,,OVC,0.00,VWS V14.00,2013-01-17 01:55:00,
2013-01-16 20:56:00,37.4,10.2,30.26,SW,231,3.1,3.1,32,0.00,,OVC,0.00,VWS V14.00,2013-01-17 01:56:00,
2013-01-16 20:57:00,37.4,10.9,30.26,SW,231,3.1,3.1,33,0.00,,OVC,0.00,VWS V14.00,2013-01-17 01:57:00,
2013-01-16 20:58:00,37.2,10.8,30.26,SW,231,3.1,3.1,33,0.00,,OVC,0.00,VWS V14.00,2013-01-17 01:58:00,
2013-01-16 20:59:00,37.2,10.8,30.27,SW,231,2.7,3.1,33,0.00,,OVC,0.00,VWS V14.00,2013-01-17 01:59:00,
2013-01-16 21:00:00,37.2,10.8,30.26,SW,231,2.7,3.1,33,0.00,,OVC,0.00,VWS V14.00,2013-01-17 02:00:00,
2013-01-16 21:01:00,37.2,10.8,30.26,SW,231,2.7,2.7,33,0.00,,OVC,0.00,VWS V14.00,2013-01-17 02:01:00,
2013-01-16 21:02:00,37.2,10.8,30.26,SW,231,2.7,2.7,33,0.00,,OVC,0.00,VWS V14.00,2013-01-17 02:02:00,
2013-01-16 21:03:00,37.2,10.8,30.26,SW,231,3.1,3.1,33,0.00,,OVC,0.00,VWS V14.00,2013-01-17 02:03:00,
2013-01-16 21:04:00,37.2,11.4,30.27,SW,231,3.1,3.6,34,0.00,,OVC,0.00,VWS V14.00,2013-01-17 02:04:00,
2013-01-16 21:05:00,37.2,11.4,30.26,SW,231,3.1,3.6,34,0.00,,OVC,0.00,VWS V14.00,2013-01-17 02:05:00,
2013-01-16 21:06:00,37.0,11.3,30.26,SW,231,3.6,3.6,34,0.00,,OVC,0.00,VWS V14.00,2013-01-17 02:06:00,
2013-01-16 21:07:00,37.0,11.3,30.26,SW,231,2.7,3.6,34,0.00,,OVC,0.00,VWS V14.00,2013-01-17 02:07:00,
2013-01-16 21:08:00,37.0,11.3,30.26,SW,231,3.6,3.6,34,0.00,,OVC,0.00,VWS V14.00,2013-01-17 02:08:00,
2013-01-16 21:09:00,37.0,11.3,30.27,SW,233,3.6,3.6,34,0.00,,OVC,0.00,VWS V14.00,2013-01-17 02:09:00,
2013-01-16 21:10:00,37.0,11.3,30.26,SW,234,3.1,3.6,34,0.00,,OVC,0.00,VWS V14.00,2013-01-17 02:10:00,
2013-01-16 21:11:00,37.0,11.3,30.26,SW,235,3.6,3.6,34,0.00,,OVC,0.00,VWS V14.00,2013-01-17 02:11:00,
2013-01-16 21:12:00,37.0,11.3,30.26,SW,236,3.6,4.0,34,0.00,,OVC,0.00,VWS V14.00,2013-01-17 02:12:00,
2013-01-16 21:13:00,37.0,11.3,30.26,SW,236,3.6,3.6,34,0.00,,OVC,0.00,VWS V14.00,2013-01-17 02:13:00,
2013-01-16 21:14:00,37.0,11.3,30.27,WSW,237,3.1,3.1,34,0.00,,OVC,0.00,VWS V14.00,2013-01-17 02:14:00,
2013-01-16 21:15:00,37.0,11.3,30.26,WSW,237,2.7,3.1,34,0.00,,OVC,0.00,VWS V14.00,2013-01-17 02:15:00,
2013-01-16 21:16:00,36.9,11.1,30.26,WSW,237,2.2,3.1,34,0.00,,OVC,0.00,VWS V14.00,2013-01-17 02:16:00,
2013-01-16 21:17:00,36.9,11.8,30.26,WSW,237,2.2,2.7,35,0.00,,OVC,0.00,VWS V14.00,2013-01-17 02:17:00,
2013-01-16 21:18:00,36.9,11.8,30.30,WSW,237,2.2,2.7,35,0.00,,OVC,0.00,VWS V14.00,2013-01-17 02:18:00,
2013-01-16 21:19:00,36.9,11.8,30.29,WSW,237,0.0,0.0,35,0.00,,OVC,0.00,VWS V14.00,2013-01-17 02:19:00,
2013-01-16 21:20:00,36.9,11.8,30.30,WSW,237,0.0,0.0,35,0.00,,OVC,0.00,VWS V14.00,2013-01-17 02:20:00,
2013-01-16 21:21:00,36.7,11.6,30.30,WSW,237,0.0,0.0,35,0.00,,OVC,0.00,VWS V14.00,2013-01-17 02:21:00,
2013-01-16 21:22:00,36.7,11.6,30.30,WSW,237,2.2,2.2,35,0.00,,OVC,0.00,VWS V14.00,2013-01-17 02:22:00,
2013-01-16 21:23:00,36.7,11.6,30.30,WSW,237,2.2,2.2,35,0.00,,OVC,0.00,VWS V14.00,2013-01-17 02:23:00,
2013-01-16 21:24:00,36.7,11.6,30.29,WSW,237,2.2,2.2,35,0.00,,OVC,0.00,VWS V14.00,2013-01-17 02:24:00,
2013-01-16 21:25:00,36.7,12.3,30.30,WSW,237,2.7,2.7,36,0.00,,OVC,0.00,VWS V14.00,2013-01-17 02:25:00,
2013-01-16 21:26:00,36.5,12.1,30.30,WSW,237,2.7,2.7,36,0.00,,OVC,0.00,VWS V14.00,2013-01-17 02:26:00,
2013-01-16 21:27:00,36.5,12.1,30.30,WSW,237,3.1,3.1,36,0.00,,OVC,0.00,VWS V14.00,2013-01-17 02:27:00,
2013-01-16 21:28:00,36.5,12.1,30.30,WSW,237,3.6,3.6,36,0.00,,OVC,0.00,VWS V14.00,2013-01-17 02:28:00,
2013-01-16 21:29:00,36.5,12.1,30.29,WSW,237,3.6,3.6,36,0.00,,OVC,0.00,VWS V14.00,2013-01-17 02:29:00,
2013-01-16 21:30:00,36.5,12.1,30.30,WSW,237,3.6,3.6,36,0.00,,OVC,0.00,VWS V14.00,2013-01-17 02:30:00,
2013-01-16 21:31:00,36.5,12.1,30.30,SW,236,5.4,5.4,36,0.00,,OVC,0.00,VWS V14.00,2013-01-17 02:31:00,
2013-01-16 21:32:00,36.5,12.1,30.30,SW,230,4.9,5.4,36,0.00,,OVC,0.00,VWS V14.00,2013-01-17 02:32:00,
2013-01-16 21:33:00,36.5,12.7,30.30,SW,229,5.4,5.4,37,0.00,,OVC,0.00,VWS V14.00,2013-01-17 02:33:00,
2013-01-16 21:34:00,36.5,12.7,30.29,SW,226,5.4,5.4,37,0.00,,OVC,0.00,VWS V14.00,2013-01-17 02:34:00,
2013-01-16 21:35:00,36.5,12.7,30.30,SW,226,4.9,5.4,37,0.00,,OVC,0.00,VWS V14.00,2013-01-17 02:35:00,
2013-01-16 21:36:00,36.5,12.7,30.30,SW,226,4.9,4.9,37,0.00,,OVC,0.00,VWS V14.00,2013-01-17 02:36:00,
2013-01-16 21:37:00,36.3,12.6,30.30,SW,231,4.9,5.4,37,0.00,,OVC,0.00,VWS V14.00,2013-01-17 02:37:00,
2013-01-16 21:38:00,36.3,12.6,30.30,SW,232,3.6,4.9,37,0.00,,OVC,0.00,VWS V14.00,2013-01-17 02:38:00,
2013-01-16 21:39:00,36.3,13.2,30.29,SW,232,3.1,3.6,38,0.00,,OVC,0.00,VWS V14.00,2013-01-17 02:39:00,
2013-01-16 21:40:00,36.3,13.2,30.30,SW,232,3.1,3.6,38,0.00,,OVC,0.00,VWS V14.00,2013-01-17 02:40:00,
2013-01-16 21:41:00,36.3,13.2,30.30,SW,232,3.1,3.1,38,0.00,,OVC,0.00,VWS V14.00,2013-01-17 02:41:00,
2013-01-16 21:42:00,36.3,13.2,30.30,SW,232,3.6,3.6,38,0.00,,OVC,0.00,VWS V14.00,2013-01-17 02:42:00,
2013-01-16 21:43:00,36.1,13.0,30.30,SW,232,3.6,4.0,38,0.00,,OVC,0.00,VWS V14.00,2013-01-17 02:43:00,
2013-01-16 21:44:00,36.1,13.0,30.29,SW,232,3.6,4.0,38,0.00,,OVC,0.00,VWS V14.00,2013-01-17 02:44:00,
2013-01-16 21:45:00,36.1,13.0,30.30,SW,232,4.0,4.0,38,0.00,,OVC,0.00,VWS V14.00,2013-01-17 02:45:00,
2013-01-16 21:46:00,36.1,13.6,30.30,SW,233,3.6,4.0,39,0.00,,OVC,0.00,VWS V14.00,2013-01-17 02:46:00,
2013-01-16 21:47:00,36.1,13.6,30.30,SW,234,3.1,3.6,39,0.00,,OVC,0.00,VWS V14.00,2013-01-17 02:47:00,
2013-01-16 21:48:00,36.1,13.6,30.30,SW,235,3.1,3.1,39,0.00,,OVC,0.00,VWS V14.00,2013-01-17 02:48:00,
2013-01-16 21:49:00,36.1,13.6,30.29,SW,235,3.6,3.6,39,0.00,,OVC,0.00,VWS V14.00,2013-01-17 02:49:00,
2013-01-16 21:50:00,36.1,13.6,30.30,SW,235,4.0,4.0,39,0.00,,OVC,0.00,VWS V14.00,2013-01-17 02:50:00,
2013-01-16 21:51:00,36.1,13.6,30.30,SW,235,4.0,4.5,39,0.00,,OVC,0.00,VWS V14.00,2013-01-17 02:51:00,
2013-01-16 21:52:00,36.1,13.6,30.30,SW,235,3.1,4.0,39,0.00,,OVC,0.00,VWS V14.00,2013-01-17 02:52:00,
2013-01-16 21:53:00,36.1,13.6,30.30,SW,235,3.1,3.6,39,0.00,,OVC,0.00,VWS V14.00,2013-01-17 02:53:00,
2013-01-16 21:54:00,36.1,13.6,30.29,SW,235,3.6,3.6,39,0.00,,OVC,0.00,VWS V14.00,2013-01-17 02:54:00,
2013-01-16 21:55:00,36.1,13.6,30.30,SW,235,4.9,4.9,39,0.00,,OVC,0.00,VWS V14.00,2013-01-17 02:55:00,
2013-01-16 21:56:00,36.1,13.6,30.30,SW,235,4.9,4.9,39,0.00,,OVC,0.00,VWS V14.00,2013-01-17 02:56:00,
2013-01-16 21:57:00,36.1,13.6,30.30,SW,235,4.9,4.9,39,0.00,,OVC,0.00,VWS V14.00,2013-01-17 02:57:00,
2013-01-16 21:58:00,36.1,13.6,30.30,SW,235,4.9,4.9,39,0.00,,OVC,0.00,VWS V14.00,2013-01-17 02:58:00,
2013-01-16 21:59:00,36.1,13.6,30.29,SW,235,5.4,5.4,39,0.00,,OVC,0.00,VWS V14.00,2013-01-17 02:59:00,
2013-01-16 22:00:00,36.1,13.6,30.30,SW,235,4.5,5.4,39,0.00,,OVC,0.00,VWS V14.00,2013-01-17 03:00:00,
2013-01-16 22:01:00,36.1,13.6,30.30,SW,235,3.6,4.5,39,0.00,,OVC,0.00,VWS V14.00,2013-01-17 03:01:00,
2013-01-16 22:02:00,36.1,13.6,30.30,SW,235,4.0,4.0,39,0.00,,OVC,0.00,VWS V14.00,2013-01-17 03:02:00,
2013-01-16 22:03:00,36.1,13.6,30.30,SW,235,3.6,4.0,39,0.00,,OVC,0.00,VWS V14.00,2013-01-17 03:03:00,
2013-01-16 22:04:00,36.1,13.6,30.29,SW,235,4.5,5.4,39,0.00,,OVC,0.00,VWS V14.00,2013-01-17 03:04:00,
2013-01-16 22:05:00,36.1,13.6,30.30,SW,235,4.9,5.4,39,0.00,,OVC,0.00,VWS V14.00,2013-01-17 03:05:00,
2013-01-16 22:06:00,36.1,14.2,30.30,SW,234,4.9,5.8,40,0.00,,OVC,0.00,VWS V14.00,2013-01-17 03:06:00,
2013-01-16 22:07:00,36.3,14.3,30.30,SW,231,4.9,5.4,40,0.00,,OVC,0.00,VWS V14.00,2013-01-17 03:07:00,
2013-01-16 22:08:00,36.3,14.3,30.30,SW,230,4.9,5.4,40,0.00,,OVC,0.00,VWS V14.00,2013-01-17 03:08:00,
2013-01-16 22:09:00,36.3,14.3,30.29,SW,230,4.5,4.5,40,0.00,,OVC,0.00,VWS V14.00,2013-01-17 03:09:00,
2013-01-16 22:10:00,36.3,14.3,30.30,SW,230,4.5,4.9,40,0.00,,OVC,0.00,VWS V14.00,2013-01-17 03:10:00,
2013-01-16 22:11:00,36.5,14.5,30.30,SW,230,4.0,4.5,40,0.00,,OVC,0.00,VWS V14.00,2013-01-17 03:11:00,
2013-01-16 22:12:00,36.5,14.5,30.30,SW,230,4.0,4.9,40,0.00,,OVC,0.00,VWS V14.00,2013-01-17 03:12:00,
2013-01-16 22:13:00,36.5,14.5,30.30,SW,230,4.0,4.0,40,0.00,,OVC,0.00,VWS V14.00,2013-01-17 03:13:00,
2013-01-16 22:14:00,36.5,14.5,30.29,SW,230,4.9,4.9,40,0.00,,OVC,0.00,VWS V14.00,2013-01-17 03:14:00,
2013-01-16 22:15:00,36.5,14.5,30.30,SW,230,4.5,4.9,40,0.00,,OVC,0.00,VWS V14.00,2013-01-17 03:15:00,
2013-01-16 22:16:00,36.5,14.5,30.30,SW,230,4.5,4.9,40,0.00,,OVC,0.00,VWS V14.00,2013-01-17 03:16:00,
2013-01-16 22:17:00,36.5,14.5,30.30,SW,230,4.5,4.5,40,0.00,,OVC,0.00,VWS V14.00,2013-01-17 03:17:00,
2013-01-16 22:18:00,36.5,14.5,30.30,SW,230,4.0,4.5,40,0.00,,OVC,0.00,VWS V14.00,2013-01-17 03:18:00,
2013-01-16 22:19:00,36.7,14.6,30.29,SW,230,4.0,4.0,40,0.00,,OVC,0.00,VWS V14.00,2013-01-17 03:19:00,
2013-01-16 22:20:00,36.7,14.6,30.30,SW,230,3.6,4.0,40,0.00,,OVC,0.00,VWS V14.00,2013-01-17 03:20:00,
2013-01-16 22:21:00,36.7,14.6,30.30,SW,231,3.6,3.6,40,0.00,,OVC,0.00,VWS V14.00,2013-01-17 03:21:00,
2013-01-16 22:22:00,36.7,14.6,30.30,SW,231,3.1,3.6,40,0.00,,OVC,0.00,VWS V14.00,2013-01-17 03:22:00,
2013-01-16 22:23:00,36.9,14.8,30.30,SW,231,4.0,4.0,40,0.00,,OVC,0.00,VWS V14.00,2013-01-17 03:23:00,
2013-01-16 22:24:00,36.9,14.8,30.29,WSW,240,4.0,4.0,40,0.00,,OVC,0.00,VWS V14.00,2013-01-17 03:24:00,
2013-01-16 22:25:00,36.9,14.8,30.30,WSW,245,5.4,5.4,40,0.00,,OVC,0.00,VWS V14.00,2013-01-17 03:25:00,
2013-01-16 22:26:00,36.9,14.8,30.30,SW,233,5.4,6.3,40,0.00,,OVC,0.00,VWS V14.00,2013-01-17 03:26:00,
2013-01-16 22:27:00,36.9,14.8,30.30,SW,229,6.3,7.2,40,0.00,,OVC,0.00,VWS V14.00,2013-01-17 03:27:00,
2013-01-16 22:28:00,36.9,14.8,30.30,SW,227,5.8,6.3,40,0.00,,OVC,0.00,VWS V14.00,2013-01-17 03:28:00,
2013-01-16 22:29:00,37.0,15.0,30.29,SW,227,5.8,5.8,40,0.00,,OVC,0.00,VWS V14.00,2013-01-17 03:29:00,
2013-01-16 22:30:00,37.2,15.1,30.30,SW,224,5.8,6.3,40,0.00,,OVC,0.00,VWS V14.00,2013-01-17 03:30:00,
2013-01-16 22:31:00,37.2,15.1,30.30,SW,227,5.8,5.8,40,0.00,,OVC,0.00,VWS V14.00,2013-01-17 03:31:00,
2013-01-16 22:32:00,37.4,15.3,30.30,SW,229,4.9,5.8,40,0.00,,OVC,0.00,VWS V14.00,2013-01-17 03:32:00,
2013-01-16 22:33:00,37.4,15.3,30.30,SW,231,3.6,4.9,40,0.00,,OVC,0.00,VWS V14.00,2013-01-17 03:33:00,
2013-01-16 22:34:00,37.6,15.5,30.29,WSW,237,4.0,4.0,40,0.00,,OVC,0.00,VWS V14.00,2013-01-17 03:34:00,
2013-01-16 22:35:00,37.6,15.5,30.30,WSW,244,4.0,4.9,40,0.00,,OVC,0.00,VWS V14.00,2013-01-17 03:35:00,
2013-01-16 22:36:00,37.6,15.5,30.30,WSW,248,4.0,4.9,40,0.00,,OVC,0.00,VWS V14.00,2013-01-17 03:36:00,
2013-01-16 22:37:00,37.8,15.6,30.30,WSW,245,4.9,5.4,40,0.00,,OVC,0.00,VWS V14.00,2013-01-17 03:37:00,
2013-01-16 22:38:00,37.8,15.6,30.30,WSW,242,5.4,5.4,40,0.00,,OVC,0.00,VWS V14.00,2013-01-17 03:38:00,
2013-01-16 22:39:00,37.9,15.8,30.29,SW,236,5.8,6.3,40,0.00,,OVC,0.00,VWS V14.00,2013-01-17 03:39:00,
2013-01-16 22:40:00,37.9,15.8,30.30,SW,227,7.6,7.6,40,0.00,,OVC,0.00,VWS V14.00,2013-01-17 03:40:00,
2013-01-16 22:41:00,37.9,15.8,30.30,SW,227,5.4,7.6,40,0.00,,OVC,0.00,VWS V14.00,2013-01-17 03:41:00,
2013-01-16 22:42:00,38.1,15.9,30.30,SW,229,5.4,5.8,40,0.00,,OVC,0.00,VWS V14.00,2013-01-17 03:42:00,
2013-01-16 22:43:00,38.1,15.9,30.30,SW,229,5.8,5.8,40,0.00,,OVC,0.00,VWS V14.00,2013-01-17 03:43:00,
2013-01-16 22:44:00,38.3,16.1,30.29,SW,234,5.4,5.4,40,0.00,,OVC,0.00,VWS V14.00,2013-01-17 03:44:00,
2013-01-16 22:45:00,38.3,16.1,30.30,SW,233,5.4,5.8,40,0.00,,OVC,0.00,VWS V14.00,2013-01-17 03:45:00,
2013-01-16 22:46:00,38.5,16.3,30.30,WSW,240,4.0,5.4,40,0.00,,OVC,0.00,VWS V14.00,2013-01-17 03:46:00,
2013-01-16 22:47:00,38.5,16.3,30.30,WSW,249,4.0,4.5,40,0.00,,OVC,0.00,VWS V14.00,2013-01-17 03:47:00,
2013-01-16 22:48:00,38.5,16.3,30.30,WSW,237,4.9,4.9,40,0.00,,OVC,0.00,VWS V14.00,2013-01-17 03:48:00,
2013-01-16 22:49:00,38.7,16.4,30.29,SW,218,7.2,7.2,40,0.00,,OVC,0.00,VWS V14.00,2013-01-17 03:49:00,
2013-01-16 22:50:00,38.7,16.4,30.30,SW,225,6.3,7.2,40,0.00,,OVC,0.00,VWS V14.00,2013-01-17 03:50:00,
2013-01-16 22:51:00,38.7,16.4,30.30,SW,226,6.3,6.3,40,0.00,,OVC,0.00,VWS V14.00,2013-01-17 03:51:00,
2013-01-16 22:52:00,38.7,16.4,30.30,SW,231,6.3,6.3,40,0.00,,OVC,0.00,VWS V14.00,2013-01-17 03:52:00,
2013-01-16 22:53:00,38.8,16.6,30.30,SW,228,5.4,6.3,40,0.00,,OVC,0.00,VWS V14.00,2013-01-17 03:53:00,
2013-01-16 22:54:00,38.8,16.6,30.29,SW,233,5.8,5.8,40,0.00,,OVC,0.00,VWS V14.00,2013-01-17 03:54:00,
2013-01-16 22:55:00,38.8,16.6,30.30,SW,226,6.3,6.3,40,0.00,,OVC,0.00,VWS V14.00,2013-01-17 03:55:00,
2013-01-16 22:56:00,38.8,16.6,30.30,SW,223,5.4,6.3,40,0.00,,OVC,0.00,VWS V14.00,2013-01-17 03:56:00,
2013-01-16 22:57:00,39.0,16.8,30.30,SW,223,5.8,6.3,40,0.00,,OVC,0.00,VWS V14.00,2013-01-17 03:57:00,
2013-01-16 22:58:00,39.0,16.8,30.30,SW,225,5.8,5.8,40,0.00,,OVC,0.00,VWS V14.00,2013-01-17 03:58:00,
2013-01-16 22:59:00,39.2,16.3,30.29,SW,229,5.8,6.3,39,0.00,,OVC,0.00,VWS V14.00,2013-01-17 03:59:00,
2013-01-16 23:00:00,39.2,16.3,30.30,SW,232,5.4,6.3,39,0.00,,OVC,0.00,VWS V14.00,2013-01-17 04:00:00,
2013-01-16 23:01:00,39.2,16.3,30.30,SW,232,5.4,5.4,39,0.00,,OVC,0.00,VWS V14.00,2013-01-17 04:01:00,
2013-01-16 23:02:00,39.2,16.3,30.30,SW,234,5.4,5.8,39,0.00,,OVC,0.00,VWS V14.00,2013-01-17 04:02:00,
2013-01-16 23:03:00,39.4,16.5,30.30,SW,228,5.8,6.3,39,0.00,,OVC,0.00,VWS V14.00,2013-01-17 04:03:00,
2013-01-16 23:04:00,39.4,16.5,30.29,SW,233,5.4,5.4,39,0.00,,OVC,0.00,VWS V14.00,2013-01-17 04:04:00,
2013-01-16 23:05:00,39.4,16.5,30.30,SW,236,4.5,5.4,39,0.00,,OVC,0.00,VWS V14.00,2013-01-17 04:05:00,
2013-01-16 23:06:00,39.6,16.7,30.30,SW,235,4.9,4.9,39,0.00,,OVC,0.00,VWS V14.00,2013-01-17 04:06:00,
2013-01-16 23:07:00,39.6,16.7,30.30,WSW,239,4.5,6.3,39,0.00,,OVC,0.00,VWS V14.00,2013-01-17 04:07:00,
2013-01-16 23:08:00,39.6,16.7,30.30,WSW,246,5.8,5.8,39,0.00,,OVC,0.00,VWS V14.00,2013-01-17 04:08:00,
2013-01-16 23:09:00,39.6,16.7,30.29,SW,236,4.0,4.0,39,0.00,,OVC,0.00,VWS V14.00,2013-01-17 04:09:00,
2013-01-16 23:10:00,39.7,16.8,30.30,WSW,238,5.8,5.8,39,0.00,,OVC,0.00,VWS V14.00,2013-01-17 04:10:00,
2013-01-16 23:11:00,39.7,16.8,30.30,SW,231,4.9,5.8,39,0.00,,OVC,0.00,VWS V14.00,2013-01-17 04:11:00,
2013-01-16 23:12:00,39.7,16.8,30.30,WSW,241,4.0,4.9,39,0.00,,OVC,0.00,VWS V14.00,2013-01-17 04:12:00,
2013-01-16 23:13:00,39.7,16.8,30.30,WSW,239,4.0,4.5,39,0.00,,OVC,0.00,VWS V14.00,2013-01-17 04:13:00,
2013-01-16 23:14:00,39.7,16.8,30.29,SW,227,5.8,6.3,39,0.00,,OVC,0.00,VWS V14.00,2013-01-17 04:14:00,
2013-01-16 23:15:00,39.7,16.8,30.30,SW,231,4.9,6.3,39,0.00,,OVC,0.00,VWS V14.00,2013-01-17 04:15:00,
2013-01-16 23:16:00,39.7,16.8,30.30,SW,234,5.4,5.8,39,0.00,,OVC,0.00,VWS V14.00,2013-01-17 04:16:00,
2013-01-16 23:17:00,39.9,17.0,30.30,SW,231,5.4,6.3,39,0.00,,OVC,0.00,VWS V14.00,2013-01-17 04:17:00,
2013-01-16 23:18:00,39.9,17.0,30.30,SW,226,5.4,6.3,39,0.00,,OVC,0.00,VWS V14.00,2013-01-17 04:18:00,
2013-01-16 23:19:00,39.9,17.0,30.29,SW,227,5.4,5.4,39,0.00,,OVC,0.00,VWS V14.00,2013-01-17 04:19:00,
2013-01-16 23:20:00,39.9,17.0,30.30,SW,229,5.8,5.8,39,0.00,,OVC,0.00,VWS V14.00,2013-01-17 04:20:00,
2013-01-16 23:21:00,39.9,17.0,30.30,SW,228,4.9,5.8,39,0.00,,OVC,0.00,VWS V14.00,2013-01-17 04:21:00,
2013-01-16 23:22:00,39.9,17.0,30.30,SW,225,6.3,6.3,39,0.00,,OVC,0.00,VWS V14.00,2013-01-17 04:22:00,
2013-01-16 23:23:00,39.9,17.0,30.30,SW,233,4.9,6.3,39,0.00,,OVC,0.00,VWS V14.00,2013-01-17 04:23:00,
2013-01-16 23:24:00,39.9,17.0,30.29,SW,230,5.4,5.4,39,0.00,,OVC,0.00,VWS V14.00,2013-01-17 04:24:00,
2013-01-16 23:25:00,39.9,17.0,30.30,SW,230,5.4,5.4,39,0.00,,OVC,0.00,VWS V14.00,2013-01-17 04:25:00,
2013-01-16 23:26:00,39.9,17.0,30.30,SW,230,5.4,5.4,39,0.00,,OVC,0.00,VWS V14.00,2013-01-17 04:26:00,
2013-01-16 23:27:00,39.9,17.0,30.30,SW,230,4.9,5.8,39,0.00,,OVC,0.00,VWS V14.00,2013-01-17 04:27:00,
2013-01-16 23:28:00,39.9,17.0,30.30,SW,230,4.0,4.9,39,0.00,,OVC,0.00,VWS V14.00,2013-01-17 04:28:00,
2013-01-16 23:29:00,39.9,17.0,30.29,SW,230,4.0,4.0,39,0.00,,OVC,0.00,VWS V14.00,2013-01-17 04:29:00,
2013-01-16 23:30:00,39.9,17.0,30.30,SW,230,3.6,4.0,39,0.00,,OVC,0.00,VWS V14.00,2013-01-17 04:30:00,
2013-01-16 23:31:00,39.9,17.0,30.30,SW,231,3.1,3.6,39,0.00,,OVC,0.00,VWS V14.00,2013-01-17 04:31:00,
2013-01-16 23:32:00,39.9,17.0,30.30,WSW,238,3.6,4.0,39,0.00,,OVC,0.00,VWS V14.00,2013-01-17 04:32:00,
2013-01-16 23:33:00,39.9,17.0,30.30,WSW,243,4.0,4.0,39,0.00,,OVC,0.00,VWS V14.00,2013-01-17 04:33:00,
2013-01-16 23:34:00,39.9,17.0,30.29,WSW,243,4.0,4.0,39,0.00,,OVC,0.00,VWS V14.00,2013-01-17 04:34:00,
2013-01-16 23:35:00,39.9,17.0,30.30,WSW,245,3.6,4.0,39,0.00,,OVC,0.00,VWS V14.00,2013-01-17 04:35:00,
2013-01-16 23:36:00,39.9,17.0,30.30,WSW,248,4.9,5.4,39,0.00,,OVC,0.00,VWS V14.00,2013-01-17 04:36:00,
2013-01-16 23:37:00,39.9,17.0,30.30,WSW,248,3.6,4.9,39,0.00,,OVC,0.00,VWS V14.00,2013-01-17 04:37:00,
2013-01-16 23:38:00,39.9,17.0,30.30,WSW,246,4.0,4.9,39,0.00,,OVC,0.00,VWS V14.00,2013-01-17 04:38:00,
2013-01-16 23:39:00,39.9,17.0,30.29,WSW,250,4.5,4.9,39,0.00,,OVC,0.00,VWS V14.00,2013-01-17 04:39:00,
2013-01-16 23:40:00,39.9,17.0,30.30,WSW,256,4.0,4.9,39,0.00,,OVC,0.00,VWS V14.00,2013-01-17 04:40:00,
2013-01-16 23:41:00,39.9,17.0,30.30,WSW,252,5.4,5.4,39,0.00,,OVC,0.00,VWS V14.00,2013-01-17 04:41:00,
2013-01-16 23:42:00,39.7,16.8,30.30,WSW,246,4.0,5.4,39,0.00,,OVC,0.00,VWS V14.00,2013-01-17 04:42:00,
2013-01-16 23:43:00,39.7,16.8,30.30,WSW,250,4.9,4.9,39,0.00,,OVC,0.00,VWS V14.00,2013-01-17 04:43:00,
2013-01-16 23:44:00,39.7,16.8,30.29,WSW,248,4.9,5.8,39,0.00,,OVC,0.00,VWS V14.00,2013-01-17 04:44:00,
2013-01-16 23:45:00,39.7,16.8,30.30,WSW,251,4.9,5.8,39,0.00,,OVC,0.00,VWS V14.00,2013-01-17 04:45:00,
2013-01-16 23:46:00,39.7,16.8,30.30,WSW,251,4.5,5.4,39,0.00,,OVC,0.00,VWS V14.00,2013-01-17 04:46:00,
2013-01-16 23:47:00,39.7,16.8,30.30,WSW,253,5.4,5.4,39,0.00,,OVC,0.00,VWS V14.00,2013-01-17 04:47:00,
2013-01-16 23:48:00,39.7,16.8,30.30,WSW,255,4.9,5.4,39,0.00,,OVC,0.00,VWS V14.00,2013-01-17 04:48:00,
2013-01-16 23:49:00,39.7,16.8,30.29,WSW,254,5.4,5.4,39,0.00,,OVC,0.00,VWS V14.00,2013-01-17 04:49:00,
2013-01-16 23:50:00,39.7,16.8,30.30,WSW,258,4.9,5.4,39,0.00,,OVC,0.00,VWS V14.00,2013-01-17 04:50:00,
2013-01-16 23:51:00,39.6,16.7,30.30,WSW,250,5.4,5.4,39,0.00,,OVC,0.00,VWS V14.00,2013-01-17 04:51:00,
2013-01-16 23:52:00,39.6,16.7,30.30,WSW,249,4.9,5.4,39,0.00,,OVC,0.00,VWS V14.00,2013-01-17 04:52:00,
2013-01-16 23:53:00,39.6,16.7,30.30,WSW,246,5.4,5.4,39,0.00,,OVC,0.00,VWS V14.00,2013-01-17 04:53:00,
2013-01-16 23:54:00,39.6,16.7,30.29,WSW,248,5.4,5.4,39,0.00,,OVC,0.00,VWS V14.00,2013-01-17 04:54:00,
2013-01-16 23:55:00,39.4,16.5,30.30,WSW,249,5.4,5.4,39,0.00,,OVC,0.00,VWS V14.00,2013-01-17 04:55:00,
2013-01-16 23:56:00,39.4,16.5,30.30,WSW,247,5.4,5.8,39,0.00,,OVC,0.00,VWS V14.00,2013-01-17 04:56:00,
2013-01-16 23:57:00,39.4,16.5,30.30,WSW,252,5.4,5.4,39,0.00,,OVC,0.00,VWS V14.00,2013-01-17 04:57:00,
2013-01-16 23:58:00,39.4,16.5,30.30,WSW,255,4.9,5.4,39,0.00,,OVC,0.00,VWS V14.00,2013-01-17 04:58:00,
2013-01-16 23:59:00,39.4,16.5,30.29,WSW,252,5.4,5.4,39,0.00,,OVC,0.00,VWS V14.00,2013-01-17 04:59:00,